<?xml version="1.0" encoding="UTF-8" standalone="no" ?>
<gpx xmlns="http://www.topografix.com/GPX/1/1" xmlns:xsi="http://www.w3.org/2001/XMLSchema-instance" xsi:schemaLocation="http://www.topografix.com/GPX/1/1 http://www.topografix.com/GPX/1/1/gpx.xsd" version="1.1" creator="VisuGPX - https://www.visugpx.com">
  <metadata>
    <name>Autour de Banne</name>
    <desc><![CDATA[Départ du plateau des Gras vers le Granzon (ruisseau) remontée au magnifique village de Banne avec son fort. Point de vue au sommet Bannelle (terrasse du fort). Retour en suivant le Granzon et ses résurgences au travers des forêts environnantes puis sur le plateau.]]></desc>
  </metadata>
  <trk>
    <name><![CDATA[Ardeche 1]]></name>
    <desc><![CDATA[4 mai 2014  9:29 am]]></desc>
    <trkseg>
      <trkpt lat="44.39199" lon="4.14257">
        <ele>273.755</ele>
        <time>2014-05-04T07:29:47.803Z</time>
      </trkpt>
      <trkpt lat="44.39196" lon="4.14244">
        <ele>273.767</ele>
        <time>2014-05-04T07:30:01.083Z</time>
      </trkpt>
      <trkpt lat="44.39195" lon="4.1423">
        <ele>273.921</ele>
        <time>2014-05-04T07:30:08.875Z</time>
      </trkpt>
      <trkpt lat="44.39193" lon="4.14216">
        <ele>274.092</ele>
        <time>2014-05-04T07:30:16.041Z</time>
      </trkpt>
      <trkpt lat="44.39189" lon="4.14203">
        <ele>274.265</ele>
        <time>2014-05-04T07:30:22.929Z</time>
      </trkpt>
      <trkpt lat="44.39187" lon="4.14189">
        <ele>274.605</ele>
        <time>2014-05-04T07:30:30.040Z</time>
      </trkpt>
      <trkpt lat="44.39186" lon="4.14175">
        <ele>274.981</ele>
        <time>2014-05-04T07:30:37.937Z</time>
      </trkpt>
      <trkpt lat="44.39185" lon="4.14161">
        <ele>274.929</ele>
        <time>2014-05-04T07:30:45.261Z</time>
      </trkpt>
      <trkpt lat="44.39182" lon="4.14147">
        <ele>273.736</ele>
        <time>2014-05-04T07:30:51.523Z</time>
      </trkpt>
      <trkpt lat="44.39179" lon="4.14134">
        <ele>270.879</ele>
        <time>2014-05-04T07:30:57.917Z</time>
      </trkpt>
      <trkpt lat="44.39178" lon="4.1412">
        <ele>267.306</ele>
        <time>2014-05-04T07:31:05.626Z</time>
      </trkpt>
      <trkpt lat="44.39178" lon="4.14106">
        <ele>265.471</ele>
        <time>2014-05-04T07:31:14.362Z</time>
      </trkpt>
      <trkpt lat="44.39179" lon="4.14093">
        <ele>267.615</ele>
        <time>2014-05-04T07:31:21.480Z</time>
      </trkpt>
      <trkpt lat="44.39179" lon="4.14079">
        <ele>273.836</ele>
        <time>2014-05-04T07:31:29.200Z</time>
      </trkpt>
      <trkpt lat="44.39179" lon="4.14065">
        <ele>281.36</ele>
        <time>2014-05-04T07:31:37.297Z</time>
      </trkpt>
      <trkpt lat="44.39179" lon="4.14052">
        <ele>286.788</ele>
        <time>2014-05-04T07:31:46.837Z</time>
      </trkpt>
      <trkpt lat="44.3917" lon="4.14047">
        <ele>289.224</ele>
        <time>2014-05-04T07:31:57.542Z</time>
      </trkpt>
      <trkpt lat="44.39163" lon="4.14055">
        <ele>289.967</ele>
        <time>2014-05-04T07:32:12.918Z</time>
      </trkpt>
      <trkpt lat="44.39154" lon="4.14062">
        <ele>290.44</ele>
        <time>2014-05-04T07:32:25.626Z</time>
      </trkpt>
      <trkpt lat="44.39147" lon="4.14069">
        <ele>291.116</ele>
        <time>2014-05-04T07:32:35.736Z</time>
      </trkpt>
      <trkpt lat="44.39139" lon="4.14075">
        <ele>291.726</ele>
        <time>2014-05-04T07:32:46.490Z</time>
      </trkpt>
      <trkpt lat="44.39131" lon="4.14084">
        <ele>291.973</ele>
        <time>2014-05-04T07:32:56.427Z</time>
      </trkpt>
      <trkpt lat="44.39123" lon="4.14092">
        <ele>291.95</ele>
        <time>2014-05-04T07:33:05.362Z</time>
      </trkpt>
      <trkpt lat="44.39115" lon="4.14098">
        <ele>291.786</ele>
        <time>2014-05-04T07:33:14.592Z</time>
      </trkpt>
      <trkpt lat="44.39105" lon="4.14099">
        <ele>291.347</ele>
        <time>2014-05-04T07:33:25.287Z</time>
      </trkpt>
      <trkpt lat="44.39096" lon="4.14101">
        <ele>290.607</ele>
        <time>2014-05-04T07:33:35.609Z</time>
      </trkpt>
      <trkpt lat="44.39086" lon="4.14103">
        <ele>289.865</ele>
        <time>2014-05-04T07:33:46.412Z</time>
      </trkpt>
      <trkpt lat="44.39078" lon="4.14106">
        <ele>289.335</ele>
        <time>2014-05-04T07:33:56.076Z</time>
      </trkpt>
      <trkpt lat="44.39069" lon="4.14111">
        <ele>288.64</ele>
        <time>2014-05-04T07:34:06.969Z</time>
      </trkpt>
      <trkpt lat="44.39061" lon="4.14119">
        <ele>287.52</ele>
        <time>2014-05-04T07:34:18.036Z</time>
      </trkpt>
      <trkpt lat="44.39054" lon="4.14128">
        <ele>285.915</ele>
        <time>2014-05-04T07:34:28.126Z</time>
      </trkpt>
      <trkpt lat="44.39048" lon="4.14138">
        <ele>283.979</ele>
        <time>2014-05-04T07:34:38.959Z</time>
      </trkpt>
      <trkpt lat="44.39041" lon="4.14146">
        <ele>282.415</ele>
        <time>2014-05-04T07:34:49.327Z</time>
      </trkpt>
      <trkpt lat="44.39035" lon="4.14155">
        <ele>281.589</ele>
        <time>2014-05-04T07:34:59.889Z</time>
      </trkpt>
      <trkpt lat="44.39027" lon="4.14163">
        <ele>281.239</ele>
        <time>2014-05-04T07:35:10.535Z</time>
      </trkpt>
      <trkpt lat="44.39022" lon="4.14174">
        <ele>281.18</ele>
        <time>2014-05-04T07:35:20.541Z</time>
      </trkpt>
      <trkpt lat="44.39014" lon="4.14181">
        <ele>280.922</ele>
        <time>2014-05-04T07:35:30.870Z</time>
      </trkpt>
      <trkpt lat="44.39005" lon="4.14187">
        <ele>280.188</ele>
        <time>2014-05-04T07:35:40.510Z</time>
      </trkpt>
      <trkpt lat="44.38996" lon="4.14189">
        <ele>279.313</ele>
        <time>2014-05-04T07:35:49.395Z</time>
      </trkpt>
      <trkpt lat="44.38988" lon="4.14194">
        <ele>278.622</ele>
        <time>2014-05-04T07:35:57.637Z</time>
      </trkpt>
      <trkpt lat="44.38979" lon="4.14199">
        <ele>278.004</ele>
        <time>2014-05-04T07:36:06.037Z</time>
      </trkpt>
      <trkpt lat="44.38971" lon="4.14205">
        <ele>277.242</ele>
        <time>2014-05-04T07:36:15.360Z</time>
      </trkpt>
      <trkpt lat="44.38962" lon="4.14209">
        <ele>276.732</ele>
        <time>2014-05-04T07:36:24.743Z</time>
      </trkpt>
      <trkpt lat="44.38953" lon="4.14214">
        <ele>276.981</ele>
        <time>2014-05-04T07:36:34.958Z</time>
      </trkpt>
      <trkpt lat="44.38944" lon="4.14216">
        <ele>277.578</ele>
        <time>2014-05-04T07:36:45.819Z</time>
      </trkpt>
      <trkpt lat="44.38936" lon="4.14221">
        <ele>277.365</ele>
        <time>2014-05-04T07:36:56.800Z</time>
      </trkpt>
      <trkpt lat="44.38928" lon="4.1423">
        <ele>275.973</ele>
        <time>2014-05-04T07:37:08.269Z</time>
      </trkpt>
      <trkpt lat="44.38919" lon="4.14235">
        <ele>274.472</ele>
        <time>2014-05-04T07:37:20.819Z</time>
      </trkpt>
      <trkpt lat="44.38919" lon="4.14235">
        <ele>273.79</ele>
        <time>2014-05-04T07:37:28.806Z</time>
      </trkpt>
      <trkpt lat="44.38919" lon="4.14235">
        <ele>273.775</ele>
        <time>2014-05-04T07:37:28.906Z</time>
      </trkpt>
      <trkpt lat="44.38911" lon="4.14242">
        <ele>273.788</ele>
        <time>2014-05-04T07:37:48.013Z</time>
      </trkpt>
      <trkpt lat="44.38902" lon="4.14247">
        <ele>273.407</ele>
        <time>2014-05-04T07:37:59.688Z</time>
      </trkpt>
      <trkpt lat="44.38893" lon="4.14252">
        <ele>272.649</ele>
        <time>2014-05-04T07:38:11.808Z</time>
      </trkpt>
      <trkpt lat="44.38893" lon="4.14252">
        <ele>271.723</ele>
        <time>2014-05-04T07:38:29.817Z</time>
      </trkpt>
      <trkpt lat="44.38893" lon="4.14252">
        <ele>271.145</ele>
        <time>2014-05-04T07:38:29.917Z</time>
      </trkpt>
      <trkpt lat="44.38883" lon="4.14257">
        <ele>271.07</ele>
        <time>2014-05-04T07:39:02.322Z</time>
      </trkpt>
      <trkpt lat="44.38873" lon="4.14259">
        <ele>270.655</ele>
        <time>2014-05-04T07:39:15.243Z</time>
      </trkpt>
      <trkpt lat="44.38864" lon="4.14261">
        <ele>268.839</ele>
        <time>2014-05-04T07:39:27.112Z</time>
      </trkpt>
      <trkpt lat="44.38855" lon="4.14262">
        <ele>266.164</ele>
        <time>2014-05-04T07:39:38.873Z</time>
      </trkpt>
      <trkpt lat="44.38846" lon="4.14264">
        <ele>264.174</ele>
        <time>2014-05-04T07:39:51.346Z</time>
      </trkpt>
      <trkpt lat="44.38837" lon="4.14265">
        <ele>263.008</ele>
        <time>2014-05-04T07:40:05.641Z</time>
      </trkpt>
      <trkpt lat="44.38828" lon="4.14269">
        <ele>261.98</ele>
        <time>2014-05-04T07:40:22.641Z</time>
      </trkpt>
      <trkpt lat="44.3882" lon="4.14273">
        <ele>260.913</ele>
        <time>2014-05-04T07:40:40.616Z</time>
      </trkpt>
      <trkpt lat="44.38812" lon="4.14281">
        <ele>259.448</ele>
        <time>2014-05-04T07:41:00.526Z</time>
      </trkpt>
      <trkpt lat="44.38805" lon="4.1429">
        <ele>257.504</ele>
        <time>2014-05-04T07:41:17.393Z</time>
      </trkpt>
      <trkpt lat="44.38798" lon="4.14297">
        <ele>255.549</ele>
        <time>2014-05-04T07:41:32.917Z</time>
      </trkpt>
      <trkpt lat="44.3879" lon="4.14304">
        <ele>253.837</ele>
        <time>2014-05-04T07:41:48.813Z</time>
      </trkpt>
      <trkpt lat="44.3879" lon="4.14304">
        <ele>252.677</ele>
        <time>2014-05-04T07:41:49.819Z</time>
      </trkpt>
      <trkpt lat="44.3879" lon="4.14304">
        <ele>252.266</ele>
        <time>2014-05-04T07:41:49.919Z</time>
      </trkpt>
      <trkpt lat="44.38781" lon="4.14309">
        <ele>252.31</ele>
        <time>2014-05-04T07:42:19.463Z</time>
      </trkpt>
      <trkpt lat="44.38774" lon="4.14318">
        <ele>251.658</ele>
        <time>2014-05-04T07:42:30.820Z</time>
      </trkpt>
      <trkpt lat="44.38774" lon="4.14318">
        <ele>249.827</ele>
        <time>2014-05-04T07:42:51.816Z</time>
      </trkpt>
      <trkpt lat="44.38774" lon="4.14318">
        <ele>248.242</ele>
        <time>2014-05-04T07:42:51.916Z</time>
      </trkpt>
      <trkpt lat="44.38764" lon="4.14325">
        <ele>248.163</ele>
        <time>2014-05-04T07:43:27.094Z</time>
      </trkpt>
      <trkpt lat="44.38758" lon="4.14315">
        <ele>247.92</ele>
        <time>2014-05-04T07:43:48.414Z</time>
      </trkpt>
      <trkpt lat="44.38752" lon="4.14323">
        <ele>245.835</ele>
        <time>2014-05-04T07:44:09.257Z</time>
      </trkpt>
      <trkpt lat="44.3875" lon="4.14336">
        <ele>242.169</ele>
        <time>2014-05-04T07:44:28.734Z</time>
      </trkpt>
      <trkpt lat="44.38745" lon="4.14348">
        <ele>238.009</ele>
        <time>2014-05-04T07:44:45.686Z</time>
      </trkpt>
      <trkpt lat="44.38743" lon="4.1436">
        <ele>234.89</ele>
        <time>2014-05-04T07:45:03.134Z</time>
      </trkpt>
      <trkpt lat="44.38738" lon="4.14372">
        <ele>233.259</ele>
        <time>2014-05-04T07:45:21.236Z</time>
      </trkpt>
      <trkpt lat="44.38732" lon="4.14383">
        <ele>232.359</ele>
        <time>2014-05-04T07:45:35.289Z</time>
      </trkpt>
      <trkpt lat="44.38735" lon="4.14395">
        <ele>231.479</ele>
        <time>2014-05-04T07:45:50.623Z</time>
      </trkpt>
      <trkpt lat="44.38727" lon="4.14399">
        <ele>229.829</ele>
        <time>2014-05-04T07:46:14.728Z</time>
      </trkpt>
      <trkpt lat="44.38723" lon="4.14411">
        <ele>226.659</ele>
        <time>2014-05-04T07:46:41.818Z</time>
      </trkpt>
      <trkpt lat="44.38723" lon="4.14411">
        <ele>222.55</ele>
        <time>2014-05-04T07:46:52.819Z</time>
      </trkpt>
      <trkpt lat="44.38723" lon="4.14411">
        <ele>219.772</ele>
        <time>2014-05-04T07:46:52.919Z</time>
      </trkpt>
      <trkpt lat="44.38717" lon="4.14421">
        <ele>221.144</ele>
        <time>2014-05-04T07:47:21.818Z</time>
      </trkpt>
      <trkpt lat="44.38717" lon="4.14421">
        <ele>221.943</ele>
        <time>2014-05-04T07:47:41.820Z</time>
      </trkpt>
      <trkpt lat="44.38717" lon="4.14421">
        <ele>221.803</ele>
        <time>2014-05-04T07:47:41.920Z</time>
      </trkpt>
      <trkpt lat="44.38714" lon="4.14436">
        <ele>221.318</ele>
        <time>2014-05-04T07:47:57.818Z</time>
      </trkpt>
      <trkpt lat="44.38714" lon="4.14436">
        <ele>221.409</ele>
        <time>2014-05-04T07:48:06.827Z</time>
      </trkpt>
      <trkpt lat="44.38714" lon="4.14436">
        <ele>221.337</ele>
        <time>2014-05-04T07:48:25.825Z</time>
      </trkpt>
      <trkpt lat="44.38714" lon="4.14436">
        <ele>221.173</ele>
        <time>2014-05-04T07:48:25.925Z</time>
      </trkpt>
      <trkpt lat="44.38706" lon="4.14443">
        <ele>221.051</ele>
        <time>2014-05-04T07:48:57.097Z</time>
      </trkpt>
      <trkpt lat="44.38704" lon="4.14456">
        <ele>220.359</ele>
        <time>2014-05-04T07:49:10.706Z</time>
      </trkpt>
      <trkpt lat="44.38704" lon="4.14469">
        <ele>217.914</ele>
        <time>2014-05-04T07:49:22.551Z</time>
      </trkpt>
      <trkpt lat="44.38696" lon="4.14477">
        <ele>214.182</ele>
        <time>2014-05-04T07:49:33.816Z</time>
      </trkpt>
      <trkpt lat="44.38696" lon="4.14477">
        <ele>211.027</ele>
        <time>2014-05-04T07:49:47.818Z</time>
      </trkpt>
      <trkpt lat="44.38696" lon="4.14477">
        <ele>209.625</ele>
        <time>2014-05-04T07:51:16.657Z</time>
      </trkpt>
      <trkpt lat="44.3869" lon="4.14468">
        <ele>210.309</ele>
        <time>2014-05-04T07:52:38.816Z</time>
      </trkpt>
      <trkpt lat="44.3869" lon="4.14468">
        <ele>210.633</ele>
        <time>2014-05-04T07:52:55.820Z</time>
      </trkpt>
      <trkpt lat="44.3869" lon="4.14468">
        <ele>210.523</ele>
        <time>2014-05-04T07:52:55.920Z</time>
      </trkpt>
      <trkpt lat="44.38681" lon="4.14465">
        <ele>210.235</ele>
        <time>2014-05-04T07:53:35.328Z</time>
      </trkpt>
      <trkpt lat="44.38673" lon="4.14471">
        <ele>209.019</ele>
        <time>2014-05-04T07:53:50.796Z</time>
      </trkpt>
      <trkpt lat="44.38673" lon="4.14471">
        <ele>205.746</ele>
        <time>2014-05-04T07:54:07.842Z</time>
      </trkpt>
      <trkpt lat="44.38673" lon="4.14471">
        <ele>202.956</ele>
        <time>2014-05-04T07:54:27.836Z</time>
      </trkpt>
      <trkpt lat="44.38673" lon="4.14471">
        <ele>202.915</ele>
        <time>2014-05-04T07:54:27.936Z</time>
      </trkpt>
      <trkpt lat="44.38661" lon="4.14474">
        <ele>204.257</ele>
        <time>2014-05-04T07:55:52.820Z</time>
      </trkpt>
      <trkpt lat="44.38661" lon="4.14474">
        <ele>205.047</ele>
        <time>2014-05-04T07:56:04.826Z</time>
      </trkpt>
      <trkpt lat="44.38661" lon="4.14474">
        <ele>205.012</ele>
        <time>2014-05-04T07:56:04.926Z</time>
      </trkpt>
      <trkpt lat="44.38652" lon="4.14475">
        <ele>204.677</ele>
        <time>2014-05-04T07:56:25.948Z</time>
      </trkpt>
      <trkpt lat="44.38644" lon="4.14483">
        <ele>203.809</ele>
        <time>2014-05-04T07:56:42.519Z</time>
      </trkpt>
      <trkpt lat="44.38637" lon="4.1449">
        <ele>202.157</ele>
        <time>2014-05-04T07:57:00.417Z</time>
      </trkpt>
      <trkpt lat="44.38637" lon="4.14503">
        <ele>202.212</ele>
        <time>2014-05-04T07:57:18.889Z</time>
      </trkpt>
      <trkpt lat="44.38627" lon="4.14504">
        <ele>205.677</ele>
        <time>2014-05-04T07:57:39.724Z</time>
      </trkpt>
      <trkpt lat="44.38622" lon="4.14515">
        <ele>209.885</ele>
        <time>2014-05-04T07:57:56.308Z</time>
      </trkpt>
      <trkpt lat="44.38613" lon="4.14517">
        <ele>213.164</ele>
        <time>2014-05-04T07:58:10.985Z</time>
      </trkpt>
      <trkpt lat="44.38605" lon="4.14513">
        <ele>216.721</ele>
        <time>2014-05-04T07:58:27.570Z</time>
      </trkpt>
      <trkpt lat="44.38596" lon="4.14508">
        <ele>220.977</ele>
        <time>2014-05-04T07:58:45.210Z</time>
      </trkpt>
      <trkpt lat="44.38587" lon="4.14511">
        <ele>227.214</ele>
        <time>2014-05-04T07:59:04.284Z</time>
      </trkpt>
      <trkpt lat="44.38578" lon="4.14516">
        <ele>226.834</ele>
        <time>2014-05-04T07:59:26.785Z</time>
      </trkpt>
      <trkpt lat="44.3857" lon="4.14523">
        <ele>230.592</ele>
        <time>2014-05-04T07:59:54.129Z</time>
      </trkpt>
      <trkpt lat="44.38561" lon="4.14521">
        <ele>231.294</ele>
        <time>2014-05-04T08:00:23.149Z</time>
      </trkpt>
      <trkpt lat="44.38559" lon="4.14534">
        <ele>232.022</ele>
        <time>2014-05-04T08:00:51.910Z</time>
      </trkpt>
      <trkpt lat="44.38559" lon="4.14534">
        <ele>233.283</ele>
        <time>2014-05-04T08:00:59.829Z</time>
      </trkpt>
      <trkpt lat="44.38559" lon="4.14534">
        <ele>233.671</ele>
        <time>2014-05-04T08:00:59.929Z</time>
      </trkpt>
      <trkpt lat="44.38552" lon="4.14542">
        <ele>232.949</ele>
        <time>2014-05-04T08:01:32.833Z</time>
      </trkpt>
      <trkpt lat="44.38552" lon="4.14542">
        <ele>232.939</ele>
        <time>2014-05-04T08:02:11.831Z</time>
      </trkpt>
      <trkpt lat="44.38552" lon="4.14542">
        <ele>232.857</ele>
        <time>2014-05-04T08:02:11.931Z</time>
      </trkpt>
      <trkpt lat="44.38549" lon="4.14554">
        <ele>232.748</ele>
        <time>2014-05-04T08:04:15.769Z</time>
      </trkpt>
      <trkpt lat="44.38544" lon="4.14567">
        <ele>234.604</ele>
        <time>2014-05-04T08:04:32.816Z</time>
      </trkpt>
      <trkpt lat="44.38545" lon="4.1458">
        <ele>240.36</ele>
        <time>2014-05-04T08:04:48.299Z</time>
      </trkpt>
      <trkpt lat="44.38536" lon="4.14583">
        <ele>248.083</ele>
        <time>2014-05-04T08:05:01.816Z</time>
      </trkpt>
      <trkpt lat="44.38538" lon="4.14596">
        <ele>254.347</ele>
        <time>2014-05-04T08:05:13.816Z</time>
      </trkpt>
      <trkpt lat="44.38538" lon="4.14596">
        <ele>257.91</ele>
        <time>2014-05-04T08:05:28.852Z</time>
      </trkpt>
      <trkpt lat="44.38538" lon="4.14596">
        <ele>258.983</ele>
        <time>2014-05-04T08:05:28.952Z</time>
      </trkpt>
      <trkpt lat="44.38538" lon="4.14612">
        <ele>257.991</ele>
        <time>2014-05-04T08:06:34.356Z</time>
      </trkpt>
      <trkpt lat="44.38534" lon="4.14624">
        <ele>258.433</ele>
        <time>2014-05-04T08:06:46.111Z</time>
      </trkpt>
      <trkpt lat="44.38529" lon="4.14635">
        <ele>260.482</ele>
        <time>2014-05-04T08:06:55.050Z</time>
      </trkpt>
      <trkpt lat="44.38523" lon="4.14646">
        <ele>262.684</ele>
        <time>2014-05-04T08:07:04.942Z</time>
      </trkpt>
      <trkpt lat="44.38515" lon="4.14656">
        <ele>263.684</ele>
        <time>2014-05-04T08:07:14.532Z</time>
      </trkpt>
      <trkpt lat="44.38508" lon="4.14664">
        <ele>263.549</ele>
        <time>2014-05-04T08:07:23.393Z</time>
      </trkpt>
      <trkpt lat="44.38502" lon="4.14674">
        <ele>262.623</ele>
        <time>2014-05-04T08:07:32.073Z</time>
      </trkpt>
      <trkpt lat="44.38495" lon="4.14683">
        <ele>261.5</ele>
        <time>2014-05-04T08:07:42.083Z</time>
      </trkpt>
      <trkpt lat="44.3849" lon="4.14695">
        <ele>260.787</ele>
        <time>2014-05-04T08:07:52.140Z</time>
      </trkpt>
      <trkpt lat="44.38483" lon="4.14703">
        <ele>260.472</ele>
        <time>2014-05-04T08:07:59.823Z</time>
      </trkpt>
      <trkpt lat="44.38483" lon="4.14703">
        <ele>260.256</ele>
        <time>2014-05-04T08:08:10.826Z</time>
      </trkpt>
      <trkpt lat="44.38483" lon="4.14703">
        <ele>260.072</ele>
        <time>2014-05-04T08:08:10.926Z</time>
      </trkpt>
      <trkpt lat="44.38475" lon="4.1471">
        <ele>259.935</ele>
        <time>2014-05-04T08:09:16.837Z</time>
      </trkpt>
      <trkpt lat="44.3847" lon="4.14721">
        <ele>260.126</ele>
        <time>2014-05-04T08:09:25.814Z</time>
      </trkpt>
      <trkpt lat="44.38464" lon="4.14732">
        <ele>260.632</ele>
        <time>2014-05-04T08:09:33.623Z</time>
      </trkpt>
      <trkpt lat="44.38459" lon="4.14743">
        <ele>260.602</ele>
        <time>2014-05-04T08:09:41.157Z</time>
      </trkpt>
      <trkpt lat="44.38454" lon="4.14754">
        <ele>259.389</ele>
        <time>2014-05-04T08:09:49.039Z</time>
      </trkpt>
      <trkpt lat="44.38448" lon="4.14764">
        <ele>257.91</ele>
        <time>2014-05-04T08:09:56.952Z</time>
      </trkpt>
      <trkpt lat="44.38443" lon="4.14775">
        <ele>257.33</ele>
        <time>2014-05-04T08:10:05.438Z</time>
      </trkpt>
      <trkpt lat="44.38438" lon="4.14786">
        <ele>257.728</ele>
        <time>2014-05-04T08:10:13.895Z</time>
      </trkpt>
      <trkpt lat="44.3843" lon="4.14793">
        <ele>258.562</ele>
        <time>2014-05-04T08:10:21.051Z</time>
      </trkpt>
      <trkpt lat="44.38422" lon="4.14798">
        <ele>259.398</ele>
        <time>2014-05-04T08:10:27.438Z</time>
      </trkpt>
      <trkpt lat="44.38413" lon="4.14804">
        <ele>260.021</ele>
        <time>2014-05-04T08:10:34.446Z</time>
      </trkpt>
      <trkpt lat="44.38404" lon="4.14807">
        <ele>260.236</ele>
        <time>2014-05-04T08:10:42.399Z</time>
      </trkpt>
      <trkpt lat="44.38395" lon="4.14813">
        <ele>259.774</ele>
        <time>2014-05-04T08:10:50.610Z</time>
      </trkpt>
      <trkpt lat="44.38387" lon="4.1482">
        <ele>258.284</ele>
        <time>2014-05-04T08:10:58.754Z</time>
      </trkpt>
      <trkpt lat="44.38379" lon="4.14828">
        <ele>255.914</ele>
        <time>2014-05-04T08:11:07.413Z</time>
      </trkpt>
      <trkpt lat="44.38372" lon="4.14835">
        <ele>253.643</ele>
        <time>2014-05-04T08:11:15.471Z</time>
      </trkpt>
      <trkpt lat="44.38363" lon="4.14842">
        <ele>251.944</ele>
        <time>2014-05-04T08:11:23.782Z</time>
      </trkpt>
      <trkpt lat="44.38356" lon="4.14851">
        <ele>250.619</ele>
        <time>2014-05-04T08:11:31.811Z</time>
      </trkpt>
      <trkpt lat="44.38351" lon="4.14862">
        <ele>249.965</ele>
        <time>2014-05-04T08:11:40.002Z</time>
      </trkpt>
      <trkpt lat="44.38345" lon="4.14872">
        <ele>250.252</ele>
        <time>2014-05-04T08:11:48.140Z</time>
      </trkpt>
      <trkpt lat="44.38339" lon="4.14882">
        <ele>250.682</ele>
        <time>2014-05-04T08:11:55.183Z</time>
      </trkpt>
      <trkpt lat="44.38335" lon="4.14895">
        <ele>250.576</ele>
        <time>2014-05-04T08:12:02.557Z</time>
      </trkpt>
      <trkpt lat="44.3833" lon="4.14907">
        <ele>250.243</ele>
        <time>2014-05-04T08:12:10.483Z</time>
      </trkpt>
      <trkpt lat="44.38324" lon="4.14919">
        <ele>250.364</ele>
        <time>2014-05-04T08:12:19.618Z</time>
      </trkpt>
      <trkpt lat="44.38319" lon="4.14931">
        <ele>251.116</ele>
        <time>2014-05-04T08:12:27.890Z</time>
      </trkpt>
      <trkpt lat="44.38314" lon="4.14942">
        <ele>251.944</ele>
        <time>2014-05-04T08:12:36.235Z</time>
      </trkpt>
      <trkpt lat="44.38311" lon="4.14954">
        <ele>251.733</ele>
        <time>2014-05-04T08:12:44.925Z</time>
      </trkpt>
      <trkpt lat="44.38304" lon="4.14965">
        <ele>250.231</ele>
        <time>2014-05-04T08:12:55.207Z</time>
      </trkpt>
      <trkpt lat="44.38295" lon="4.1497">
        <ele>248.605</ele>
        <time>2014-05-04T08:13:03.672Z</time>
      </trkpt>
      <trkpt lat="44.38285" lon="4.14973">
        <ele>247.647</ele>
        <time>2014-05-04T08:13:10.829Z</time>
      </trkpt>
      <trkpt lat="44.38276" lon="4.14979">
        <ele>246.988</ele>
        <time>2014-05-04T08:13:17.551Z</time>
      </trkpt>
      <trkpt lat="44.38267" lon="4.14983">
        <ele>246.515</ele>
        <time>2014-05-04T08:13:24.083Z</time>
      </trkpt>
      <trkpt lat="44.38258" lon="4.14987">
        <ele>246.057</ele>
        <time>2014-05-04T08:13:32.069Z</time>
      </trkpt>
      <trkpt lat="44.38248" lon="4.1499">
        <ele>245.361</ele>
        <time>2014-05-04T08:13:40.817Z</time>
      </trkpt>
      <trkpt lat="44.38248" lon="4.1499">
        <ele>244.794</ele>
        <time>2014-05-04T08:14:02.946Z</time>
      </trkpt>
      <trkpt lat="44.38248" lon="4.1499">
        <ele>244.676</ele>
        <time>2014-05-04T08:14:43.369Z</time>
      </trkpt>
      <trkpt lat="44.38237" lon="4.1499">
        <ele>244.699</ele>
        <time>2014-05-04T08:15:49.194Z</time>
      </trkpt>
      <trkpt lat="44.38228" lon="4.14997">
        <ele>244.523</ele>
        <time>2014-05-04T08:15:57.770Z</time>
      </trkpt>
      <trkpt lat="44.38218" lon="4.15001">
        <ele>244.086</ele>
        <time>2014-05-04T08:16:04.404Z</time>
      </trkpt>
      <trkpt lat="44.38209" lon="4.15005">
        <ele>243.675</ele>
        <time>2014-05-04T08:16:10.237Z</time>
      </trkpt>
      <trkpt lat="44.38199" lon="4.15007">
        <ele>243.173</ele>
        <time>2014-05-04T08:16:16.204Z</time>
      </trkpt>
      <trkpt lat="44.3819" lon="4.15009">
        <ele>242.217</ele>
        <time>2014-05-04T08:16:22.215Z</time>
      </trkpt>
      <trkpt lat="44.3818" lon="4.15012">
        <ele>240.976</ele>
        <time>2014-05-04T08:16:29.545Z</time>
      </trkpt>
      <trkpt lat="44.38171" lon="4.15015">
        <ele>239.827</ele>
        <time>2014-05-04T08:16:36.964Z</time>
      </trkpt>
      <trkpt lat="44.38161" lon="4.15019">
        <ele>238.528</ele>
        <time>2014-05-04T08:16:44.239Z</time>
      </trkpt>
      <trkpt lat="44.38152" lon="4.1502">
        <ele>236.948</ele>
        <time>2014-05-04T08:16:51.292Z</time>
      </trkpt>
      <trkpt lat="44.38143" lon="4.15024">
        <ele>235.806</ele>
        <time>2014-05-04T08:16:58.563Z</time>
      </trkpt>
      <trkpt lat="44.38135" lon="4.15029">
        <ele>235.624</ele>
        <time>2014-05-04T08:17:06.166Z</time>
      </trkpt>
      <trkpt lat="44.38127" lon="4.15038">
        <ele>235.935</ele>
        <time>2014-05-04T08:17:14.561Z</time>
      </trkpt>
      <trkpt lat="44.38122" lon="4.15048">
        <ele>236.129</ele>
        <time>2014-05-04T08:17:23.436Z</time>
      </trkpt>
      <trkpt lat="44.38116" lon="4.15061">
        <ele>236.125</ele>
        <time>2014-05-04T08:17:32.183Z</time>
      </trkpt>
      <trkpt lat="44.38114" lon="4.15074">
        <ele>236.25</ele>
        <time>2014-05-04T08:17:40.488Z</time>
      </trkpt>
      <trkpt lat="44.38111" lon="4.15088">
        <ele>236.81</ele>
        <time>2014-05-04T08:17:50.393Z</time>
      </trkpt>
      <trkpt lat="44.38106" lon="4.15099">
        <ele>238.004</ele>
        <time>2014-05-04T08:17:59.823Z</time>
      </trkpt>
      <trkpt lat="44.38106" lon="4.15099">
        <ele>239.576</ele>
        <time>2014-05-04T08:18:06.843Z</time>
      </trkpt>
      <trkpt lat="44.38106" lon="4.15099">
        <ele>240.527</ele>
        <time>2014-05-04T08:18:25.818Z</time>
      </trkpt>
      <trkpt lat="44.38106" lon="4.15099">
        <ele>240.371</ele>
        <time>2014-05-04T08:18:25.918Z</time>
      </trkpt>
      <trkpt lat="44.381" lon="4.15109">
        <ele>239.812</ele>
        <time>2014-05-04T08:18:34.604Z</time>
      </trkpt>
      <trkpt lat="44.38095" lon="4.15119">
        <ele>239.719</ele>
        <time>2014-05-04T08:18:38.825Z</time>
      </trkpt>
      <trkpt lat="44.38095" lon="4.15119">
        <ele>238.474</ele>
        <time>2014-05-04T08:18:50.823Z</time>
      </trkpt>
      <trkpt lat="44.38095" lon="4.15119">
        <ele>238.376</ele>
        <time>2014-05-04T08:18:50.923Z</time>
      </trkpt>
      <trkpt lat="44.38081" lon="4.15134">
        <ele>238.59</ele>
        <time>2014-05-04T08:19:11.259Z</time>
      </trkpt>
      <trkpt lat="44.38072" lon="4.15138">
        <ele>238.692</ele>
        <time>2014-05-04T08:19:17.608Z</time>
      </trkpt>
      <trkpt lat="44.38063" lon="4.15145">
        <ele>238.854</ele>
        <time>2014-05-04T08:19:23.731Z</time>
      </trkpt>
      <trkpt lat="44.38054" lon="4.15151">
        <ele>239.07</ele>
        <time>2014-05-04T08:19:29.743Z</time>
      </trkpt>
      <trkpt lat="44.38044" lon="4.15154">
        <ele>238.676</ele>
        <time>2014-05-04T08:19:36.224Z</time>
      </trkpt>
      <trkpt lat="44.38035" lon="4.15155">
        <ele>237.565</ele>
        <time>2014-05-04T08:19:42.622Z</time>
      </trkpt>
      <trkpt lat="44.38025" lon="4.15154">
        <ele>236.594</ele>
        <time>2014-05-04T08:19:49.371Z</time>
      </trkpt>
      <trkpt lat="44.38015" lon="4.15156">
        <ele>236.473</ele>
        <time>2014-05-04T08:19:56.366Z</time>
      </trkpt>
      <trkpt lat="44.38006" lon="4.15158">
        <ele>237.147</ele>
        <time>2014-05-04T08:20:03.668Z</time>
      </trkpt>
      <trkpt lat="44.37996" lon="4.15156">
        <ele>238.236</ele>
        <time>2014-05-04T08:20:10.420Z</time>
      </trkpt>
      <trkpt lat="44.37986" lon="4.15154">
        <ele>239.565</ele>
        <time>2014-05-04T08:20:17.707Z</time>
      </trkpt>
      <trkpt lat="44.37977" lon="4.15151">
        <ele>240.742</ele>
        <time>2014-05-04T08:20:24.482Z</time>
      </trkpt>
      <trkpt lat="44.37968" lon="4.15145">
        <ele>241.19</ele>
        <time>2014-05-04T08:20:31.762Z</time>
      </trkpt>
      <trkpt lat="44.37958" lon="4.15144">
        <ele>240.921</ele>
        <time>2014-05-04T08:20:39.815Z</time>
      </trkpt>
      <trkpt lat="44.37958" lon="4.15144">
        <ele>240.509</ele>
        <time>2014-05-04T08:20:57.816Z</time>
      </trkpt>
      <trkpt lat="44.37958" lon="4.15144">
        <ele>240.398</ele>
        <time>2014-05-04T08:20:57.916Z</time>
      </trkpt>
      <trkpt lat="44.37947" lon="4.15142">
        <ele>240.497</ele>
        <time>2014-05-04T08:21:18.709Z</time>
      </trkpt>
      <trkpt lat="44.37938" lon="4.15142">
        <ele>241.084</ele>
        <time>2014-05-04T08:21:27.125Z</time>
      </trkpt>
      <trkpt lat="44.37929" lon="4.1514">
        <ele>242.386</ele>
        <time>2014-05-04T08:21:35.313Z</time>
      </trkpt>
      <trkpt lat="44.37919" lon="4.15136">
        <ele>243.679</ele>
        <time>2014-05-04T08:21:44.380Z</time>
      </trkpt>
      <trkpt lat="44.3791" lon="4.15131">
        <ele>244.412</ele>
        <time>2014-05-04T08:21:53.594Z</time>
      </trkpt>
      <trkpt lat="44.37901" lon="4.15125">
        <ele>245.002</ele>
        <time>2014-05-04T08:22:03.398Z</time>
      </trkpt>
      <trkpt lat="44.37891" lon="4.15125">
        <ele>245.874</ele>
        <time>2014-05-04T08:22:11.706Z</time>
      </trkpt>
      <trkpt lat="44.37883" lon="4.15129">
        <ele>246.9</ele>
        <time>2014-05-04T08:22:19.771Z</time>
      </trkpt>
      <trkpt lat="44.37873" lon="4.15131">
        <ele>247.305</ele>
        <time>2014-05-04T08:22:28.505Z</time>
      </trkpt>
      <trkpt lat="44.37863" lon="4.15135">
        <ele>246.719</ele>
        <time>2014-05-04T08:22:37.260Z</time>
      </trkpt>
      <trkpt lat="44.37854" lon="4.15138">
        <ele>245.842</ele>
        <time>2014-05-04T08:22:44.391Z</time>
      </trkpt>
      <trkpt lat="44.37845" lon="4.1514">
        <ele>245.375</ele>
        <time>2014-05-04T08:22:52.154Z</time>
      </trkpt>
      <trkpt lat="44.37838" lon="4.15148">
        <ele>245.178</ele>
        <time>2014-05-04T08:23:02.050Z</time>
      </trkpt>
      <trkpt lat="44.37829" lon="4.15153">
        <ele>244.957</ele>
        <time>2014-05-04T08:23:12.475Z</time>
      </trkpt>
      <trkpt lat="44.3782" lon="4.15157">
        <ele>244.63</ele>
        <time>2014-05-04T08:23:22.276Z</time>
      </trkpt>
      <trkpt lat="44.37811" lon="4.1516">
        <ele>244.253</ele>
        <time>2014-05-04T08:23:30.379Z</time>
      </trkpt>
      <trkpt lat="44.37802" lon="4.15165">
        <ele>243.905</ele>
        <time>2014-05-04T08:23:38.781Z</time>
      </trkpt>
      <trkpt lat="44.37793" lon="4.15168">
        <ele>244.129</ele>
        <time>2014-05-04T08:23:47.078Z</time>
      </trkpt>
      <trkpt lat="44.37784" lon="4.15171">
        <ele>244.359</ele>
        <time>2014-05-04T08:23:57.229Z</time>
      </trkpt>
      <trkpt lat="44.37775" lon="4.15173">
        <ele>244.502</ele>
        <time>2014-05-04T08:24:09.837Z</time>
      </trkpt>
      <trkpt lat="44.37775" lon="4.15173">
        <ele>244.631</ele>
        <time>2014-05-04T08:24:23.842Z</time>
      </trkpt>
      <trkpt lat="44.37775" lon="4.15173">
        <ele>244.64</ele>
        <time>2014-05-04T08:24:45.829Z</time>
      </trkpt>
      <trkpt lat="44.37775" lon="4.15173">
        <ele>244.47</ele>
        <time>2014-05-04T08:25:17.567Z</time>
      </trkpt>
      <trkpt lat="44.3777" lon="4.1516">
        <ele>244.359</ele>
        <time>2014-05-04T08:25:54.436Z</time>
      </trkpt>
      <trkpt lat="44.37773" lon="4.15148">
        <ele>245.309</ele>
        <time>2014-05-04T08:26:03.192Z</time>
      </trkpt>
      <trkpt lat="44.37777" lon="4.15136">
        <ele>247.879</ele>
        <time>2014-05-04T08:26:11.220Z</time>
      </trkpt>
      <trkpt lat="44.37785" lon="4.15126">
        <ele>250.524</ele>
        <time>2014-05-04T08:26:19.884Z</time>
      </trkpt>
      <trkpt lat="44.37793" lon="4.15117">
        <ele>251.955</ele>
        <time>2014-05-04T08:26:28.907Z</time>
      </trkpt>
      <trkpt lat="44.378" lon="4.15109">
        <ele>252.598</ele>
        <time>2014-05-04T08:26:37.615Z</time>
      </trkpt>
      <trkpt lat="44.37809" lon="4.15101">
        <ele>252.823</ele>
        <time>2014-05-04T08:26:46.361Z</time>
      </trkpt>
      <trkpt lat="44.37817" lon="4.15096">
        <ele>252.737</ele>
        <time>2014-05-04T08:26:54.396Z</time>
      </trkpt>
      <trkpt lat="44.37823" lon="4.15085">
        <ele>252.561</ele>
        <time>2014-05-04T08:27:03.335Z</time>
      </trkpt>
      <trkpt lat="44.37829" lon="4.15075">
        <ele>252.45</ele>
        <time>2014-05-04T08:27:11.538Z</time>
      </trkpt>
      <trkpt lat="44.3783" lon="4.15062">
        <ele>252.349</ele>
        <time>2014-05-04T08:27:19.322Z</time>
      </trkpt>
      <trkpt lat="44.3783" lon="4.15049">
        <ele>252.196</ele>
        <time>2014-05-04T08:27:27.599Z</time>
      </trkpt>
      <trkpt lat="44.37828" lon="4.15037">
        <ele>252.084</ele>
        <time>2014-05-04T08:27:36.484Z</time>
      </trkpt>
      <trkpt lat="44.37824" lon="4.15024">
        <ele>252.081</ele>
        <time>2014-05-04T08:27:45.635Z</time>
      </trkpt>
      <trkpt lat="44.37821" lon="4.1501">
        <ele>252.604</ele>
        <time>2014-05-04T08:27:55.066Z</time>
      </trkpt>
      <trkpt lat="44.37817" lon="4.14998">
        <ele>253.873</ele>
        <time>2014-05-04T08:28:03.400Z</time>
      </trkpt>
      <trkpt lat="44.37816" lon="4.14986">
        <ele>255.513</ele>
        <time>2014-05-04T08:28:10.984Z</time>
      </trkpt>
      <trkpt lat="44.37813" lon="4.14973">
        <ele>257.052</ele>
        <time>2014-05-04T08:28:18.822Z</time>
      </trkpt>
      <trkpt lat="44.37813" lon="4.14973">
        <ele>257.922</ele>
        <time>2014-05-04T08:28:33.826Z</time>
      </trkpt>
      <trkpt lat="44.37813" lon="4.14973">
        <ele>257.802</ele>
        <time>2014-05-04T08:28:33.926Z</time>
      </trkpt>
      <trkpt lat="44.37813" lon="4.14955">
        <ele>257.385</ele>
        <time>2014-05-04T08:29:08.643Z</time>
      </trkpt>
      <trkpt lat="44.37811" lon="4.14941">
        <ele>257.292</ele>
        <time>2014-05-04T08:29:18.439Z</time>
      </trkpt>
      <trkpt lat="44.3781" lon="4.14928">
        <ele>257.917</ele>
        <time>2014-05-04T08:29:27.575Z</time>
      </trkpt>
      <trkpt lat="44.37807" lon="4.14916">
        <ele>259.092</ele>
        <time>2014-05-04T08:29:35.354Z</time>
      </trkpt>
      <trkpt lat="44.37802" lon="4.14905">
        <ele>259.899</ele>
        <time>2014-05-04T08:29:42.261Z</time>
      </trkpt>
      <trkpt lat="44.37796" lon="4.14894">
        <ele>259.807</ele>
        <time>2014-05-04T08:29:49.328Z</time>
      </trkpt>
      <trkpt lat="44.37789" lon="4.14885">
        <ele>259.156</ele>
        <time>2014-05-04T08:29:56.411Z</time>
      </trkpt>
      <trkpt lat="44.37786" lon="4.14873">
        <ele>258.393</ele>
        <time>2014-05-04T08:30:04.756Z</time>
      </trkpt>
      <trkpt lat="44.3779" lon="4.14859">
        <ele>257.815</ele>
        <time>2014-05-04T08:30:15.446Z</time>
      </trkpt>
      <trkpt lat="44.37793" lon="4.14846">
        <ele>257.213</ele>
        <time>2014-05-04T08:30:26.469Z</time>
      </trkpt>
      <trkpt lat="44.37794" lon="4.14832">
        <ele>256.428</ele>
        <time>2014-05-04T08:30:37.311Z</time>
      </trkpt>
      <trkpt lat="44.37789" lon="4.14821">
        <ele>255.518</ele>
        <time>2014-05-04T08:30:45.165Z</time>
      </trkpt>
      <trkpt lat="44.37784" lon="4.1481">
        <ele>254.953</ele>
        <time>2014-05-04T08:30:52.816Z</time>
      </trkpt>
      <trkpt lat="44.37784" lon="4.1481">
        <ele>254.963</ele>
        <time>2014-05-04T08:31:02.824Z</time>
      </trkpt>
      <trkpt lat="44.37784" lon="4.1481">
        <ele>255.047</ele>
        <time>2014-05-04T08:31:02.924Z</time>
      </trkpt>
      <trkpt lat="44.37775" lon="4.14807">
        <ele>254.712</ele>
        <time>2014-05-04T08:32:29.883Z</time>
      </trkpt>
      <trkpt lat="44.37766" lon="4.14802">
        <ele>254.681</ele>
        <time>2014-05-04T08:32:42.878Z</time>
      </trkpt>
      <trkpt lat="44.37757" lon="4.14796">
        <ele>255.324</ele>
        <time>2014-05-04T08:32:54.565Z</time>
      </trkpt>
      <trkpt lat="44.37748" lon="4.14789">
        <ele>256.933</ele>
        <time>2014-05-04T08:33:07.323Z</time>
      </trkpt>
      <trkpt lat="44.3774" lon="4.14784">
        <ele>259.037</ele>
        <time>2014-05-04T08:33:19.783Z</time>
      </trkpt>
      <trkpt lat="44.37737" lon="4.14772">
        <ele>261.004</ele>
        <time>2014-05-04T08:33:32.361Z</time>
      </trkpt>
      <trkpt lat="44.37731" lon="4.1476">
        <ele>262.64</ele>
        <time>2014-05-04T08:33:43.525Z</time>
      </trkpt>
      <trkpt lat="44.37722" lon="4.14755">
        <ele>262.429</ele>
        <time>2014-05-04T08:33:52.638Z</time>
      </trkpt>
      <trkpt lat="44.37719" lon="4.14743">
        <ele>262.49</ele>
        <time>2014-05-04T08:34:03.554Z</time>
      </trkpt>
      <trkpt lat="44.3771" lon="4.14737">
        <ele>262.94</ele>
        <time>2014-05-04T08:34:15.357Z</time>
      </trkpt>
      <trkpt lat="44.37701" lon="4.14733">
        <ele>264.312</ele>
        <time>2014-05-04T08:34:26.313Z</time>
      </trkpt>
      <trkpt lat="44.37692" lon="4.14728">
        <ele>266.374</ele>
        <time>2014-05-04T08:34:38.893Z</time>
      </trkpt>
      <trkpt lat="44.37683" lon="4.14722">
        <ele>267.897</ele>
        <time>2014-05-04T08:34:51.661Z</time>
      </trkpt>
      <trkpt lat="44.37676" lon="4.14714">
        <ele>267.953</ele>
        <time>2014-05-04T08:35:02.967Z</time>
      </trkpt>
      <trkpt lat="44.37668" lon="4.14706">
        <ele>267.187</ele>
        <time>2014-05-04T08:35:14.386Z</time>
      </trkpt>
      <trkpt lat="44.37659" lon="4.147">
        <ele>267.511</ele>
        <time>2014-05-04T08:35:26.121Z</time>
      </trkpt>
      <trkpt lat="44.3765" lon="4.14694">
        <ele>269.476</ele>
        <time>2014-05-04T08:35:37.900Z</time>
      </trkpt>
      <trkpt lat="44.37641" lon="4.14688">
        <ele>271.181</ele>
        <time>2014-05-04T08:35:48.116Z</time>
      </trkpt>
      <trkpt lat="44.37632" lon="4.14682">
        <ele>271.33</ele>
        <time>2014-05-04T08:35:57.171Z</time>
      </trkpt>
      <trkpt lat="44.37623" lon="4.14677">
        <ele>271.328</ele>
        <time>2014-05-04T08:36:06.171Z</time>
      </trkpt>
      <trkpt lat="44.37614" lon="4.14675">
        <ele>272.544</ele>
        <time>2014-05-04T08:36:16.145Z</time>
      </trkpt>
      <trkpt lat="44.37605" lon="4.14671">
        <ele>273.51</ele>
        <time>2014-05-04T08:36:26.180Z</time>
      </trkpt>
      <trkpt lat="44.37596" lon="4.1467">
        <ele>272.721</ele>
        <time>2014-05-04T08:36:36.032Z</time>
      </trkpt>
      <trkpt lat="44.37587" lon="4.14668">
        <ele>271.873</ele>
        <time>2014-05-04T08:36:46.483Z</time>
      </trkpt>
      <trkpt lat="44.37577" lon="4.14667">
        <ele>272.736</ele>
        <time>2014-05-04T08:36:55.821Z</time>
      </trkpt>
      <trkpt lat="44.37577" lon="4.14667">
        <ele>274.408</ele>
        <time>2014-05-04T08:37:09.830Z</time>
      </trkpt>
      <trkpt lat="44.37577" lon="4.14667">
        <ele>275.288</ele>
        <time>2014-05-04T08:38:59.615Z</time>
      </trkpt>
      <trkpt lat="44.3757" lon="4.14674">
        <ele>274.511</ele>
        <time>2014-05-04T08:39:36.141Z</time>
      </trkpt>
      <trkpt lat="44.37571" lon="4.14687">
        <ele>274.8</ele>
        <time>2014-05-04T08:39:58.613Z</time>
      </trkpt>
      <trkpt lat="44.37577" lon="4.14697">
        <ele>276.56</ele>
        <time>2014-05-04T08:40:19.950Z</time>
      </trkpt>
      <trkpt lat="44.3758" lon="4.1471">
        <ele>278.578</ele>
        <time>2014-05-04T08:40:37.792Z</time>
      </trkpt>
      <trkpt lat="44.3758" lon="4.14722">
        <ele>279.611</ele>
        <time>2014-05-04T08:40:55.125Z</time>
      </trkpt>
      <trkpt lat="44.37579" lon="4.14736">
        <ele>280.203</ele>
        <time>2014-05-04T08:41:16.981Z</time>
      </trkpt>
      <trkpt lat="44.37575" lon="4.14749">
        <ele>281.077</ele>
        <time>2014-05-04T08:41:37.606Z</time>
      </trkpt>
      <trkpt lat="44.37576" lon="4.14762">
        <ele>281.918</ele>
        <time>2014-05-04T08:41:54.836Z</time>
      </trkpt>
      <trkpt lat="44.37576" lon="4.14762">
        <ele>282.247</ele>
        <time>2014-05-04T08:42:01.850Z</time>
      </trkpt>
      <trkpt lat="44.37576" lon="4.14762">
        <ele>282.185</ele>
        <time>2014-05-04T08:42:01.950Z</time>
      </trkpt>
      <trkpt lat="44.3757" lon="4.14775">
        <ele>282.033</ele>
        <time>2014-05-04T08:43:22.525Z</time>
      </trkpt>
      <trkpt lat="44.37575" lon="4.14785">
        <ele>282.337</ele>
        <time>2014-05-04T08:43:35.568Z</time>
      </trkpt>
      <trkpt lat="44.37575" lon="4.14799">
        <ele>283.38</ele>
        <time>2014-05-04T08:43:46.903Z</time>
      </trkpt>
      <trkpt lat="44.37574" lon="4.14812">
        <ele>284.499</ele>
        <time>2014-05-04T08:43:58.814Z</time>
      </trkpt>
      <trkpt lat="44.37574" lon="4.14812">
        <ele>284.933</ele>
        <time>2014-05-04T08:43:59.825Z</time>
      </trkpt>
      <trkpt lat="44.37574" lon="4.14812">
        <ele>284.746</ele>
        <time>2014-05-04T08:43:59.925Z</time>
      </trkpt>
      <trkpt lat="44.37572" lon="4.14826">
        <ele>284.386</ele>
        <time>2014-05-04T08:44:20.280Z</time>
      </trkpt>
      <trkpt lat="44.37567" lon="4.14836">
        <ele>284.111</ele>
        <time>2014-05-04T08:44:31.660Z</time>
      </trkpt>
      <trkpt lat="44.37563" lon="4.14848">
        <ele>283.249</ele>
        <time>2014-05-04T08:44:41.572Z</time>
      </trkpt>
      <trkpt lat="44.37559" lon="4.1486">
        <ele>283.01</ele>
        <time>2014-05-04T08:44:48.533Z</time>
      </trkpt>
      <trkpt lat="44.37556" lon="4.14872">
        <ele>282.282</ele>
        <time>2014-05-04T08:44:57.867Z</time>
      </trkpt>
      <trkpt lat="44.37549" lon="4.14881">
        <ele>280.336</ele>
        <time>2014-05-04T08:45:07.835Z</time>
      </trkpt>
      <trkpt lat="44.37549" lon="4.14881">
        <ele>277.581</ele>
        <time>2014-05-04T08:45:17.833Z</time>
      </trkpt>
      <trkpt lat="44.37549" lon="4.14881">
        <ele>275.81</ele>
        <time>2014-05-04T08:47:48.097Z</time>
      </trkpt>
      <trkpt lat="44.37543" lon="4.14898">
        <ele>275.793</ele>
        <time>2014-05-04T08:50:49.830Z</time>
      </trkpt>
      <trkpt lat="44.37543" lon="4.14898">
        <ele>276.499</ele>
        <time>2014-05-04T08:50:59.837Z</time>
      </trkpt>
      <trkpt lat="44.37543" lon="4.14898">
        <ele>276.825</ele>
        <time>2014-05-04T08:50:59.937Z</time>
      </trkpt>
      <trkpt lat="44.37537" lon="4.14909">
        <ele>276.352</ele>
        <time>2014-05-04T08:51:31.627Z</time>
      </trkpt>
      <trkpt lat="44.37535" lon="4.14921">
        <ele>275.964</ele>
        <time>2014-05-04T08:51:45.833Z</time>
      </trkpt>
      <trkpt lat="44.37535" lon="4.14921">
        <ele>275.367</ele>
        <time>2014-05-04T08:51:48.828Z</time>
      </trkpt>
      <trkpt lat="44.37535" lon="4.14921">
        <ele>274.872</ele>
        <time>2014-05-04T08:51:58.832Z</time>
      </trkpt>
      <trkpt lat="44.37535" lon="4.14921">
        <ele>274.771</ele>
        <time>2014-05-04T08:51:58.932Z</time>
      </trkpt>
      <trkpt lat="44.3753" lon="4.14933">
        <ele>274.763</ele>
        <time>2014-05-04T08:52:25.694Z</time>
      </trkpt>
      <trkpt lat="44.37526" lon="4.14945">
        <ele>274.619</ele>
        <time>2014-05-04T08:52:35.318Z</time>
      </trkpt>
      <trkpt lat="44.37521" lon="4.14956">
        <ele>273.322</ele>
        <time>2014-05-04T08:52:44.461Z</time>
      </trkpt>
      <trkpt lat="44.37518" lon="4.14968">
        <ele>269.604</ele>
        <time>2014-05-04T08:52:53.868Z</time>
      </trkpt>
      <trkpt lat="44.37513" lon="4.14979">
        <ele>265.278</ele>
        <time>2014-05-04T08:53:03.837Z</time>
      </trkpt>
      <trkpt lat="44.37513" lon="4.14979">
        <ele>263.176</ele>
        <time>2014-05-04T08:53:11.854Z</time>
      </trkpt>
      <trkpt lat="44.37513" lon="4.14979">
        <ele>263.196</ele>
        <time>2014-05-04T08:53:11.954Z</time>
      </trkpt>
      <trkpt lat="44.37504" lon="4.14992">
        <ele>263.727</ele>
        <time>2014-05-04T08:53:47.138Z</time>
      </trkpt>
      <trkpt lat="44.37498" lon="4.15004">
        <ele>263.967</ele>
        <time>2014-05-04T08:54:08.719Z</time>
      </trkpt>
      <trkpt lat="44.3749" lon="4.15013">
        <ele>263.913</ele>
        <time>2014-05-04T08:54:33.212Z</time>
      </trkpt>
      <trkpt lat="44.37491" lon="4.15026">
        <ele>263.673</ele>
        <time>2014-05-04T08:54:59.560Z</time>
      </trkpt>
      <trkpt lat="44.37487" lon="4.15038">
        <ele>262.589</ele>
        <time>2014-05-04T08:55:18.817Z</time>
      </trkpt>
      <trkpt lat="44.37481" lon="4.15048">
        <ele>259.43</ele>
        <time>2014-05-04T08:55:36.204Z</time>
      </trkpt>
      <trkpt lat="44.37478" lon="4.15061">
        <ele>254.783</ele>
        <time>2014-05-04T08:55:57.270Z</time>
      </trkpt>
      <trkpt lat="44.37472" lon="4.1507">
        <ele>252.808</ele>
        <time>2014-05-04T08:56:12.412Z</time>
      </trkpt>
      <trkpt lat="44.37467" lon="4.15082">
        <ele>252.679</ele>
        <time>2014-05-04T08:56:24.787Z</time>
      </trkpt>
      <trkpt lat="44.37465" lon="4.15094">
        <ele>251.325</ele>
        <time>2014-05-04T08:56:36.870Z</time>
      </trkpt>
      <trkpt lat="44.37462" lon="4.15107">
        <ele>249.628</ele>
        <time>2014-05-04T08:56:47.905Z</time>
      </trkpt>
      <trkpt lat="44.37455" lon="4.15115">
        <ele>248.372</ele>
        <time>2014-05-04T08:56:58.832Z</time>
      </trkpt>
      <trkpt lat="44.37455" lon="4.15115">
        <ele>247.837</ele>
        <time>2014-05-04T08:57:11.834Z</time>
      </trkpt>
      <trkpt lat="44.37455" lon="4.15115">
        <ele>247.696</ele>
        <time>2014-05-04T08:57:11.934Z</time>
      </trkpt>
      <trkpt lat="44.37442" lon="4.15117">
        <ele>247.636</ele>
        <time>2014-05-04T08:57:44.396Z</time>
      </trkpt>
      <trkpt lat="44.37433" lon="4.15116">
        <ele>246.331</ele>
        <time>2014-05-04T08:57:57.562Z</time>
      </trkpt>
      <trkpt lat="44.37424" lon="4.1512">
        <ele>243.062</ele>
        <time>2014-05-04T08:58:05.027Z</time>
      </trkpt>
      <trkpt lat="44.37414" lon="4.1512">
        <ele>240.106</ele>
        <time>2014-05-04T08:58:11.884Z</time>
      </trkpt>
      <trkpt lat="44.37405" lon="4.1512">
        <ele>239.509</ele>
        <time>2014-05-04T08:58:17.842Z</time>
      </trkpt>
      <trkpt lat="44.37405" lon="4.1512">
        <ele>240.028</ele>
        <time>2014-05-04T08:58:25.844Z</time>
      </trkpt>
      <trkpt lat="44.37405" lon="4.1512">
        <ele>240.128</ele>
        <time>2014-05-04T08:58:25.944Z</time>
      </trkpt>
      <trkpt lat="44.37396" lon="4.15116">
        <ele>239.677</ele>
        <time>2014-05-04T08:58:45.067Z</time>
      </trkpt>
      <trkpt lat="44.37387" lon="4.15119">
        <ele>239.914</ele>
        <time>2014-05-04T08:58:57.926Z</time>
      </trkpt>
      <trkpt lat="44.37378" lon="4.15125">
        <ele>240.601</ele>
        <time>2014-05-04T08:59:09.867Z</time>
      </trkpt>
      <trkpt lat="44.37369" lon="4.15128">
        <ele>241.309</ele>
        <time>2014-05-04T08:59:20.848Z</time>
      </trkpt>
      <trkpt lat="44.3736" lon="4.15133">
        <ele>241.653</ele>
        <time>2014-05-04T08:59:32.943Z</time>
      </trkpt>
      <trkpt lat="44.37352" lon="4.1514">
        <ele>241.005</ele>
        <time>2014-05-04T08:59:44.698Z</time>
      </trkpt>
      <trkpt lat="44.37346" lon="4.1515">
        <ele>239.112</ele>
        <time>2014-05-04T08:59:55.239Z</time>
      </trkpt>
      <trkpt lat="44.37339" lon="4.15159">
        <ele>237.167</ele>
        <time>2014-05-04T09:00:06.921Z</time>
      </trkpt>
      <trkpt lat="44.37331" lon="4.15165">
        <ele>236.728</ele>
        <time>2014-05-04T09:00:18.589Z</time>
      </trkpt>
      <trkpt lat="44.37322" lon="4.15168">
        <ele>237.67</ele>
        <time>2014-05-04T09:00:28.596Z</time>
      </trkpt>
      <trkpt lat="44.37315" lon="4.15176">
        <ele>238.773</ele>
        <time>2014-05-04T09:00:38.363Z</time>
      </trkpt>
      <trkpt lat="44.37308" lon="4.15184">
        <ele>239.364</ele>
        <time>2014-05-04T09:00:49.483Z</time>
      </trkpt>
      <trkpt lat="44.37302" lon="4.15194">
        <ele>239.929</ele>
        <time>2014-05-04T09:01:02.965Z</time>
      </trkpt>
      <trkpt lat="44.37295" lon="4.15202">
        <ele>240.891</ele>
        <time>2014-05-04T09:01:17.474Z</time>
      </trkpt>
      <trkpt lat="44.37287" lon="4.15208">
        <ele>242.574</ele>
        <time>2014-05-04T09:01:30.946Z</time>
      </trkpt>
      <trkpt lat="44.37284" lon="4.15222">
        <ele>244.782</ele>
        <time>2014-05-04T09:01:42.231Z</time>
      </trkpt>
      <trkpt lat="44.37284" lon="4.15235">
        <ele>247.017</ele>
        <time>2014-05-04T09:01:52.494Z</time>
      </trkpt>
      <trkpt lat="44.37282" lon="4.15249">
        <ele>248.97</ele>
        <time>2014-05-04T09:02:05.939Z</time>
      </trkpt>
      <trkpt lat="44.37281" lon="4.15262">
        <ele>250.637</ele>
        <time>2014-05-04T09:02:22.438Z</time>
      </trkpt>
      <trkpt lat="44.37272" lon="4.15264">
        <ele>248.981</ele>
        <time>2014-05-04T09:02:37.898Z</time>
      </trkpt>
      <trkpt lat="44.37264" lon="4.15266">
        <ele>247.897</ele>
        <time>2014-05-04T09:02:53.180Z</time>
      </trkpt>
      <trkpt lat="44.37255" lon="4.15273">
        <ele>245.719</ele>
        <time>2014-05-04T09:03:12.731Z</time>
      </trkpt>
      <trkpt lat="44.37255" lon="4.15286">
        <ele>242.073</ele>
        <time>2014-05-04T09:03:28.863Z</time>
      </trkpt>
      <trkpt lat="44.3725" lon="4.15298">
        <ele>238.27</ele>
        <time>2014-05-04T09:03:40.157Z</time>
      </trkpt>
      <trkpt lat="44.37246" lon="4.1531">
        <ele>235.746</ele>
        <time>2014-05-04T09:03:50.782Z</time>
      </trkpt>
      <trkpt lat="44.37239" lon="4.15318">
        <ele>233.982</ele>
        <time>2014-05-04T09:04:02.649Z</time>
      </trkpt>
      <trkpt lat="44.37231" lon="4.15326">
        <ele>231.284</ele>
        <time>2014-05-04T09:04:15.519Z</time>
      </trkpt>
      <trkpt lat="44.37225" lon="4.15337">
        <ele>227.688</ele>
        <time>2014-05-04T09:04:25.652Z</time>
      </trkpt>
      <trkpt lat="44.3722" lon="4.15348">
        <ele>225.896</ele>
        <time>2014-05-04T09:04:34.206Z</time>
      </trkpt>
      <trkpt lat="44.37213" lon="4.15358">
        <ele>230.365</ele>
        <time>2014-05-04T09:04:42.846Z</time>
      </trkpt>
      <trkpt lat="44.37213" lon="4.15358">
        <ele>232.896</ele>
        <time>2014-05-04T09:04:50.845Z</time>
      </trkpt>
      <trkpt lat="44.37213" lon="4.15358">
        <ele>233.369</ele>
        <time>2014-05-04T09:05:23.831Z</time>
      </trkpt>
      <trkpt lat="44.37208" lon="4.15368">
        <ele>248.899</ele>
        <time>2014-05-04T09:05:32.843Z</time>
      </trkpt>
      <trkpt lat="44.37208" lon="4.15368">
        <ele>248.784</ele>
        <time>2014-05-04T09:05:36.838Z</time>
      </trkpt>
      <trkpt lat="44.37208" lon="4.15368">
        <ele>248.72</ele>
        <time>2014-05-04T09:05:36.938Z</time>
      </trkpt>
      <trkpt lat="44.372" lon="4.15377">
        <ele>248.564</ele>
        <time>2014-05-04T09:06:43.544Z</time>
      </trkpt>
      <trkpt lat="44.37192" lon="4.15383">
        <ele>247.71</ele>
        <time>2014-05-04T09:06:56.655Z</time>
      </trkpt>
      <trkpt lat="44.37185" lon="4.15391">
        <ele>245.529</ele>
        <time>2014-05-04T09:07:08.033Z</time>
      </trkpt>
      <trkpt lat="44.37178" lon="4.154">
        <ele>243.258</ele>
        <time>2014-05-04T09:07:23.846Z</time>
      </trkpt>
      <trkpt lat="44.37178" lon="4.154">
        <ele>242.282</ele>
        <time>2014-05-04T09:07:23.846Z</time>
      </trkpt>
      <trkpt lat="44.37178" lon="4.154">
        <ele>242.344</ele>
        <time>2014-05-04T09:07:23.946Z</time>
      </trkpt>
      <trkpt lat="44.37169" lon="4.154">
        <ele>242.464</ele>
        <time>2014-05-04T09:08:30.428Z</time>
      </trkpt>
      <trkpt lat="44.3716" lon="4.154">
        <ele>242.189</ele>
        <time>2014-05-04T09:09:34.096Z</time>
      </trkpt>
      <trkpt lat="44.3715" lon="4.15401">
        <ele>242.092</ele>
        <time>2014-05-04T09:09:46.936Z</time>
      </trkpt>
      <trkpt lat="44.37141" lon="4.15403">
        <ele>244.148</ele>
        <time>2014-05-04T09:09:56.609Z</time>
      </trkpt>
      <trkpt lat="44.37131" lon="4.15404">
        <ele>249.512</ele>
        <time>2014-05-04T09:10:06.506Z</time>
      </trkpt>
      <trkpt lat="44.37121" lon="4.15402">
        <ele>255.021</ele>
        <time>2014-05-04T09:10:15.972Z</time>
      </trkpt>
      <trkpt lat="44.37111" lon="4.154">
        <ele>257.414</ele>
        <time>2014-05-04T09:10:25.279Z</time>
      </trkpt>
      <trkpt lat="44.37102" lon="4.154">
        <ele>257.316</ele>
        <time>2014-05-04T09:10:35.018Z</time>
      </trkpt>
      <trkpt lat="44.37092" lon="4.15401">
        <ele>256.449</ele>
        <time>2014-05-04T09:10:43.829Z</time>
      </trkpt>
      <trkpt lat="44.37083" lon="4.15402">
        <ele>255.801</ele>
        <time>2014-05-04T09:10:52.548Z</time>
      </trkpt>
      <trkpt lat="44.37074" lon="4.15402">
        <ele>255.46</ele>
        <time>2014-05-04T09:11:02.401Z</time>
      </trkpt>
      <trkpt lat="44.37064" lon="4.154">
        <ele>255.342</ele>
        <time>2014-05-04T09:11:11.836Z</time>
      </trkpt>
      <trkpt lat="44.37054" lon="4.15403">
        <ele>255.983</ele>
        <time>2014-05-04T09:11:20.694Z</time>
      </trkpt>
      <trkpt lat="44.37045" lon="4.15407">
        <ele>257.695</ele>
        <time>2014-05-04T09:11:29.841Z</time>
      </trkpt>
      <trkpt lat="44.37035" lon="4.15406">
        <ele>259.425</ele>
        <time>2014-05-04T09:11:38.491Z</time>
      </trkpt>
      <trkpt lat="44.37025" lon="4.15405">
        <ele>259.774</ele>
        <time>2014-05-04T09:11:48.664Z</time>
      </trkpt>
      <trkpt lat="44.37016" lon="4.15404">
        <ele>258.194</ele>
        <time>2014-05-04T09:11:58.033Z</time>
      </trkpt>
      <trkpt lat="44.37007" lon="4.15404">
        <ele>255.494</ele>
        <time>2014-05-04T09:12:07.001Z</time>
      </trkpt>
      <trkpt lat="44.36997" lon="4.15403">
        <ele>253.444</ele>
        <time>2014-05-04T09:12:16.774Z</time>
      </trkpt>
      <trkpt lat="44.36988" lon="4.15402">
        <ele>253.251</ele>
        <time>2014-05-04T09:12:25.793Z</time>
      </trkpt>
      <trkpt lat="44.36978" lon="4.15399">
        <ele>254.459</ele>
        <time>2014-05-04T09:12:34.291Z</time>
      </trkpt>
      <trkpt lat="44.3697" lon="4.15395">
        <ele>255.772</ele>
        <time>2014-05-04T09:12:42.641Z</time>
      </trkpt>
      <trkpt lat="44.3696" lon="4.15391">
        <ele>256.303</ele>
        <time>2014-05-04T09:12:51.133Z</time>
      </trkpt>
      <trkpt lat="44.36951" lon="4.15391">
        <ele>255.671</ele>
        <time>2014-05-04T09:13:00.169Z</time>
      </trkpt>
      <trkpt lat="44.36942" lon="4.15393">
        <ele>254.102</ele>
        <time>2014-05-04T09:13:09.849Z</time>
      </trkpt>
      <trkpt lat="44.36932" lon="4.15394">
        <ele>253.403</ele>
        <time>2014-05-04T09:13:18.987Z</time>
      </trkpt>
      <trkpt lat="44.36923" lon="4.15394">
        <ele>254.85</ele>
        <time>2014-05-04T09:13:28.210Z</time>
      </trkpt>
      <trkpt lat="44.36915" lon="4.15388">
        <ele>257.137</ele>
        <time>2014-05-04T09:13:36.847Z</time>
      </trkpt>
      <trkpt lat="44.36915" lon="4.15388">
        <ele>258.332</ele>
        <time>2014-05-04T09:13:50.852Z</time>
      </trkpt>
      <trkpt lat="44.36915" lon="4.15388">
        <ele>258.123</ele>
        <time>2014-05-04T09:13:50.952Z</time>
      </trkpt>
      <trkpt lat="44.36904" lon="4.15382">
        <ele>257.476</ele>
        <time>2014-05-04T09:14:27.235Z</time>
      </trkpt>
      <trkpt lat="44.36895" lon="4.1538">
        <ele>256.655</ele>
        <time>2014-05-04T09:14:34.648Z</time>
      </trkpt>
      <trkpt lat="44.36888" lon="4.1537">
        <ele>253.69</ele>
        <time>2014-05-04T09:14:41.778Z</time>
      </trkpt>
      <trkpt lat="44.36881" lon="4.15361">
        <ele>249.67</ele>
        <time>2014-05-04T09:14:49.177Z</time>
      </trkpt>
      <trkpt lat="44.36874" lon="4.15352">
        <ele>246.587</ele>
        <time>2014-05-04T09:14:57.195Z</time>
      </trkpt>
      <trkpt lat="44.36869" lon="4.15342">
        <ele>244.861</ele>
        <time>2014-05-04T09:15:05.378Z</time>
      </trkpt>
      <trkpt lat="44.36862" lon="4.15331">
        <ele>244.523</ele>
        <time>2014-05-04T09:15:14.859Z</time>
      </trkpt>
      <trkpt lat="44.36855" lon="4.15322">
        <ele>245.261</ele>
        <time>2014-05-04T09:15:23.714Z</time>
      </trkpt>
      <trkpt lat="44.36849" lon="4.15312">
        <ele>245.991</ele>
        <time>2014-05-04T09:15:33.748Z</time>
      </trkpt>
      <trkpt lat="44.36844" lon="4.153">
        <ele>245.819</ele>
        <time>2014-05-04T09:15:43.717Z</time>
      </trkpt>
      <trkpt lat="44.36839" lon="4.15288">
        <ele>244.738</ele>
        <time>2014-05-04T09:15:53.096Z</time>
      </trkpt>
      <trkpt lat="44.36833" lon="4.15279">
        <ele>243.241</ele>
        <time>2014-05-04T09:16:00.384Z</time>
      </trkpt>
      <trkpt lat="44.36824" lon="4.15274">
        <ele>242.363</ele>
        <time>2014-05-04T09:16:07.327Z</time>
      </trkpt>
      <trkpt lat="44.36814" lon="4.15273">
        <ele>243.462</ele>
        <time>2014-05-04T09:16:14.843Z</time>
      </trkpt>
      <trkpt lat="44.36814" lon="4.15273">
        <ele>246.535</ele>
        <time>2014-05-04T09:16:27.850Z</time>
      </trkpt>
      <trkpt lat="44.36814" lon="4.15273">
        <ele>248.923</ele>
        <time>2014-05-04T09:17:59.830Z</time>
      </trkpt>
      <trkpt lat="44.368" lon="4.1527">
        <ele>248.762</ele>
        <time>2014-05-04T09:19:06.450Z</time>
      </trkpt>
      <trkpt lat="44.36791" lon="4.15271">
        <ele>248.185</ele>
        <time>2014-05-04T09:19:17.777Z</time>
      </trkpt>
      <trkpt lat="44.36781" lon="4.15274">
        <ele>249.688</ele>
        <time>2014-05-04T09:19:30.186Z</time>
      </trkpt>
      <trkpt lat="44.36774" lon="4.15282">
        <ele>252.529</ele>
        <time>2014-05-04T09:19:41.757Z</time>
      </trkpt>
      <trkpt lat="44.36772" lon="4.15295">
        <ele>254.814</ele>
        <time>2014-05-04T09:19:54.057Z</time>
      </trkpt>
      <trkpt lat="44.36771" lon="4.15308">
        <ele>257.089</ele>
        <time>2014-05-04T09:20:07.002Z</time>
      </trkpt>
      <trkpt lat="44.36769" lon="4.15321">
        <ele>260.255</ele>
        <time>2014-05-04T09:20:19.984Z</time>
      </trkpt>
      <trkpt lat="44.36768" lon="4.15333">
        <ele>262.66</ele>
        <time>2014-05-04T09:20:32.506Z</time>
      </trkpt>
      <trkpt lat="44.36788" lon="4.15392">
        <ele>261.98</ele>
        <time>2014-05-04T09:21:33.569Z</time>
      </trkpt>
      <trkpt lat="44.36746" lon="4.15362">
        <ele>261.424</ele>
        <time>2014-05-04T09:22:34.718Z</time>
      </trkpt>
      <trkpt lat="44.3674" lon="4.15352">
        <ele>262.661</ele>
        <time>2014-05-04T09:22:46.906Z</time>
      </trkpt>
      <trkpt lat="44.36733" lon="4.15343">
        <ele>266.52</ele>
        <time>2014-05-04T09:22:59.234Z</time>
      </trkpt>
      <trkpt lat="44.3673" lon="4.15331">
        <ele>271.368</ele>
        <time>2014-05-04T09:23:11.434Z</time>
      </trkpt>
      <trkpt lat="44.36726" lon="4.15319">
        <ele>275.547</ele>
        <time>2014-05-04T09:23:24.068Z</time>
      </trkpt>
      <trkpt lat="44.36721" lon="4.15308">
        <ele>279.197</ele>
        <time>2014-05-04T09:23:36.255Z</time>
      </trkpt>
      <trkpt lat="44.36715" lon="4.15297">
        <ele>282.009</ele>
        <time>2014-05-04T09:23:49.054Z</time>
      </trkpt>
      <trkpt lat="44.36708" lon="4.15289">
        <ele>282.786</ele>
        <time>2014-05-04T09:24:00.948Z</time>
      </trkpt>
      <trkpt lat="44.36702" lon="4.15279">
        <ele>281.604</ele>
        <time>2014-05-04T09:24:12.912Z</time>
      </trkpt>
      <trkpt lat="44.36699" lon="4.15266">
        <ele>280.013</ele>
        <time>2014-05-04T09:24:25.476Z</time>
      </trkpt>
      <trkpt lat="44.36696" lon="4.15254">
        <ele>279.227</ele>
        <time>2014-05-04T09:24:37.828Z</time>
      </trkpt>
      <trkpt lat="44.36693" lon="4.15241">
        <ele>279.067</ele>
        <time>2014-05-04T09:24:49.592Z</time>
      </trkpt>
      <trkpt lat="44.36691" lon="4.15228">
        <ele>279.053</ele>
        <time>2014-05-04T09:25:00.704Z</time>
      </trkpt>
      <trkpt lat="44.3669" lon="4.15216">
        <ele>279.157</ele>
        <time>2014-05-04T09:25:13.474Z</time>
      </trkpt>
      <trkpt lat="44.36693" lon="4.15202">
        <ele>279.667</ele>
        <time>2014-05-04T09:25:26.133Z</time>
      </trkpt>
      <trkpt lat="44.36696" lon="4.15188">
        <ele>280.311</ele>
        <time>2014-05-04T09:25:37.659Z</time>
      </trkpt>
      <trkpt lat="44.36697" lon="4.15175">
        <ele>280.3</ele>
        <time>2014-05-04T09:25:52.280Z</time>
      </trkpt>
      <trkpt lat="44.367" lon="4.15163">
        <ele>279.407</ele>
        <time>2014-05-04T09:26:08.892Z</time>
      </trkpt>
      <trkpt lat="44.36701" lon="4.1515">
        <ele>278.413</ele>
        <time>2014-05-04T09:26:23.566Z</time>
      </trkpt>
      <trkpt lat="44.367" lon="4.15136">
        <ele>277.968</ele>
        <time>2014-05-04T09:26:35.858Z</time>
      </trkpt>
      <trkpt lat="44.36699" lon="4.15123">
        <ele>277.918</ele>
        <time>2014-05-04T09:26:48.469Z</time>
      </trkpt>
      <trkpt lat="44.36701" lon="4.15109">
        <ele>277.922</ele>
        <time>2014-05-04T09:27:00.437Z</time>
      </trkpt>
      <trkpt lat="44.36703" lon="4.15096">
        <ele>277.936</ele>
        <time>2014-05-04T09:27:12.779Z</time>
      </trkpt>
      <trkpt lat="44.36702" lon="4.15083">
        <ele>277.975</ele>
        <time>2014-05-04T09:27:25.958Z</time>
      </trkpt>
      <trkpt lat="44.36701" lon="4.1507">
        <ele>278.417</ele>
        <time>2014-05-04T09:27:37.188Z</time>
      </trkpt>
      <trkpt lat="44.36698" lon="4.15057">
        <ele>279.431</ele>
        <time>2014-05-04T09:27:50.027Z</time>
      </trkpt>
      <trkpt lat="44.36697" lon="4.15043">
        <ele>280.07</ele>
        <time>2014-05-04T09:28:03.171Z</time>
      </trkpt>
      <trkpt lat="44.36699" lon="4.1503">
        <ele>279.497</ele>
        <time>2014-05-04T09:28:13.923Z</time>
      </trkpt>
      <trkpt lat="44.36699" lon="4.15017">
        <ele>278.324</ele>
        <time>2014-05-04T09:28:24.620Z</time>
      </trkpt>
      <trkpt lat="44.36699" lon="4.15004">
        <ele>277.523</ele>
        <time>2014-05-04T09:28:37.016Z</time>
      </trkpt>
      <trkpt lat="44.36695" lon="4.1499">
        <ele>277.574</ele>
        <time>2014-05-04T09:28:51.044Z</time>
      </trkpt>
      <trkpt lat="44.36694" lon="4.14978">
        <ele>278.213</ele>
        <time>2014-05-04T09:29:02.806Z</time>
      </trkpt>
      <trkpt lat="44.36686" lon="4.14968">
        <ele>278.821</ele>
        <time>2014-05-04T09:29:16.579Z</time>
      </trkpt>
      <trkpt lat="44.36679" lon="4.14959">
        <ele>279.931</ele>
        <time>2014-05-04T09:29:32.109Z</time>
      </trkpt>
      <trkpt lat="44.36674" lon="4.14948">
        <ele>282.06</ele>
        <time>2014-05-04T09:29:49.266Z</time>
      </trkpt>
      <trkpt lat="44.36668" lon="4.14936">
        <ele>282.75</ele>
        <time>2014-05-04T09:30:13.190Z</time>
      </trkpt>
      <trkpt lat="44.36668" lon="4.14923">
        <ele>280.23</ele>
        <time>2014-05-04T09:30:45.871Z</time>
      </trkpt>
      <trkpt lat="44.36668" lon="4.14923">
        <ele>277.477</ele>
        <time>2014-05-04T09:30:47.859Z</time>
      </trkpt>
      <trkpt lat="44.36668" lon="4.14923">
        <ele>277.335</ele>
        <time>2014-05-04T09:30:47.959Z</time>
      </trkpt>
      <trkpt lat="44.36669" lon="4.1491">
        <ele>278.335</ele>
        <time>2014-05-04T09:31:01.738Z</time>
      </trkpt>
      <trkpt lat="44.36674" lon="4.14897">
        <ele>277.722</ele>
        <time>2014-05-04T09:31:14.287Z</time>
      </trkpt>
      <trkpt lat="44.36671" lon="4.14885">
        <ele>277.033</ele>
        <time>2014-05-04T09:31:27.846Z</time>
      </trkpt>
      <trkpt lat="44.36671" lon="4.14885">
        <ele>276.292</ele>
        <time>2014-05-04T09:31:30.857Z</time>
      </trkpt>
      <trkpt lat="44.36671" lon="4.14885">
        <ele>275.768</ele>
        <time>2014-05-04T09:31:30.957Z</time>
      </trkpt>
      <trkpt lat="44.36664" lon="4.14877">
        <ele>275.81</ele>
        <time>2014-05-04T09:31:45.044Z</time>
      </trkpt>
      <trkpt lat="44.36664" lon="4.14864">
        <ele>275.835</ele>
        <time>2014-05-04T09:31:54.625Z</time>
      </trkpt>
      <trkpt lat="44.3666" lon="4.14852">
        <ele>275.015</ele>
        <time>2014-05-04T09:32:04.110Z</time>
      </trkpt>
      <trkpt lat="44.36657" lon="4.14837">
        <ele>272.95</ele>
        <time>2014-05-04T09:32:15.200Z</time>
      </trkpt>
      <trkpt lat="44.36657" lon="4.14824">
        <ele>270.558</ele>
        <time>2014-05-04T09:32:23.850Z</time>
      </trkpt>
      <trkpt lat="44.36657" lon="4.14824">
        <ele>268.987</ele>
        <time>2014-05-04T09:32:52.858Z</time>
      </trkpt>
      <trkpt lat="44.36657" lon="4.14824">
        <ele>268.401</ele>
        <time>2014-05-04T09:34:07.580Z</time>
      </trkpt>
      <trkpt lat="44.36666" lon="4.14823">
        <ele>268.617</ele>
        <time>2014-05-04T09:35:07.380Z</time>
      </trkpt>
      <trkpt lat="44.36676" lon="4.14827">
        <ele>269.487</ele>
        <time>2014-05-04T09:35:34.665Z</time>
      </trkpt>
      <trkpt lat="44.36685" lon="4.14832">
        <ele>270.566</ele>
        <time>2014-05-04T09:35:50.657Z</time>
      </trkpt>
      <trkpt lat="44.36694" lon="4.1483">
        <ele>271.254</ele>
        <time>2014-05-04T09:36:04.830Z</time>
      </trkpt>
      <trkpt lat="44.36703" lon="4.14826">
        <ele>271.419</ele>
        <time>2014-05-04T09:36:18.195Z</time>
      </trkpt>
      <trkpt lat="44.36712" lon="4.14829">
        <ele>272.311</ele>
        <time>2014-05-04T09:36:27.855Z</time>
      </trkpt>
      <trkpt lat="44.36712" lon="4.14829">
        <ele>274.763</ele>
        <time>2014-05-04T09:36:59.865Z</time>
      </trkpt>
      <trkpt lat="44.36712" lon="4.14829">
        <ele>276.809</ele>
        <time>2014-05-04T09:36:59.965Z</time>
      </trkpt>
      <trkpt lat="44.36724" lon="4.14822">
        <ele>276.664</ele>
        <time>2014-05-04T09:37:30.073Z</time>
      </trkpt>
      <trkpt lat="44.36724" lon="4.14809">
        <ele>276.216</ele>
        <time>2014-05-04T09:37:43.340Z</time>
      </trkpt>
      <trkpt lat="44.36728" lon="4.14797">
        <ele>277.355</ele>
        <time>2014-05-04T09:38:00.923Z</time>
      </trkpt>
      <trkpt lat="44.36722" lon="4.14788">
        <ele>279.114</ele>
        <time>2014-05-04T09:38:18.216Z</time>
      </trkpt>
      <trkpt lat="44.36727" lon="4.14778">
        <ele>280.181</ele>
        <time>2014-05-04T09:38:35.291Z</time>
      </trkpt>
      <trkpt lat="44.36729" lon="4.14765">
        <ele>282.149</ele>
        <time>2014-05-04T09:38:54.232Z</time>
      </trkpt>
      <trkpt lat="44.36724" lon="4.14753">
        <ele>286.766</ele>
        <time>2014-05-04T09:39:11.842Z</time>
      </trkpt>
      <trkpt lat="44.36724" lon="4.14753">
        <ele>292.182</ele>
        <time>2014-05-04T09:39:24.855Z</time>
      </trkpt>
      <trkpt lat="44.36724" lon="4.14753">
        <ele>294.964</ele>
        <time>2014-05-04T09:39:24.955Z</time>
      </trkpt>
      <trkpt lat="44.36725" lon="4.14738">
        <ele>293.843</ele>
        <time>2014-05-04T09:39:40.128Z</time>
      </trkpt>
      <trkpt lat="44.36729" lon="4.14725">
        <ele>291.073</ele>
        <time>2014-05-04T09:39:47.850Z</time>
      </trkpt>
      <trkpt lat="44.36729" lon="4.14725">
        <ele>289.794</ele>
        <time>2014-05-04T09:39:51.858Z</time>
      </trkpt>
      <trkpt lat="44.36729" lon="4.14725">
        <ele>290.086</ele>
        <time>2014-05-04T09:39:51.958Z</time>
      </trkpt>
      <trkpt lat="44.36726" lon="4.14713">
        <ele>290.12</ele>
        <time>2014-05-04T09:40:28.068Z</time>
      </trkpt>
      <trkpt lat="44.36724" lon="4.147">
        <ele>290.944</ele>
        <time>2014-05-04T09:40:42.858Z</time>
      </trkpt>
      <trkpt lat="44.36724" lon="4.147">
        <ele>293.92</ele>
        <time>2014-05-04T09:40:51.857Z</time>
      </trkpt>
      <trkpt lat="44.36724" lon="4.147">
        <ele>296.493</ele>
        <time>2014-05-04T09:40:51.957Z</time>
      </trkpt>
      <trkpt lat="44.36719" lon="4.14689">
        <ele>294.828</ele>
        <time>2014-05-04T09:41:27.552Z</time>
      </trkpt>
      <trkpt lat="44.36713" lon="4.14679">
        <ele>296.067</ele>
        <time>2014-05-04T09:41:36.843Z</time>
      </trkpt>
      <trkpt lat="44.36713" lon="4.14679">
        <ele>301.756</ele>
        <time>2014-05-04T09:41:44.850Z</time>
      </trkpt>
      <trkpt lat="44.36713" lon="4.14679">
        <ele>306.764</ele>
        <time>2014-05-04T09:41:44.950Z</time>
      </trkpt>
      <trkpt lat="44.36704" lon="4.14669">
        <ele>306.589</ele>
        <time>2014-05-04T09:42:19.775Z</time>
      </trkpt>
      <trkpt lat="44.36699" lon="4.14659">
        <ele>304.634</ele>
        <time>2014-05-04T09:42:34.202Z</time>
      </trkpt>
      <trkpt lat="44.36702" lon="4.14646">
        <ele>305.967</ele>
        <time>2014-05-04T09:42:49.964Z</time>
      </trkpt>
      <trkpt lat="44.3671" lon="4.14637">
        <ele>309.9</ele>
        <time>2014-05-04T09:43:09.458Z</time>
      </trkpt>
      <trkpt lat="44.36716" lon="4.14627">
        <ele>312.967</ele>
        <time>2014-05-04T09:43:23.844Z</time>
      </trkpt>
      <trkpt lat="44.36716" lon="4.14627">
        <ele>314.118</ele>
        <time>2014-05-04T09:43:53.857Z</time>
      </trkpt>
      <trkpt lat="44.36716" lon="4.14627">
        <ele>314.147</ele>
        <time>2014-05-04T09:43:58.761Z</time>
      </trkpt>
      <trkpt lat="44.36707" lon="4.14629">
        <ele>313.669</ele>
        <time>2014-05-04T09:44:30.193Z</time>
      </trkpt>
      <trkpt lat="44.36715" lon="4.14621">
        <ele>314.997</ele>
        <time>2014-05-04T09:44:48.267Z</time>
      </trkpt>
      <trkpt lat="44.36724" lon="4.14619">
        <ele>318.465</ele>
        <time>2014-05-04T09:45:04.970Z</time>
      </trkpt>
      <trkpt lat="44.36734" lon="4.14615">
        <ele>321.759</ele>
        <time>2014-05-04T09:45:21.626Z</time>
      </trkpt>
      <trkpt lat="44.36741" lon="4.14606">
        <ele>322.784</ele>
        <time>2014-05-04T09:45:31.564Z</time>
      </trkpt>
      <trkpt lat="44.36746" lon="4.14595">
        <ele>322.047</ele>
        <time>2014-05-04T09:45:41.849Z</time>
      </trkpt>
      <trkpt lat="44.36746" lon="4.14595">
        <ele>320.959</ele>
        <time>2014-05-04T09:45:50.837Z</time>
      </trkpt>
      <trkpt lat="44.36746" lon="4.14595">
        <ele>320.53</ele>
        <time>2014-05-04T09:45:50.937Z</time>
      </trkpt>
      <trkpt lat="44.36748" lon="4.14583">
        <ele>320.74</ele>
        <time>2014-05-04T09:46:03.843Z</time>
      </trkpt>
      <trkpt lat="44.36748" lon="4.14583">
        <ele>321.01</ele>
        <time>2014-05-04T09:46:11.845Z</time>
      </trkpt>
      <trkpt lat="44.36748" lon="4.14583">
        <ele>320.805</ele>
        <time>2014-05-04T09:46:11.945Z</time>
      </trkpt>
      <trkpt lat="44.36748" lon="4.14583">
        <ele>320.602</ele>
        <time>2014-05-04T09:46:39.843Z</time>
      </trkpt>
      <trkpt lat="44.36748" lon="4.14583">
        <ele>320.559</ele>
        <time>2014-05-04T09:46:39.943Z</time>
      </trkpt>
      <trkpt lat="44.36738" lon="4.14595">
        <ele>320.45</ele>
        <time>2014-05-04T09:47:03.524Z</time>
      </trkpt>
      <trkpt lat="44.36734" lon="4.14583">
        <ele>320.929</ele>
        <time>2014-05-04T09:47:17.845Z</time>
      </trkpt>
      <trkpt lat="44.36734" lon="4.14583">
        <ele>322.039</ele>
        <time>2014-05-04T09:47:19.853Z</time>
      </trkpt>
      <trkpt lat="44.36734" lon="4.14583">
        <ele>322.357</ele>
        <time>2014-05-04T09:47:22.184Z</time>
      </trkpt>
      <trkpt lat="44.3674" lon="4.14574">
        <ele>321.667</ele>
        <time>2014-05-04T09:47:41.839Z</time>
      </trkpt>
      <trkpt lat="44.3674" lon="4.14574">
        <ele>321.594</ele>
        <time>2014-05-04T09:47:41.839Z</time>
      </trkpt>
      <trkpt lat="44.3674" lon="4.14574">
        <ele>321.561</ele>
        <time>2014-05-04T09:47:41.939Z</time>
      </trkpt>
      <trkpt lat="44.36744" lon="4.14562">
        <ele>321.31</ele>
        <time>2014-05-04T09:48:03.707Z</time>
      </trkpt>
      <trkpt lat="44.36748" lon="4.1455">
        <ele>323.475</ele>
        <time>2014-05-04T09:48:15.671Z</time>
      </trkpt>
      <trkpt lat="44.36749" lon="4.14538">
        <ele>329.316</ele>
        <time>2014-05-04T09:48:27.643Z</time>
      </trkpt>
      <trkpt lat="44.36751" lon="4.14523">
        <ele>335.067</ele>
        <time>2014-05-04T09:48:40.153Z</time>
      </trkpt>
      <trkpt lat="44.36752" lon="4.1451">
        <ele>337.217</ele>
        <time>2014-05-04T09:48:50.959Z</time>
      </trkpt>
      <trkpt lat="44.36746" lon="4.1452">
        <ele>337.805</ele>
        <time>2014-05-04T09:49:01.447Z</time>
      </trkpt>
      <trkpt lat="44.36744" lon="4.14533">
        <ele>339.276</ele>
        <time>2014-05-04T09:49:12.451Z</time>
      </trkpt>
      <trkpt lat="44.36741" lon="4.14545">
        <ele>341.1</ele>
        <time>2014-05-04T09:49:22.449Z</time>
      </trkpt>
      <trkpt lat="44.36732" lon="4.14545">
        <ele>342.322</ele>
        <time>2014-05-04T09:49:35.541Z</time>
      </trkpt>
      <trkpt lat="44.36732" lon="4.14531">
        <ele>343.588</ele>
        <time>2014-05-04T09:49:49.603Z</time>
      </trkpt>
      <trkpt lat="44.36733" lon="4.14519">
        <ele>345.242</ele>
        <time>2014-05-04T09:50:03.013Z</time>
      </trkpt>
      <trkpt lat="44.36731" lon="4.14507">
        <ele>347.487</ele>
        <time>2014-05-04T09:50:15.447Z</time>
      </trkpt>
      <trkpt lat="44.36732" lon="4.14493">
        <ele>350.651</ele>
        <time>2014-05-04T09:50:25.429Z</time>
      </trkpt>
      <trkpt lat="44.36734" lon="4.1448">
        <ele>354.394</ele>
        <time>2014-05-04T09:50:35.429Z</time>
      </trkpt>
      <trkpt lat="44.36737" lon="4.14468">
        <ele>357.665</ele>
        <time>2014-05-04T09:50:49.470Z</time>
      </trkpt>
      <trkpt lat="44.36739" lon="4.14455">
        <ele>358.91</ele>
        <time>2014-05-04T09:51:08.640Z</time>
      </trkpt>
      <trkpt lat="44.36736" lon="4.14442">
        <ele>357.636</ele>
        <time>2014-05-04T09:51:23.849Z</time>
      </trkpt>
      <trkpt lat="44.36738" lon="4.14429">
        <ele>356.24</ele>
        <time>2014-05-04T09:51:36.984Z</time>
      </trkpt>
      <trkpt lat="44.36735" lon="4.14417">
        <ele>357.245</ele>
        <time>2014-05-04T09:51:50.859Z</time>
      </trkpt>
      <trkpt lat="44.36735" lon="4.14417">
        <ele>360.055</ele>
        <time>2014-05-04T09:51:54.851Z</time>
      </trkpt>
      <trkpt lat="44.36735" lon="4.14417">
        <ele>361.979</ele>
        <time>2014-05-04T09:51:54.951Z</time>
      </trkpt>
      <trkpt lat="44.3673" lon="4.14405">
        <ele>360.562</ele>
        <time>2014-05-04T09:52:19.692Z</time>
      </trkpt>
      <trkpt lat="44.36724" lon="4.14394">
        <ele>360.018</ele>
        <time>2014-05-04T09:52:31.019Z</time>
      </trkpt>
      <trkpt lat="44.3672" lon="4.14383">
        <ele>360.478</ele>
        <time>2014-05-04T09:52:40.867Z</time>
      </trkpt>
      <trkpt lat="44.3672" lon="4.1437">
        <ele>361.105</ele>
        <time>2014-05-04T09:52:50.659Z</time>
      </trkpt>
      <trkpt lat="44.36718" lon="4.14357">
        <ele>361.151</ele>
        <time>2014-05-04T09:53:01.707Z</time>
      </trkpt>
      <trkpt lat="44.36714" lon="4.14345">
        <ele>361.901</ele>
        <time>2014-05-04T09:53:14.635Z</time>
      </trkpt>
      <trkpt lat="44.36711" lon="4.14331">
        <ele>365.457</ele>
        <time>2014-05-04T09:53:27.856Z</time>
      </trkpt>
      <trkpt lat="44.36711" lon="4.14331">
        <ele>370.926</ele>
        <time>2014-05-04T09:53:33.854Z</time>
      </trkpt>
      <trkpt lat="44.36711" lon="4.14331">
        <ele>374.347</ele>
        <time>2014-05-04T09:53:33.954Z</time>
      </trkpt>
      <trkpt lat="44.36706" lon="4.1432">
        <ele>372.038</ele>
        <time>2014-05-04T09:53:52.462Z</time>
      </trkpt>
      <trkpt lat="44.36701" lon="4.14308">
        <ele>371.215</ele>
        <time>2014-05-04T09:54:05.034Z</time>
      </trkpt>
      <trkpt lat="44.36699" lon="4.14296">
        <ele>373.591</ele>
        <time>2014-05-04T09:54:15.736Z</time>
      </trkpt>
      <trkpt lat="44.36696" lon="4.14283">
        <ele>378.769</ele>
        <time>2014-05-04T09:54:28.159Z</time>
      </trkpt>
      <trkpt lat="44.36691" lon="4.14271">
        <ele>383.484</ele>
        <time>2014-05-04T09:54:41.679Z</time>
      </trkpt>
      <trkpt lat="44.36691" lon="4.14258">
        <ele>385.728</ele>
        <time>2014-05-04T09:54:53.585Z</time>
      </trkpt>
      <trkpt lat="44.36694" lon="4.14246">
        <ele>385.291</ele>
        <time>2014-05-04T09:55:04.529Z</time>
      </trkpt>
      <trkpt lat="44.36697" lon="4.14235">
        <ele>382.655</ele>
        <time>2014-05-04T09:55:16.857Z</time>
      </trkpt>
      <trkpt lat="44.36697" lon="4.14235">
        <ele>379.839</ele>
        <time>2014-05-04T09:55:21.850Z</time>
      </trkpt>
      <trkpt lat="44.36697" lon="4.14235">
        <ele>378.525</ele>
        <time>2014-05-04T09:55:21.950Z</time>
      </trkpt>
      <trkpt lat="44.36697" lon="4.14219">
        <ele>378.989</ele>
        <time>2014-05-04T09:55:41.567Z</time>
      </trkpt>
      <trkpt lat="44.36697" lon="4.14206">
        <ele>380.12</ele>
        <time>2014-05-04T09:55:52.897Z</time>
      </trkpt>
      <trkpt lat="44.36701" lon="4.14194">
        <ele>382.327</ele>
        <time>2014-05-04T09:56:04.733Z</time>
      </trkpt>
      <trkpt lat="44.36709" lon="4.14187">
        <ele>384.532</ele>
        <time>2014-05-04T09:56:16.463Z</time>
      </trkpt>
      <trkpt lat="44.36713" lon="4.14175">
        <ele>385.507</ele>
        <time>2014-05-04T09:56:28.115Z</time>
      </trkpt>
      <trkpt lat="44.36714" lon="4.14162">
        <ele>384.775</ele>
        <time>2014-05-04T09:56:39.311Z</time>
      </trkpt>
      <trkpt lat="44.36718" lon="4.1415">
        <ele>382.652</ele>
        <time>2014-05-04T09:56:50.859Z</time>
      </trkpt>
      <trkpt lat="44.36718" lon="4.1415">
        <ele>380.93</ele>
        <time>2014-05-04T09:57:03.871Z</time>
      </trkpt>
      <trkpt lat="44.36718" lon="4.1415">
        <ele>380.813</ele>
        <time>2014-05-04T09:57:03.971Z</time>
      </trkpt>
      <trkpt lat="44.36718" lon="4.1415">
        <ele>381.236</ele>
        <time>2014-05-04T09:57:42.864Z</time>
      </trkpt>
      <trkpt lat="44.36718" lon="4.1415">
        <ele>380.867</ele>
        <time>2014-05-04T09:58:21.849Z</time>
      </trkpt>
      <trkpt lat="44.36718" lon="4.1415">
        <ele>380.683</ele>
        <time>2014-05-04T10:04:57.858Z</time>
      </trkpt>
      <trkpt lat="44.36718" lon="4.1415">
        <ele>380.64</ele>
        <time>2014-05-04T10:06:19.187Z</time>
      </trkpt>
      <trkpt lat="44.36713" lon="4.14133">
        <ele>380.567</ele>
        <time>2014-05-04T10:07:09.857Z</time>
      </trkpt>
      <trkpt lat="44.36713" lon="4.14133">
        <ele>380.447</ele>
        <time>2014-05-04T10:07:25.864Z</time>
      </trkpt>
      <trkpt lat="44.36713" lon="4.14133">
        <ele>380.314</ele>
        <time>2014-05-04T10:07:25.964Z</time>
      </trkpt>
      <trkpt lat="44.36713" lon="4.14118">
        <ele>380.194</ele>
        <time>2014-05-04T10:07:46.896Z</time>
      </trkpt>
      <trkpt lat="44.36716" lon="4.14105">
        <ele>381.39</ele>
        <time>2014-05-04T10:07:56.467Z</time>
      </trkpt>
      <trkpt lat="44.36719" lon="4.14093">
        <ele>384.793</ele>
        <time>2014-05-04T10:08:04.758Z</time>
      </trkpt>
      <trkpt lat="44.36722" lon="4.14081">
        <ele>388.382</ele>
        <time>2014-05-04T10:08:12.004Z</time>
      </trkpt>
      <trkpt lat="44.36724" lon="4.14067">
        <ele>389.948</ele>
        <time>2014-05-04T10:08:18.858Z</time>
      </trkpt>
      <trkpt lat="44.36724" lon="4.14067">
        <ele>389.873</ele>
        <time>2014-05-04T10:08:31.862Z</time>
      </trkpt>
      <trkpt lat="44.36724" lon="4.14067">
        <ele>389.391</ele>
        <time>2014-05-04T10:08:31.962Z</time>
      </trkpt>
      <trkpt lat="44.36725" lon="4.14049">
        <ele>389.204</ele>
        <time>2014-05-04T10:08:54.730Z</time>
      </trkpt>
      <trkpt lat="44.36724" lon="4.14036">
        <ele>389.287</ele>
        <time>2014-05-04T10:09:03.075Z</time>
      </trkpt>
      <trkpt lat="44.36726" lon="4.14023">
        <ele>389.584</ele>
        <time>2014-05-04T10:09:10.366Z</time>
      </trkpt>
      <trkpt lat="44.36724" lon="4.14009">
        <ele>390.124</ele>
        <time>2014-05-04T10:09:18.298Z</time>
      </trkpt>
      <trkpt lat="44.36724" lon="4.13996">
        <ele>390.659</ele>
        <time>2014-05-04T10:09:25.847Z</time>
      </trkpt>
      <trkpt lat="44.36724" lon="4.13996">
        <ele>390.953</ele>
        <time>2014-05-04T10:09:32.855Z</time>
      </trkpt>
      <trkpt lat="44.36724" lon="4.13996">
        <ele>390.981</ele>
        <time>2014-05-04T10:09:32.955Z</time>
      </trkpt>
      <trkpt lat="44.36725" lon="4.13983">
        <ele>390.59</ele>
        <time>2014-05-04T10:09:59.484Z</time>
      </trkpt>
      <trkpt lat="44.36729" lon="4.13971">
        <ele>390.624</ele>
        <time>2014-05-04T10:10:08.467Z</time>
      </trkpt>
      <trkpt lat="44.36731" lon="4.13957">
        <ele>391.073</ele>
        <time>2014-05-04T10:10:16.552Z</time>
      </trkpt>
      <trkpt lat="44.36733" lon="4.13944">
        <ele>391.734</ele>
        <time>2014-05-04T10:10:24.729Z</time>
      </trkpt>
      <trkpt lat="44.36734" lon="4.13931">
        <ele>391.539</ele>
        <time>2014-05-04T10:10:33.393Z</time>
      </trkpt>
      <trkpt lat="44.36736" lon="4.13918">
        <ele>389.968</ele>
        <time>2014-05-04T10:10:42.816Z</time>
      </trkpt>
      <trkpt lat="44.36741" lon="4.13906">
        <ele>389.383</ele>
        <time>2014-05-04T10:10:51.606Z</time>
      </trkpt>
      <trkpt lat="44.36744" lon="4.13893">
        <ele>391.625</ele>
        <time>2014-05-04T10:11:00.761Z</time>
      </trkpt>
      <trkpt lat="44.36749" lon="4.13881">
        <ele>394.505</ele>
        <time>2014-05-04T10:11:10.693Z</time>
      </trkpt>
      <trkpt lat="44.36753" lon="4.13869">
        <ele>395.572</ele>
        <time>2014-05-04T10:11:19.953Z</time>
      </trkpt>
      <trkpt lat="44.3676" lon="4.1386">
        <ele>395.139</ele>
        <time>2014-05-04T10:11:30.318Z</time>
      </trkpt>
      <trkpt lat="44.36767" lon="4.13852">
        <ele>395.175</ele>
        <time>2014-05-04T10:11:40.143Z</time>
      </trkpt>
      <trkpt lat="44.36773" lon="4.13842">
        <ele>396.847</ele>
        <time>2014-05-04T10:11:50.309Z</time>
      </trkpt>
      <trkpt lat="44.36773" lon="4.13842">
        <ele>396.847</ele>
        <time>2014-05-04T10:11:50.309Z</time>
      </trkpt>
      <trkpt lat="44.36788" lon="4.13833">
        <ele>401.62</ele>
        <time>2014-05-04T10:12:23.843Z</time>
      </trkpt>
      <trkpt lat="44.36795" lon="4.13824">
        <ele>401.435</ele>
        <time>2014-05-04T10:12:42.163Z</time>
      </trkpt>
      <trkpt lat="44.36803" lon="4.13817">
        <ele>400.908</ele>
        <time>2014-05-04T10:12:50.036Z</time>
      </trkpt>
      <trkpt lat="44.3681" lon="4.13808">
        <ele>399.009</ele>
        <time>2014-05-04T10:13:00.092Z</time>
      </trkpt>
      <trkpt lat="44.36806" lon="4.13796">
        <ele>395.963</ele>
        <time>2014-05-04T10:13:10.860Z</time>
      </trkpt>
      <trkpt lat="44.36806" lon="4.13796">
        <ele>393.856</ele>
        <time>2014-05-04T10:13:24.855Z</time>
      </trkpt>
      <trkpt lat="44.36806" lon="4.13796">
        <ele>393.786</ele>
        <time>2014-05-04T10:13:24.955Z</time>
      </trkpt>
      <trkpt lat="44.36806" lon="4.13796">
        <ele>394.329</ele>
        <time>2014-05-04T10:14:50.858Z</time>
      </trkpt>
      <trkpt lat="44.36806" lon="4.13796">
        <ele>393.882</ele>
        <time>2014-05-04T10:15:04.849Z</time>
      </trkpt>
      <trkpt lat="44.36806" lon="4.13796">
        <ele>393.686</ele>
        <time>2014-05-04T10:16:52.851Z</time>
      </trkpt>
      <trkpt lat="44.36806" lon="4.13796">
        <ele>393.669</ele>
        <time>2014-05-04T10:16:52.951Z</time>
      </trkpt>
      <trkpt lat="44.36802" lon="4.13777">
        <ele>393.598</ele>
        <time>2014-05-04T10:17:13.938Z</time>
      </trkpt>
      <trkpt lat="44.36797" lon="4.13767">
        <ele>394.541</ele>
        <time>2014-05-04T10:17:23.940Z</time>
      </trkpt>
      <trkpt lat="44.36792" lon="4.13756">
        <ele>397.221</ele>
        <time>2014-05-04T10:17:33.844Z</time>
      </trkpt>
      <trkpt lat="44.36792" lon="4.13756">
        <ele>399.719</ele>
        <time>2014-05-04T10:17:57.835Z</time>
      </trkpt>
      <trkpt lat="44.36792" lon="4.13756">
        <ele>400.273</ele>
        <time>2014-05-04T10:17:57.935Z</time>
      </trkpt>
      <trkpt lat="44.36783" lon="4.13759">
        <ele>399.269</ele>
        <time>2014-05-04T10:18:19.996Z</time>
      </trkpt>
      <trkpt lat="44.36773" lon="4.13759">
        <ele>399.527</ele>
        <time>2014-05-04T10:18:30.579Z</time>
      </trkpt>
      <trkpt lat="44.36764" lon="4.13759">
        <ele>400.971</ele>
        <time>2014-05-04T10:18:40.174Z</time>
      </trkpt>
      <trkpt lat="44.36754" lon="4.13759">
        <ele>403.253</ele>
        <time>2014-05-04T10:18:48.884Z</time>
      </trkpt>
      <trkpt lat="44.36745" lon="4.1376">
        <ele>405.461</ele>
        <time>2014-05-04T10:18:56.460Z</time>
      </trkpt>
      <trkpt lat="44.36736" lon="4.13761">
        <ele>406.956</ele>
        <time>2014-05-04T10:19:04.846Z</time>
      </trkpt>
      <trkpt lat="44.36736" lon="4.13761">
        <ele>407.513</ele>
        <time>2014-05-04T10:19:19.861Z</time>
      </trkpt>
      <trkpt lat="44.36736" lon="4.13761">
        <ele>407.42</ele>
        <time>2014-05-04T10:19:19.961Z</time>
      </trkpt>
      <trkpt lat="44.36723" lon="4.13759">
        <ele>407.115</ele>
        <time>2014-05-04T10:19:35.513Z</time>
      </trkpt>
      <trkpt lat="44.36713" lon="4.13759">
        <ele>406.847</ele>
        <time>2014-05-04T10:19:42.736Z</time>
      </trkpt>
      <trkpt lat="44.36706" lon="4.13752">
        <ele>407.015</ele>
        <time>2014-05-04T10:19:48.844Z</time>
      </trkpt>
      <trkpt lat="44.36706" lon="4.13752">
        <ele>407.693</ele>
        <time>2014-05-04T10:19:58.858Z</time>
      </trkpt>
      <trkpt lat="44.36706" lon="4.13752">
        <ele>408.181</ele>
        <time>2014-05-04T10:19:58.958Z</time>
      </trkpt>
      <trkpt lat="44.36695" lon="4.13754">
        <ele>407.536</ele>
        <time>2014-05-04T10:20:15.082Z</time>
      </trkpt>
      <trkpt lat="44.36685" lon="4.13752">
        <ele>408.022</ele>
        <time>2014-05-04T10:20:23.390Z</time>
      </trkpt>
      <trkpt lat="44.36677" lon="4.13748">
        <ele>409.973</ele>
        <time>2014-05-04T10:20:33.677Z</time>
      </trkpt>
      <trkpt lat="44.36668" lon="4.13743">
        <ele>411.996</ele>
        <time>2014-05-04T10:20:45.852Z</time>
      </trkpt>
      <trkpt lat="44.36668" lon="4.13743">
        <ele>412.693</ele>
        <time>2014-05-04T10:20:46.852Z</time>
      </trkpt>
      <trkpt lat="44.36668" lon="4.13743">
        <ele>412.463</ele>
        <time>2014-05-04T10:20:46.952Z</time>
      </trkpt>
      <trkpt lat="44.36662" lon="4.13733">
        <ele>412.113</ele>
        <time>2014-05-04T10:21:02.460Z</time>
      </trkpt>
      <trkpt lat="44.36654" lon="4.13724">
        <ele>412.153</ele>
        <time>2014-05-04T10:21:12.069Z</time>
      </trkpt>
      <trkpt lat="44.36646" lon="4.13717">
        <ele>412.237</ele>
        <time>2014-05-04T10:21:20.153Z</time>
      </trkpt>
      <trkpt lat="44.36638" lon="4.1371">
        <ele>412.589</ele>
        <time>2014-05-04T10:21:28.577Z</time>
      </trkpt>
      <trkpt lat="44.36632" lon="4.13701">
        <ele>413.296</ele>
        <time>2014-05-04T10:21:37.863Z</time>
      </trkpt>
      <trkpt lat="44.36632" lon="4.13701">
        <ele>413.773</ele>
        <time>2014-05-04T10:21:53.864Z</time>
      </trkpt>
      <trkpt lat="44.36632" lon="4.13701">
        <ele>413.587</ele>
        <time>2014-05-04T10:21:53.964Z</time>
      </trkpt>
      <trkpt lat="44.3662" lon="4.13689">
        <ele>413.125</ele>
        <time>2014-05-04T10:22:31.702Z</time>
      </trkpt>
      <trkpt lat="44.36611" lon="4.13684">
        <ele>412.866</ele>
        <time>2014-05-04T10:22:40.911Z</time>
      </trkpt>
      <trkpt lat="44.36604" lon="4.13677">
        <ele>412.867</ele>
        <time>2014-05-04T10:22:51.528Z</time>
      </trkpt>
      <trkpt lat="44.36595" lon="4.1367">
        <ele>413.122</ele>
        <time>2014-05-04T10:23:02.420Z</time>
      </trkpt>
      <trkpt lat="44.36588" lon="4.13662">
        <ele>413.582</ele>
        <time>2014-05-04T10:23:12.061Z</time>
      </trkpt>
      <trkpt lat="44.3658" lon="4.13652">
        <ele>413.911</ele>
        <time>2014-05-04T10:23:21.149Z</time>
      </trkpt>
      <trkpt lat="44.36573" lon="4.13645">
        <ele>413.726</ele>
        <time>2014-05-04T10:23:29.408Z</time>
      </trkpt>
      <trkpt lat="44.36563" lon="4.13641">
        <ele>412.872</ele>
        <time>2014-05-04T10:23:37.907Z</time>
      </trkpt>
      <trkpt lat="44.36554" lon="4.13638">
        <ele>411.632</ele>
        <time>2014-05-04T10:23:46.174Z</time>
      </trkpt>
      <trkpt lat="44.36545" lon="4.13635">
        <ele>410.844</ele>
        <time>2014-05-04T10:23:54.906Z</time>
      </trkpt>
      <trkpt lat="44.36535" lon="4.13631">
        <ele>410.933</ele>
        <time>2014-05-04T10:24:05.285Z</time>
      </trkpt>
      <trkpt lat="44.36527" lon="4.13637">
        <ele>411.341</ele>
        <time>2014-05-04T10:24:15.589Z</time>
      </trkpt>
      <trkpt lat="44.36522" lon="4.13648">
        <ele>411.507</ele>
        <time>2014-05-04T10:24:24.567Z</time>
      </trkpt>
      <trkpt lat="44.36516" lon="4.13658">
        <ele>411.208</ele>
        <time>2014-05-04T10:24:32.723Z</time>
      </trkpt>
      <trkpt lat="44.36511" lon="4.13668">
        <ele>410.484</ele>
        <time>2014-05-04T10:24:41.404Z</time>
      </trkpt>
      <trkpt lat="44.36504" lon="4.13678">
        <ele>409.476</ele>
        <time>2014-05-04T10:24:50.321Z</time>
      </trkpt>
      <trkpt lat="44.36494" lon="4.13684">
        <ele>407.933</ele>
        <time>2014-05-04T10:24:59.486Z</time>
      </trkpt>
      <trkpt lat="44.36484" lon="4.13685">
        <ele>405.632</ele>
        <time>2014-05-04T10:25:07.314Z</time>
      </trkpt>
      <trkpt lat="44.36474" lon="4.13686">
        <ele>403.63</ele>
        <time>2014-05-04T10:25:15.470Z</time>
      </trkpt>
      <trkpt lat="44.36464" lon="4.13686">
        <ele>403.202</ele>
        <time>2014-05-04T10:25:23.760Z</time>
      </trkpt>
      <trkpt lat="44.36455" lon="4.13684">
        <ele>404.382</ele>
        <time>2014-05-04T10:25:31.411Z</time>
      </trkpt>
      <trkpt lat="44.36446" lon="4.13683">
        <ele>406.16</ele>
        <time>2014-05-04T10:25:39.254Z</time>
      </trkpt>
      <trkpt lat="44.36437" lon="4.13678">
        <ele>407.509</ele>
        <time>2014-05-04T10:25:48.430Z</time>
      </trkpt>
      <trkpt lat="44.36429" lon="4.13673">
        <ele>408.032</ele>
        <time>2014-05-04T10:25:57.217Z</time>
      </trkpt>
      <trkpt lat="44.36419" lon="4.13672">
        <ele>407.677</ele>
        <time>2014-05-04T10:26:05.542Z</time>
      </trkpt>
      <trkpt lat="44.3641" lon="4.13665">
        <ele>406.57</ele>
        <time>2014-05-04T10:26:13.991Z</time>
      </trkpt>
      <trkpt lat="44.364" lon="4.13665">
        <ele>405.608</ele>
        <time>2014-05-04T10:26:23.320Z</time>
      </trkpt>
      <trkpt lat="44.36391" lon="4.13667">
        <ele>405.608</ele>
        <time>2014-05-04T10:26:32.742Z</time>
      </trkpt>
      <trkpt lat="44.36382" lon="4.13669">
        <ele>406.657</ele>
        <time>2014-05-04T10:26:42.188Z</time>
      </trkpt>
      <trkpt lat="44.36372" lon="4.1367">
        <ele>405.327</ele>
        <time>2014-05-04T10:26:51.330Z</time>
      </trkpt>
      <trkpt lat="44.36363" lon="4.13667">
        <ele>404.329</ele>
        <time>2014-05-04T10:26:59.642Z</time>
      </trkpt>
      <trkpt lat="44.36354" lon="4.13666">
        <ele>403.514</ele>
        <time>2014-05-04T10:27:07.612Z</time>
      </trkpt>
      <trkpt lat="44.36344" lon="4.13667">
        <ele>403.614</ele>
        <time>2014-05-04T10:27:17.074Z</time>
      </trkpt>
      <trkpt lat="44.36334" lon="4.13666">
        <ele>404.834</ele>
        <time>2014-05-04T10:27:27.699Z</time>
      </trkpt>
      <trkpt lat="44.36325" lon="4.1367">
        <ele>406.215</ele>
        <time>2014-05-04T10:27:38.271Z</time>
      </trkpt>
      <trkpt lat="44.36317" lon="4.13676">
        <ele>407.308</ele>
        <time>2014-05-04T10:27:47.938Z</time>
      </trkpt>
      <trkpt lat="44.36309" lon="4.13682">
        <ele>408.479</ele>
        <time>2014-05-04T10:27:59.597Z</time>
      </trkpt>
      <trkpt lat="44.363" lon="4.13686">
        <ele>409.779</ele>
        <time>2014-05-04T10:28:12.115Z</time>
      </trkpt>
      <trkpt lat="44.36289" lon="4.13691">
        <ele>410.714</ele>
        <time>2014-05-04T10:28:26.898Z</time>
      </trkpt>
      <trkpt lat="44.3628" lon="4.13694">
        <ele>411.359</ele>
        <time>2014-05-04T10:28:36.600Z</time>
      </trkpt>
      <trkpt lat="44.36273" lon="4.13702">
        <ele>412.692</ele>
        <time>2014-05-04T10:28:46.731Z</time>
      </trkpt>
      <trkpt lat="44.36265" lon="4.1371">
        <ele>414.772</ele>
        <time>2014-05-04T10:28:59.037Z</time>
      </trkpt>
      <trkpt lat="44.36261" lon="4.13721">
        <ele>416.258</ele>
        <time>2014-05-04T10:29:12.299Z</time>
      </trkpt>
      <trkpt lat="44.36254" lon="4.13732">
        <ele>416.654</ele>
        <time>2014-05-04T10:29:24.270Z</time>
      </trkpt>
      <trkpt lat="44.36248" lon="4.13743">
        <ele>416.897</ele>
        <time>2014-05-04T10:29:31.446Z</time>
      </trkpt>
      <trkpt lat="44.36242" lon="4.13753">
        <ele>417.781</ele>
        <time>2014-05-04T10:29:36.863Z</time>
      </trkpt>
      <trkpt lat="44.36242" lon="4.13753">
        <ele>418.574</ele>
        <time>2014-05-04T10:29:45.851Z</time>
      </trkpt>
      <trkpt lat="44.36242" lon="4.13753">
        <ele>418.473</ele>
        <time>2014-05-04T10:29:45.951Z</time>
      </trkpt>
      <trkpt lat="44.36237" lon="4.13766">
        <ele>418.01</ele>
        <time>2014-05-04T10:30:15.333Z</time>
      </trkpt>
      <trkpt lat="44.36229" lon="4.13773">
        <ele>417.841</ele>
        <time>2014-05-04T10:30:25.701Z</time>
      </trkpt>
      <trkpt lat="44.36223" lon="4.13783">
        <ele>417.495</ele>
        <time>2014-05-04T10:30:35.437Z</time>
      </trkpt>
      <trkpt lat="44.36217" lon="4.13792">
        <ele>416.327</ele>
        <time>2014-05-04T10:30:46.011Z</time>
      </trkpt>
      <trkpt lat="44.36211" lon="4.13801">
        <ele>414.832</ele>
        <time>2014-05-04T10:30:55.828Z</time>
      </trkpt>
      <trkpt lat="44.36203" lon="4.13808">
        <ele>413.887</ele>
        <time>2014-05-04T10:31:04.250Z</time>
      </trkpt>
      <trkpt lat="44.36195" lon="4.13816">
        <ele>414.18</ele>
        <time>2014-05-04T10:31:12.630Z</time>
      </trkpt>
      <trkpt lat="44.36185" lon="4.13822">
        <ele>415.739</ele>
        <time>2014-05-04T10:31:21.794Z</time>
      </trkpt>
      <trkpt lat="44.36176" lon="4.13828">
        <ele>417.405</ele>
        <time>2014-05-04T10:31:29.942Z</time>
      </trkpt>
      <trkpt lat="44.36169" lon="4.13835">
        <ele>417.828</ele>
        <time>2014-05-04T10:31:37.604Z</time>
      </trkpt>
      <trkpt lat="44.36159" lon="4.13838">
        <ele>416.958</ele>
        <time>2014-05-04T10:31:46.282Z</time>
      </trkpt>
      <trkpt lat="44.3615" lon="4.13841">
        <ele>415.367</ele>
        <time>2014-05-04T10:31:55.436Z</time>
      </trkpt>
      <trkpt lat="44.36142" lon="4.13848">
        <ele>413.055</ele>
        <time>2014-05-04T10:32:05.053Z</time>
      </trkpt>
      <trkpt lat="44.36136" lon="4.13858">
        <ele>410.291</ele>
        <time>2014-05-04T10:32:14.478Z</time>
      </trkpt>
      <trkpt lat="44.36126" lon="4.13857">
        <ele>408.621</ele>
        <time>2014-05-04T10:32:24.862Z</time>
      </trkpt>
      <trkpt lat="44.36126" lon="4.13857">
        <ele>408.735</ele>
        <time>2014-05-04T10:32:37.861Z</time>
      </trkpt>
      <trkpt lat="44.36126" lon="4.13857">
        <ele>409.326</ele>
        <time>2014-05-04T10:32:43.735Z</time>
      </trkpt>
      <trkpt lat="44.36113" lon="4.13869">
        <ele>409.213</ele>
        <time>2014-05-04T10:33:24.201Z</time>
      </trkpt>
      <trkpt lat="44.36119" lon="4.13879">
        <ele>408.792</ele>
        <time>2014-05-04T10:33:34.869Z</time>
      </trkpt>
      <trkpt lat="44.36119" lon="4.13879">
        <ele>408.725</ele>
        <time>2014-05-04T10:33:52.865Z</time>
      </trkpt>
      <trkpt lat="44.36119" lon="4.13879">
        <ele>408.803</ele>
        <time>2014-05-04T10:33:52.965Z</time>
      </trkpt>
      <trkpt lat="44.36126" lon="4.1389">
        <ele>408.678</ele>
        <time>2014-05-04T10:35:31.858Z</time>
      </trkpt>
      <trkpt lat="44.36126" lon="4.1389">
        <ele>408.443</ele>
        <time>2014-05-04T10:35:32.862Z</time>
      </trkpt>
      <trkpt lat="44.36126" lon="4.1389">
        <ele>408.279</ele>
        <time>2014-05-04T10:39:37.874Z</time>
      </trkpt>
      <trkpt lat="44.36126" lon="4.1389">
        <ele>408.168</ele>
        <time>2014-05-04T11:07:13.864Z</time>
      </trkpt>
      <trkpt lat="44.36129" lon="4.13898">
        <ele>415.595</ele>
        <time>2014-05-04T11:07:31.855Z</time>
      </trkpt>
      <trkpt lat="44.36129" lon="4.13898">
        <ele>415.404</ele>
        <time>2014-05-04T11:08:24.852Z</time>
      </trkpt>
      <trkpt lat="44.36129" lon="4.13898">
        <ele>415.297</ele>
        <time>2014-05-04T11:18:55.118Z</time>
      </trkpt>
      <trkpt lat="44.36123" lon="4.13889">
        <ele>415.037</ele>
        <time>2014-05-04T11:20:45.851Z</time>
      </trkpt>
      <trkpt lat="44.36123" lon="4.13889">
        <ele>414.937</ele>
        <time>2014-05-04T11:20:57.866Z</time>
      </trkpt>
      <trkpt lat="44.36123" lon="4.13889">
        <ele>414.852</ele>
        <time>2014-05-04T11:20:57.966Z</time>
      </trkpt>
      <trkpt lat="44.36123" lon="4.13889">
        <ele>414.549</ele>
        <time>2014-05-04T11:21:36.863Z</time>
      </trkpt>
      <trkpt lat="44.36123" lon="4.13889">
        <ele>414.424</ele>
        <time>2014-05-04T11:22:48.871Z</time>
      </trkpt>
      <trkpt lat="44.36123" lon="4.13889">
        <ele>414.296</ele>
        <time>2014-05-04T11:24:22.855Z</time>
      </trkpt>
      <trkpt lat="44.36123" lon="4.13889">
        <ele>414.145</ele>
        <time>2014-05-04T11:24:22.955Z</time>
      </trkpt>
      <trkpt lat="44.36123" lon="4.13889">
        <ele>413.877</ele>
        <time>2014-05-04T11:25:20.853Z</time>
      </trkpt>
      <trkpt lat="44.36123" lon="4.13889">
        <ele>413.771</ele>
        <time>2014-05-04T11:25:20.953Z</time>
      </trkpt>
      <trkpt lat="44.36117" lon="4.13873">
        <ele>413.632</ele>
        <time>2014-05-04T11:25:57.123Z</time>
      </trkpt>
      <trkpt lat="44.36105" lon="4.1386">
        <ele>413.485</ele>
        <time>2014-05-04T11:26:09.645Z</time>
      </trkpt>
      <trkpt lat="44.36098" lon="4.13852">
        <ele>413.616</ele>
        <time>2014-05-04T11:26:18.731Z</time>
      </trkpt>
      <trkpt lat="44.36091" lon="4.13842">
        <ele>414.159</ele>
        <time>2014-05-04T11:26:31.261Z</time>
      </trkpt>
      <trkpt lat="44.36083" lon="4.13836">
        <ele>413.939</ele>
        <time>2014-05-04T11:26:43.413Z</time>
      </trkpt>
      <trkpt lat="44.36074" lon="4.13833">
        <ele>412.002</ele>
        <time>2014-05-04T11:26:53.572Z</time>
      </trkpt>
      <trkpt lat="44.36065" lon="4.13828">
        <ele>409.581</ele>
        <time>2014-05-04T11:27:03.251Z</time>
      </trkpt>
      <trkpt lat="44.36056" lon="4.13827">
        <ele>408.142</ele>
        <time>2014-05-04T11:27:15.157Z</time>
      </trkpt>
      <trkpt lat="44.36046" lon="4.13827">
        <ele>407.145</ele>
        <time>2014-05-04T11:27:25.364Z</time>
      </trkpt>
      <trkpt lat="44.36037" lon="4.13829">
        <ele>405.811</ele>
        <time>2014-05-04T11:27:34.969Z</time>
      </trkpt>
      <trkpt lat="44.36028" lon="4.13829">
        <ele>404.585</ele>
        <time>2014-05-04T11:27:44.113Z</time>
      </trkpt>
      <trkpt lat="44.36018" lon="4.13825">
        <ele>403.967</ele>
        <time>2014-05-04T11:27:53.260Z</time>
      </trkpt>
      <trkpt lat="44.36009" lon="4.13824">
        <ele>403.329</ele>
        <time>2014-05-04T11:28:03.855Z</time>
      </trkpt>
      <trkpt lat="44.36" lon="4.13822">
        <ele>402.17</ele>
        <time>2014-05-04T11:28:13.663Z</time>
      </trkpt>
      <trkpt lat="44.35991" lon="4.13815">
        <ele>400.499</ele>
        <time>2014-05-04T11:28:23.277Z</time>
      </trkpt>
      <trkpt lat="44.35989" lon="4.13829">
        <ele>398.639</ele>
        <time>2014-05-04T11:28:34.853Z</time>
      </trkpt>
      <trkpt lat="44.35989" lon="4.13829">
        <ele>397.411</ele>
        <time>2014-05-04T11:28:48.859Z</time>
      </trkpt>
      <trkpt lat="44.35989" lon="4.13829">
        <ele>397.312</ele>
        <time>2014-05-04T11:28:52.478Z</time>
      </trkpt>
      <trkpt lat="44.35994" lon="4.13839">
        <ele>397.747</ele>
        <time>2014-05-04T11:29:15.627Z</time>
      </trkpt>
      <trkpt lat="44.35999" lon="4.1385">
        <ele>398.116</ele>
        <time>2014-05-04T11:29:25.805Z</time>
      </trkpt>
      <trkpt lat="44.36002" lon="4.13862">
        <ele>398.562</ele>
        <time>2014-05-04T11:29:33.110Z</time>
      </trkpt>
      <trkpt lat="44.36002" lon="4.13876">
        <ele>399.363</ele>
        <time>2014-05-04T11:29:40.013Z</time>
      </trkpt>
      <trkpt lat="44.35998" lon="4.13888">
        <ele>400.599</ele>
        <time>2014-05-04T11:29:46.110Z</time>
      </trkpt>
      <trkpt lat="44.35994" lon="4.13899">
        <ele>402.117</ele>
        <time>2014-05-04T11:29:52.287Z</time>
      </trkpt>
      <trkpt lat="44.35989" lon="4.1391">
        <ele>403.381</ele>
        <time>2014-05-04T11:29:58.778Z</time>
      </trkpt>
      <trkpt lat="44.35986" lon="4.13922">
        <ele>403.631</ele>
        <time>2014-05-04T11:30:05.545Z</time>
      </trkpt>
      <trkpt lat="44.35982" lon="4.13935">
        <ele>402.699</ele>
        <time>2014-05-04T11:30:13.816Z</time>
      </trkpt>
      <trkpt lat="44.35978" lon="4.13947">
        <ele>401.241</ele>
        <time>2014-05-04T11:30:22.055Z</time>
      </trkpt>
      <trkpt lat="44.35973" lon="4.13959">
        <ele>400.138</ele>
        <time>2014-05-04T11:30:30.384Z</time>
      </trkpt>
      <trkpt lat="44.35969" lon="4.13971">
        <ele>399.668</ele>
        <time>2014-05-04T11:30:37.658Z</time>
      </trkpt>
      <trkpt lat="44.35963" lon="4.13982">
        <ele>399.471</ele>
        <time>2014-05-04T11:30:45.627Z</time>
      </trkpt>
      <trkpt lat="44.35957" lon="4.13991">
        <ele>398.801</ele>
        <time>2014-05-04T11:30:53.858Z</time>
      </trkpt>
      <trkpt lat="44.35957" lon="4.13991">
        <ele>397.837</ele>
        <time>2014-05-04T11:31:04.711Z</time>
      </trkpt>
      <trkpt lat="44.35957" lon="4.13991">
        <ele>397.385</ele>
        <time>2014-05-04T11:31:04.811Z</time>
      </trkpt>
      <trkpt lat="44.35957" lon="4.13991">
        <ele>397.383</ele>
        <time>2014-05-04T11:31:10.911Z</time>
      </trkpt>
      <trkpt lat="44.35957" lon="4.13991">
        <ele>397.317</ele>
        <time>2014-05-04T11:31:11.011Z</time>
      </trkpt>
      <trkpt lat="44.35947" lon="4.14015">
        <ele>397.154</ele>
        <time>2014-05-04T11:31:33.463Z</time>
      </trkpt>
      <trkpt lat="44.35943" lon="4.14027">
        <ele>397.396</ele>
        <time>2014-05-04T11:31:38.796Z</time>
      </trkpt>
      <trkpt lat="44.35936" lon="4.14038">
        <ele>398.381</ele>
        <time>2014-05-04T11:31:43.968Z</time>
      </trkpt>
      <trkpt lat="44.35932" lon="4.1405">
        <ele>399.461</ele>
        <time>2014-05-04T11:31:49.043Z</time>
      </trkpt>
      <trkpt lat="44.3593" lon="4.14063">
        <ele>400.083</ele>
        <time>2014-05-04T11:31:53.865Z</time>
      </trkpt>
      <trkpt lat="44.3593" lon="4.14063">
        <ele>400.412</ele>
        <time>2014-05-04T11:32:07.874Z</time>
      </trkpt>
      <trkpt lat="44.3593" lon="4.14063">
        <ele>400.492</ele>
        <time>2014-05-04T11:32:07.974Z</time>
      </trkpt>
      <trkpt lat="44.35929" lon="4.14076">
        <ele>400.262</ele>
        <time>2014-05-04T11:32:35.352Z</time>
      </trkpt>
      <trkpt lat="44.35926" lon="4.14089">
        <ele>399.36</ele>
        <time>2014-05-04T11:32:42.425Z</time>
      </trkpt>
      <trkpt lat="44.35923" lon="4.14101">
        <ele>397.185</ele>
        <time>2014-05-04T11:32:48.253Z</time>
      </trkpt>
      <trkpt lat="44.35921" lon="4.14115">
        <ele>394.314</ele>
        <time>2014-05-04T11:32:55.645Z</time>
      </trkpt>
      <trkpt lat="44.35919" lon="4.14129">
        <ele>392.905</ele>
        <time>2014-05-04T11:33:04.614Z</time>
      </trkpt>
      <trkpt lat="44.35916" lon="4.14142">
        <ele>393.939</ele>
        <time>2014-05-04T11:33:12.951Z</time>
      </trkpt>
      <trkpt lat="44.35915" lon="4.14154">
        <ele>395.993</ele>
        <time>2014-05-04T11:33:18.766Z</time>
      </trkpt>
      <trkpt lat="44.35913" lon="4.14167">
        <ele>397.679</ele>
        <time>2014-05-04T11:33:24.901Z</time>
      </trkpt>
      <trkpt lat="44.35917" lon="4.14179">
        <ele>398.825</ele>
        <time>2014-05-04T11:33:31.478Z</time>
      </trkpt>
      <trkpt lat="44.35921" lon="4.14191">
        <ele>399.417</ele>
        <time>2014-05-04T11:33:38.676Z</time>
      </trkpt>
      <trkpt lat="44.35923" lon="4.14205">
        <ele>399.439</ele>
        <time>2014-05-04T11:33:45.843Z</time>
      </trkpt>
      <trkpt lat="44.35923" lon="4.14219">
        <ele>399.307</ele>
        <time>2014-05-04T11:33:53.170Z</time>
      </trkpt>
      <trkpt lat="44.35926" lon="4.14231">
        <ele>399.551</ele>
        <time>2014-05-04T11:33:59.859Z</time>
      </trkpt>
      <trkpt lat="44.35926" lon="4.14231">
        <ele>400.112</ele>
        <time>2014-05-04T11:34:14.869Z</time>
      </trkpt>
      <trkpt lat="44.35926" lon="4.14231">
        <ele>400.408</ele>
        <time>2014-05-04T11:34:14.969Z</time>
      </trkpt>
      <trkpt lat="44.35938" lon="4.14246">
        <ele>400.145</ele>
        <time>2014-05-04T11:34:39.303Z</time>
      </trkpt>
      <trkpt lat="44.35943" lon="4.14256">
        <ele>399.476</ele>
        <time>2014-05-04T11:34:46.553Z</time>
      </trkpt>
      <trkpt lat="44.35949" lon="4.14267">
        <ele>398.453</ele>
        <time>2014-05-04T11:34:54.124Z</time>
      </trkpt>
      <trkpt lat="44.35955" lon="4.14277">
        <ele>396.905</ele>
        <time>2014-05-04T11:35:00.908Z</time>
      </trkpt>
      <trkpt lat="44.35962" lon="4.14287">
        <ele>395.481</ele>
        <time>2014-05-04T11:35:08.138Z</time>
      </trkpt>
      <trkpt lat="44.3597" lon="4.14294">
        <ele>394.811</ele>
        <time>2014-05-04T11:35:15.582Z</time>
      </trkpt>
      <trkpt lat="44.35975" lon="4.14305">
        <ele>394.344</ele>
        <time>2014-05-04T11:35:23.017Z</time>
      </trkpt>
      <trkpt lat="44.35984" lon="4.14313">
        <ele>393.369</ele>
        <time>2014-05-04T11:35:30.928Z</time>
      </trkpt>
      <trkpt lat="44.35991" lon="4.14324">
        <ele>392.089</ele>
        <time>2014-05-04T11:35:38.139Z</time>
      </trkpt>
      <trkpt lat="44.35998" lon="4.14333">
        <ele>390.647</ele>
        <time>2014-05-04T11:35:44.530Z</time>
      </trkpt>
      <trkpt lat="44.36003" lon="4.14345">
        <ele>389.479</ele>
        <time>2014-05-04T11:35:52.230Z</time>
      </trkpt>
      <trkpt lat="44.36009" lon="4.14355">
        <ele>388.872</ele>
        <time>2014-05-04T11:35:59.950Z</time>
      </trkpt>
      <trkpt lat="44.36014" lon="4.14368">
        <ele>387.682</ele>
        <time>2014-05-04T11:36:08.135Z</time>
      </trkpt>
      <trkpt lat="44.3602" lon="4.14378">
        <ele>385.281</ele>
        <time>2014-05-04T11:36:14.831Z</time>
      </trkpt>
      <trkpt lat="44.36024" lon="4.1439">
        <ele>383.094</ele>
        <time>2014-05-04T11:36:21.010Z</time>
      </trkpt>
      <trkpt lat="44.36029" lon="4.144">
        <ele>382.226</ele>
        <time>2014-05-04T11:36:26.786Z</time>
      </trkpt>
      <trkpt lat="44.36036" lon="4.14411">
        <ele>382.537</ele>
        <time>2014-05-04T11:36:33.786Z</time>
      </trkpt>
      <trkpt lat="44.36042" lon="4.14422">
        <ele>383.796</ele>
        <time>2014-05-04T11:36:40.819Z</time>
      </trkpt>
      <trkpt lat="44.36042" lon="4.14435">
        <ele>385.63</ele>
        <time>2014-05-04T11:36:48.955Z</time>
      </trkpt>
      <trkpt lat="44.36044" lon="4.14447">
        <ele>388.076</ele>
        <time>2014-05-04T11:36:58.092Z</time>
      </trkpt>
      <trkpt lat="44.36044" lon="4.1446">
        <ele>391.137</ele>
        <time>2014-05-04T11:37:06.194Z</time>
      </trkpt>
      <trkpt lat="44.36042" lon="4.14473">
        <ele>393.712</ele>
        <time>2014-05-04T11:37:11.420Z</time>
      </trkpt>
      <trkpt lat="44.36044" lon="4.14486">
        <ele>393.813</ele>
        <time>2014-05-04T11:37:17.256Z</time>
      </trkpt>
      <trkpt lat="44.36042" lon="4.14499">
        <ele>390.672</ele>
        <time>2014-05-04T11:37:23.507Z</time>
      </trkpt>
      <trkpt lat="44.36039" lon="4.14512">
        <ele>386.072</ele>
        <time>2014-05-04T11:37:32.743Z</time>
      </trkpt>
      <trkpt lat="44.36034" lon="4.14523">
        <ele>383.492</ele>
        <time>2014-05-04T11:37:44.317Z</time>
      </trkpt>
      <trkpt lat="44.36029" lon="4.14534">
        <ele>384.057</ele>
        <time>2014-05-04T11:37:57.172Z</time>
      </trkpt>
      <trkpt lat="44.36024" lon="4.14546">
        <ele>385.293</ele>
        <time>2014-05-04T11:38:07.853Z</time>
      </trkpt>
      <trkpt lat="44.36024" lon="4.14546">
        <ele>385.005</ele>
        <time>2014-05-04T11:38:22.852Z</time>
      </trkpt>
      <trkpt lat="44.36024" lon="4.14546">
        <ele>384.08</ele>
        <time>2014-05-04T11:38:22.952Z</time>
      </trkpt>
      <trkpt lat="44.36024" lon="4.1456">
        <ele>383.861</ele>
        <time>2014-05-04T11:38:41.851Z</time>
      </trkpt>
      <trkpt lat="44.36024" lon="4.1456">
        <ele>384.115</ele>
        <time>2014-05-04T11:38:49.854Z</time>
      </trkpt>
      <trkpt lat="44.36024" lon="4.1456">
        <ele>384.196</ele>
        <time>2014-05-04T11:38:49.954Z</time>
      </trkpt>
      <trkpt lat="44.36028" lon="4.14572">
        <ele>383.774</ele>
        <time>2014-05-04T11:39:23.872Z</time>
      </trkpt>
      <trkpt lat="44.3603" lon="4.14587">
        <ele>382.959</ele>
        <time>2014-05-04T11:39:40.343Z</time>
      </trkpt>
      <trkpt lat="44.36036" lon="4.14596">
        <ele>381.126</ele>
        <time>2014-05-04T11:39:49.325Z</time>
      </trkpt>
      <trkpt lat="44.36043" lon="4.14606">
        <ele>379.284</ele>
        <time>2014-05-04T11:40:00.952Z</time>
      </trkpt>
      <trkpt lat="44.36043" lon="4.14622">
        <ele>378.368</ele>
        <time>2014-05-04T11:40:15.130Z</time>
      </trkpt>
      <trkpt lat="44.36044" lon="4.14636">
        <ele>378.104</ele>
        <time>2014-05-04T11:40:28.711Z</time>
      </trkpt>
      <trkpt lat="44.36053" lon="4.1464">
        <ele>378.156</ele>
        <time>2014-05-04T11:40:42.289Z</time>
      </trkpt>
      <trkpt lat="44.36063" lon="4.14641">
        <ele>378.35</ele>
        <time>2014-05-04T11:40:53.393Z</time>
      </trkpt>
      <trkpt lat="44.36073" lon="4.14646">
        <ele>378.193</ele>
        <time>2014-05-04T11:41:03.483Z</time>
      </trkpt>
      <trkpt lat="44.36081" lon="4.14651">
        <ele>377.408</ele>
        <time>2014-05-04T11:41:13.273Z</time>
      </trkpt>
      <trkpt lat="44.36091" lon="4.14658">
        <ele>376.438</ele>
        <time>2014-05-04T11:41:27.493Z</time>
      </trkpt>
      <trkpt lat="44.361" lon="4.14664">
        <ele>375.758</ele>
        <time>2014-05-04T11:41:40.454Z</time>
      </trkpt>
      <trkpt lat="44.36109" lon="4.14669">
        <ele>374.223</ele>
        <time>2014-05-04T11:41:51.864Z</time>
      </trkpt>
      <trkpt lat="44.36109" lon="4.14669">
        <ele>371.03</ele>
        <time>2014-05-04T11:42:08.865Z</time>
      </trkpt>
      <trkpt lat="44.36109" lon="4.14669">
        <ele>368.388</ele>
        <time>2014-05-04T11:42:08.965Z</time>
      </trkpt>
      <trkpt lat="44.36127" lon="4.14679">
        <ele>368.288</ele>
        <time>2014-05-04T11:42:44.340Z</time>
      </trkpt>
      <trkpt lat="44.36134" lon="4.14688">
        <ele>368.926</ele>
        <time>2014-05-04T11:42:56.470Z</time>
      </trkpt>
      <trkpt lat="44.36137" lon="4.14701">
        <ele>367.788</ele>
        <time>2014-05-04T11:43:06.580Z</time>
      </trkpt>
      <trkpt lat="44.36144" lon="4.14708">
        <ele>365.051</ele>
        <time>2014-05-04T11:43:15.298Z</time>
      </trkpt>
      <trkpt lat="44.36152" lon="4.14718">
        <ele>362.508</ele>
        <time>2014-05-04T11:43:25.946Z</time>
      </trkpt>
      <trkpt lat="44.36158" lon="4.14727">
        <ele>360.981</ele>
        <time>2014-05-04T11:43:36.144Z</time>
      </trkpt>
      <trkpt lat="44.3616" lon="4.14741">
        <ele>360.212</ele>
        <time>2014-05-04T11:43:46.792Z</time>
      </trkpt>
      <trkpt lat="44.36167" lon="4.14752">
        <ele>359.951</ele>
        <time>2014-05-04T11:43:58.037Z</time>
      </trkpt>
      <trkpt lat="44.36175" lon="4.1476">
        <ele>359.826</ele>
        <time>2014-05-04T11:44:07.105Z</time>
      </trkpt>
      <trkpt lat="44.36182" lon="4.14768">
        <ele>359.504</ele>
        <time>2014-05-04T11:44:15.663Z</time>
      </trkpt>
      <trkpt lat="44.3619" lon="4.14774">
        <ele>358.937</ele>
        <time>2014-05-04T11:44:24.197Z</time>
      </trkpt>
      <trkpt lat="44.36197" lon="4.14783">
        <ele>358.951</ele>
        <time>2014-05-04T11:44:34.120Z</time>
      </trkpt>
      <trkpt lat="44.36205" lon="4.14795">
        <ele>358.721</ele>
        <time>2014-05-04T11:44:45.300Z</time>
      </trkpt>
      <trkpt lat="44.36213" lon="4.14804">
        <ele>358.321</ele>
        <time>2014-05-04T11:44:55.049Z</time>
      </trkpt>
      <trkpt lat="44.3622" lon="4.14813">
        <ele>357.815</ele>
        <time>2014-05-04T11:45:03.874Z</time>
      </trkpt>
      <trkpt lat="44.36228" lon="4.1482">
        <ele>357.779</ele>
        <time>2014-05-04T11:45:11.303Z</time>
      </trkpt>
      <trkpt lat="44.36234" lon="4.14829">
        <ele>358.942</ele>
        <time>2014-05-04T11:45:18.719Z</time>
      </trkpt>
      <trkpt lat="44.3624" lon="4.1484">
        <ele>360.696</ele>
        <time>2014-05-04T11:45:26.764Z</time>
      </trkpt>
      <trkpt lat="44.36244" lon="4.14852">
        <ele>361.469</ele>
        <time>2014-05-04T11:45:34.943Z</time>
      </trkpt>
      <trkpt lat="44.3625" lon="4.14862">
        <ele>360.768</ele>
        <time>2014-05-04T11:45:42.718Z</time>
      </trkpt>
      <trkpt lat="44.36256" lon="4.14871">
        <ele>359.472</ele>
        <time>2014-05-04T11:45:51.089Z</time>
      </trkpt>
      <trkpt lat="44.36263" lon="4.1488">
        <ele>358.576</ele>
        <time>2014-05-04T11:46:00.153Z</time>
      </trkpt>
      <trkpt lat="44.36271" lon="4.14889">
        <ele>358.231</ele>
        <time>2014-05-04T11:46:10.618Z</time>
      </trkpt>
      <trkpt lat="44.36278" lon="4.14898">
        <ele>358.065</ele>
        <time>2014-05-04T11:46:20.735Z</time>
      </trkpt>
      <trkpt lat="44.36286" lon="4.14906">
        <ele>357.779</ele>
        <time>2014-05-04T11:46:29.490Z</time>
      </trkpt>
      <trkpt lat="44.36294" lon="4.14913">
        <ele>357.762</ele>
        <time>2014-05-04T11:46:37.082Z</time>
      </trkpt>
      <trkpt lat="44.36301" lon="4.14922">
        <ele>358.371</ele>
        <time>2014-05-04T11:46:45.138Z</time>
      </trkpt>
      <trkpt lat="44.36308" lon="4.1493">
        <ele>359.08</ele>
        <time>2014-05-04T11:46:54.495Z</time>
      </trkpt>
      <trkpt lat="44.36315" lon="4.14939">
        <ele>359.355</ele>
        <time>2014-05-04T11:47:03.165Z</time>
      </trkpt>
      <trkpt lat="44.3632" lon="4.14951">
        <ele>359.357</ele>
        <time>2014-05-04T11:47:12.717Z</time>
      </trkpt>
      <trkpt lat="44.36318" lon="4.14964">
        <ele>359.531</ele>
        <time>2014-05-04T11:47:22.862Z</time>
      </trkpt>
      <trkpt lat="44.36318" lon="4.14964">
        <ele>360.019</ele>
        <time>2014-05-04T11:47:30.866Z</time>
      </trkpt>
      <trkpt lat="44.36318" lon="4.14964">
        <ele>360.359</ele>
        <time>2014-05-04T11:47:30.966Z</time>
      </trkpt>
      <trkpt lat="44.3632" lon="4.14979">
        <ele>359.839</ele>
        <time>2014-05-04T11:47:46.578Z</time>
      </trkpt>
      <trkpt lat="44.36325" lon="4.14989">
        <ele>358.973</ele>
        <time>2014-05-04T11:47:55.300Z</time>
      </trkpt>
      <trkpt lat="44.36332" lon="4.14998">
        <ele>357.519</ele>
        <time>2014-05-04T11:48:04.283Z</time>
      </trkpt>
      <trkpt lat="44.36339" lon="4.15008">
        <ele>355.84</ele>
        <time>2014-05-04T11:48:14.078Z</time>
      </trkpt>
      <trkpt lat="44.36344" lon="4.15019">
        <ele>355.274</ele>
        <time>2014-05-04T11:48:24.747Z</time>
      </trkpt>
      <trkpt lat="44.36347" lon="4.15032">
        <ele>356.7</ele>
        <time>2014-05-04T11:48:36.487Z</time>
      </trkpt>
      <trkpt lat="44.36349" lon="4.15044">
        <ele>359.432</ele>
        <time>2014-05-04T11:48:48.161Z</time>
      </trkpt>
      <trkpt lat="44.36356" lon="4.15053">
        <ele>361.472</ele>
        <time>2014-05-04T11:48:59.495Z</time>
      </trkpt>
      <trkpt lat="44.3636" lon="4.15065">
        <ele>361.726</ele>
        <time>2014-05-04T11:49:11.372Z</time>
      </trkpt>
      <trkpt lat="44.36367" lon="4.15075">
        <ele>360.851</ele>
        <time>2014-05-04T11:49:22.143Z</time>
      </trkpt>
      <trkpt lat="44.36371" lon="4.15087">
        <ele>359.959</ele>
        <time>2014-05-04T11:49:31.564Z</time>
      </trkpt>
      <trkpt lat="44.3638" lon="4.15093">
        <ele>359.328</ele>
        <time>2014-05-04T11:49:42.268Z</time>
      </trkpt>
      <trkpt lat="44.36385" lon="4.15104">
        <ele>358.076</ele>
        <time>2014-05-04T11:49:54.872Z</time>
      </trkpt>
      <trkpt lat="44.36385" lon="4.15104">
        <ele>355.913</ele>
        <time>2014-05-04T11:50:16.853Z</time>
      </trkpt>
      <trkpt lat="44.36385" lon="4.15104">
        <ele>354.28</ele>
        <time>2014-05-04T11:50:29.318Z</time>
      </trkpt>
      <trkpt lat="44.36392" lon="4.15114">
        <ele>354.187</ele>
        <time>2014-05-04T11:51:07.020Z</time>
      </trkpt>
      <trkpt lat="44.36396" lon="4.15127">
        <ele>353.982</ele>
        <time>2014-05-04T11:51:20.131Z</time>
      </trkpt>
      <trkpt lat="44.36401" lon="4.15138">
        <ele>351.793</ele>
        <time>2014-05-04T11:51:29.803Z</time>
      </trkpt>
      <trkpt lat="44.36411" lon="4.15152">
        <ele>348.957</ele>
        <time>2014-05-04T11:51:45.430Z</time>
      </trkpt>
      <trkpt lat="44.36416" lon="4.15165">
        <ele>348.083</ele>
        <time>2014-05-04T11:51:58.192Z</time>
      </trkpt>
      <trkpt lat="44.36423" lon="4.1518">
        <ele>349.651</ele>
        <time>2014-05-04T11:52:15.977Z</time>
      </trkpt>
      <trkpt lat="44.36425" lon="4.15193">
        <ele>352.256</ele>
        <time>2014-05-04T11:52:34.646Z</time>
      </trkpt>
      <trkpt lat="44.36421" lon="4.15205">
        <ele>353.2</ele>
        <time>2014-05-04T11:52:57.647Z</time>
      </trkpt>
      <trkpt lat="44.36412" lon="4.15217">
        <ele>350.633</ele>
        <time>2014-05-04T11:53:13.052Z</time>
      </trkpt>
      <trkpt lat="44.36402" lon="4.15228">
        <ele>345.982</ele>
        <time>2014-05-04T11:53:26.055Z</time>
      </trkpt>
      <trkpt lat="44.36395" lon="4.15238">
        <ele>342.013</ele>
        <time>2014-05-04T11:53:35.547Z</time>
      </trkpt>
      <trkpt lat="44.36391" lon="4.15252">
        <ele>339.377</ele>
        <time>2014-05-04T11:53:46.428Z</time>
      </trkpt>
      <trkpt lat="44.36393" lon="4.15266">
        <ele>336.977</ele>
        <time>2014-05-04T11:53:59.814Z</time>
      </trkpt>
      <trkpt lat="44.36392" lon="4.1528">
        <ele>334.493</ele>
        <time>2014-05-04T11:54:12.229Z</time>
      </trkpt>
      <trkpt lat="44.36388" lon="4.15293">
        <ele>332.755</ele>
        <time>2014-05-04T11:54:24.528Z</time>
      </trkpt>
      <trkpt lat="44.36387" lon="4.15307">
        <ele>332.34</ele>
        <time>2014-05-04T11:54:38.501Z</time>
      </trkpt>
      <trkpt lat="44.36381" lon="4.15317">
        <ele>333.026</ele>
        <time>2014-05-04T11:54:55.921Z</time>
      </trkpt>
      <trkpt lat="44.36372" lon="4.15323">
        <ele>333.564</ele>
        <time>2014-05-04T11:55:12.082Z</time>
      </trkpt>
      <trkpt lat="44.36365" lon="4.15333">
        <ele>332.955</ele>
        <time>2014-05-04T11:55:21.835Z</time>
      </trkpt>
      <trkpt lat="44.36359" lon="4.15343">
        <ele>331.656</ele>
        <time>2014-05-04T11:55:30.190Z</time>
      </trkpt>
      <trkpt lat="44.36349" lon="4.15344">
        <ele>330.599</ele>
        <time>2014-05-04T11:55:38.863Z</time>
      </trkpt>
      <trkpt lat="44.36349" lon="4.15344">
        <ele>330.109</ele>
        <time>2014-05-04T11:55:48.865Z</time>
      </trkpt>
      <trkpt lat="44.36349" lon="4.15344">
        <ele>329.965</ele>
        <time>2014-05-04T11:55:48.965Z</time>
      </trkpt>
      <trkpt lat="44.3634" lon="4.15343">
        <ele>329.765</ele>
        <time>2014-05-04T11:56:03.867Z</time>
      </trkpt>
      <trkpt lat="44.3634" lon="4.15343">
        <ele>329.67</ele>
        <time>2014-05-04T11:56:13.866Z</time>
      </trkpt>
      <trkpt lat="44.3634" lon="4.15343">
        <ele>329.525</ele>
        <time>2014-05-04T11:56:13.966Z</time>
      </trkpt>
      <trkpt lat="44.36322" lon="4.15346">
        <ele>329.372</ele>
        <time>2014-05-04T11:56:51.741Z</time>
      </trkpt>
      <trkpt lat="44.36314" lon="4.15353">
        <ele>328.922</ele>
        <time>2014-05-04T11:56:59.856Z</time>
      </trkpt>
      <trkpt lat="44.36314" lon="4.15353">
        <ele>327.955</ele>
        <time>2014-05-04T11:57:17.853Z</time>
      </trkpt>
      <trkpt lat="44.36314" lon="4.15353">
        <ele>327.119</ele>
        <time>2014-05-04T11:57:17.953Z</time>
      </trkpt>
      <trkpt lat="44.36323" lon="4.1536">
        <ele>327.007</ele>
        <time>2014-05-04T11:58:55.938Z</time>
      </trkpt>
      <trkpt lat="44.36331" lon="4.15363">
        <ele>327.294</ele>
        <time>2014-05-04T11:59:06.521Z</time>
      </trkpt>
      <trkpt lat="44.3634" lon="4.15369">
        <ele>326.265</ele>
        <time>2014-05-04T11:59:16.059Z</time>
      </trkpt>
      <trkpt lat="44.36348" lon="4.15374">
        <ele>323.049</ele>
        <time>2014-05-04T11:59:26.077Z</time>
      </trkpt>
      <trkpt lat="44.36357" lon="4.15381">
        <ele>319.289</ele>
        <time>2014-05-04T11:59:37.874Z</time>
      </trkpt>
      <trkpt lat="44.36357" lon="4.15381">
        <ele>317.138</ele>
        <time>2014-05-04T11:59:42.854Z</time>
      </trkpt>
      <trkpt lat="44.36357" lon="4.15381">
        <ele>316.741</ele>
        <time>2014-05-04T11:59:42.954Z</time>
      </trkpt>
      <trkpt lat="44.36368" lon="4.15376">
        <ele>316.942</ele>
        <time>2014-05-04T12:00:52.635Z</time>
      </trkpt>
      <trkpt lat="44.36378" lon="4.1538">
        <ele>316.183</ele>
        <time>2014-05-04T12:01:16.878Z</time>
      </trkpt>
      <trkpt lat="44.36378" lon="4.1538">
        <ele>315.075</ele>
        <time>2014-05-04T12:01:28.868Z</time>
      </trkpt>
      <trkpt lat="44.36378" lon="4.1538">
        <ele>314.561</ele>
        <time>2014-05-04T12:01:28.968Z</time>
      </trkpt>
      <trkpt lat="44.36378" lon="4.1538">
        <ele>314.707</ele>
        <time>2014-05-04T12:01:51.879Z</time>
      </trkpt>
      <trkpt lat="44.36378" lon="4.1538">
        <ele>314.676</ele>
        <time>2014-05-04T12:01:51.979Z</time>
      </trkpt>
      <trkpt lat="44.36393" lon="4.15375">
        <ele>314.534</ele>
        <time>2014-05-04T12:02:29.644Z</time>
      </trkpt>
      <trkpt lat="44.36405" lon="4.15371">
        <ele>313.501</ele>
        <time>2014-05-04T12:02:41.454Z</time>
      </trkpt>
      <trkpt lat="44.36413" lon="4.15365">
        <ele>310.347</ele>
        <time>2014-05-04T12:02:53.547Z</time>
      </trkpt>
      <trkpt lat="44.3642" lon="4.15356">
        <ele>305.916</ele>
        <time>2014-05-04T12:03:05.881Z</time>
      </trkpt>
      <trkpt lat="44.3642" lon="4.15356">
        <ele>303.143</ele>
        <time>2014-05-04T12:03:22.858Z</time>
      </trkpt>
      <trkpt lat="44.3642" lon="4.15356">
        <ele>303.18</ele>
        <time>2014-05-04T12:03:22.958Z</time>
      </trkpt>
      <trkpt lat="44.36432" lon="4.15362">
        <ele>304.077</ele>
        <time>2014-05-04T12:03:51.045Z</time>
      </trkpt>
      <trkpt lat="44.36438" lon="4.15372">
        <ele>302.658</ele>
        <time>2014-05-04T12:04:06.324Z</time>
      </trkpt>
      <trkpt lat="44.36447" lon="4.15378">
        <ele>298.404</ele>
        <time>2014-05-04T12:04:22.056Z</time>
      </trkpt>
      <trkpt lat="44.36456" lon="4.15387">
        <ele>294.705</ele>
        <time>2014-05-04T12:04:37.810Z</time>
      </trkpt>
      <trkpt lat="44.3646" lon="4.15399">
        <ele>294.004</ele>
        <time>2014-05-04T12:04:50.031Z</time>
      </trkpt>
      <trkpt lat="44.36462" lon="4.15411">
        <ele>293.328</ele>
        <time>2014-05-04T12:05:01.663Z</time>
      </trkpt>
      <trkpt lat="44.36465" lon="4.15423">
        <ele>289.924</ele>
        <time>2014-05-04T12:05:15.113Z</time>
      </trkpt>
      <trkpt lat="44.36473" lon="4.15429">
        <ele>286.267</ele>
        <time>2014-05-04T12:05:28.865Z</time>
      </trkpt>
      <trkpt lat="44.36473" lon="4.15429">
        <ele>285.192</ele>
        <time>2014-05-04T12:05:35.853Z</time>
      </trkpt>
      <trkpt lat="44.36473" lon="4.15429">
        <ele>285.671</ele>
        <time>2014-05-04T12:05:35.953Z</time>
      </trkpt>
      <trkpt lat="44.36473" lon="4.15429">
        <ele>285.589</ele>
        <time>2014-05-04T12:06:22.857Z</time>
      </trkpt>
      <trkpt lat="44.36473" lon="4.15429">
        <ele>285.158</ele>
        <time>2014-05-04T12:06:22.957Z</time>
      </trkpt>
      <trkpt lat="44.36482" lon="4.15438">
        <ele>285.083</ele>
        <time>2014-05-04T12:06:40.815Z</time>
      </trkpt>
      <trkpt lat="44.36491" lon="4.15443">
        <ele>286.259</ele>
        <time>2014-05-04T12:06:48.558Z</time>
      </trkpt>
      <trkpt lat="44.365" lon="4.15449">
        <ele>289.003</ele>
        <time>2014-05-04T12:06:56.410Z</time>
      </trkpt>
      <trkpt lat="44.36508" lon="4.15454">
        <ele>291.066</ele>
        <time>2014-05-04T12:07:03.417Z</time>
      </trkpt>
      <trkpt lat="44.36517" lon="4.15459">
        <ele>290.379</ele>
        <time>2014-05-04T12:07:09.856Z</time>
      </trkpt>
      <trkpt lat="44.36517" lon="4.15459">
        <ele>288.106</ele>
        <time>2014-05-04T12:07:19.862Z</time>
      </trkpt>
      <trkpt lat="44.36517" lon="4.15459">
        <ele>286.557</ele>
        <time>2014-05-04T12:07:19.962Z</time>
      </trkpt>
      <trkpt lat="44.36523" lon="4.1547">
        <ele>287.171</ele>
        <time>2014-05-04T12:07:59.893Z</time>
      </trkpt>
      <trkpt lat="44.36525" lon="4.15483">
        <ele>287.611</ele>
        <time>2014-05-04T12:08:09.936Z</time>
      </trkpt>
      <trkpt lat="44.36528" lon="4.15495">
        <ele>287.42</ele>
        <time>2014-05-04T12:08:18.921Z</time>
      </trkpt>
      <trkpt lat="44.36531" lon="4.15507">
        <ele>286.907</ele>
        <time>2014-05-04T12:08:27.195Z</time>
      </trkpt>
      <trkpt lat="44.36532" lon="4.1552">
        <ele>286.795</ele>
        <time>2014-05-04T12:08:35.778Z</time>
      </trkpt>
      <trkpt lat="44.36534" lon="4.15532">
        <ele>287.146</ele>
        <time>2014-05-04T12:08:44.343Z</time>
      </trkpt>
      <trkpt lat="44.36541" lon="4.15542">
        <ele>287.487</ele>
        <time>2014-05-04T12:08:52.336Z</time>
      </trkpt>
      <trkpt lat="44.36538" lon="4.15557">
        <ele>287.638</ele>
        <time>2014-05-04T12:09:00.365Z</time>
      </trkpt>
      <trkpt lat="44.36535" lon="4.1557">
        <ele>287.413</ele>
        <time>2014-05-04T12:09:08.313Z</time>
      </trkpt>
      <trkpt lat="44.36531" lon="4.15583">
        <ele>286.716</ele>
        <time>2014-05-04T12:09:17.549Z</time>
      </trkpt>
      <trkpt lat="44.3653" lon="4.15598">
        <ele>285.981</ele>
        <time>2014-05-04T12:09:26.857Z</time>
      </trkpt>
      <trkpt lat="44.36538" lon="4.15606">
        <ele>286.233</ele>
        <time>2014-05-04T12:09:36.587Z</time>
      </trkpt>
      <trkpt lat="44.36543" lon="4.15623">
        <ele>288.639</ele>
        <time>2014-05-04T12:09:49.081Z</time>
      </trkpt>
      <trkpt lat="44.36544" lon="4.15637">
        <ele>292.631</ele>
        <time>2014-05-04T12:09:57.215Z</time>
      </trkpt>
      <trkpt lat="44.36552" lon="4.15646">
        <ele>295.283</ele>
        <time>2014-05-04T12:10:06.415Z</time>
      </trkpt>
      <trkpt lat="44.36554" lon="4.15659">
        <ele>294.575</ele>
        <time>2014-05-04T12:10:18.857Z</time>
      </trkpt>
      <trkpt lat="44.36554" lon="4.15659">
        <ele>291.797</ele>
        <time>2014-05-04T12:10:21.858Z</time>
      </trkpt>
      <trkpt lat="44.36554" lon="4.15659">
        <ele>289.784</ele>
        <time>2014-05-04T12:10:27.483Z</time>
      </trkpt>
      <trkpt lat="44.36551" lon="4.15671">
        <ele>290.644</ele>
        <time>2014-05-04T12:11:27.197Z</time>
      </trkpt>
      <trkpt lat="44.36548" lon="4.15684">
        <ele>290.018</ele>
        <time>2014-05-04T12:11:35.867Z</time>
      </trkpt>
      <trkpt lat="44.36548" lon="4.15684">
        <ele>286.843</ele>
        <time>2014-05-04T12:11:50.861Z</time>
      </trkpt>
      <trkpt lat="44.36548" lon="4.15684">
        <ele>283.951</ele>
        <time>2014-05-04T12:12:19.050Z</time>
      </trkpt>
      <trkpt lat="44.36541" lon="4.15705">
        <ele>283.857</ele>
        <time>2014-05-04T12:13:07.868Z</time>
      </trkpt>
      <trkpt lat="44.36541" lon="4.15705">
        <ele>284.833</ele>
        <time>2014-05-04T12:13:25.882Z</time>
      </trkpt>
      <trkpt lat="44.36541" lon="4.15705">
        <ele>284.83</ele>
        <time>2014-05-04T12:13:25.982Z</time>
      </trkpt>
      <trkpt lat="44.3653" lon="4.15724">
        <ele>284.136</ele>
        <time>2014-05-04T12:14:18.769Z</time>
      </trkpt>
      <trkpt lat="44.36524" lon="4.15735">
        <ele>281.917</ele>
        <time>2014-05-04T12:14:30.716Z</time>
      </trkpt>
      <trkpt lat="44.36519" lon="4.15745">
        <ele>277.269</ele>
        <time>2014-05-04T12:14:40.706Z</time>
      </trkpt>
      <trkpt lat="44.36515" lon="4.15757">
        <ele>272.655</ele>
        <time>2014-05-04T12:14:50.264Z</time>
      </trkpt>
      <trkpt lat="44.3651" lon="4.15768">
        <ele>270.8</ele>
        <time>2014-05-04T12:15:00.206Z</time>
      </trkpt>
      <trkpt lat="44.36507" lon="4.1578">
        <ele>271.312</ele>
        <time>2014-05-04T12:15:10.077Z</time>
      </trkpt>
      <trkpt lat="44.36508" lon="4.15793">
        <ele>272.464</ele>
        <time>2014-05-04T12:15:20.113Z</time>
      </trkpt>
      <trkpt lat="44.36515" lon="4.15802">
        <ele>272.659</ele>
        <time>2014-05-04T12:15:30.817Z</time>
      </trkpt>
      <trkpt lat="44.36521" lon="4.15812">
        <ele>271.753</ele>
        <time>2014-05-04T12:15:42.704Z</time>
      </trkpt>
      <trkpt lat="44.36521" lon="4.15826">
        <ele>270.732</ele>
        <time>2014-05-04T12:15:58.991Z</time>
      </trkpt>
      <trkpt lat="44.36525" lon="4.15841">
        <ele>270.271</ele>
        <time>2014-05-04T12:16:15.214Z</time>
      </trkpt>
      <trkpt lat="44.36532" lon="4.1585">
        <ele>269.927</ele>
        <time>2014-05-04T12:16:30.652Z</time>
      </trkpt>
      <trkpt lat="44.36545" lon="4.15853">
        <ele>268.69</ele>
        <time>2014-05-04T12:16:50.455Z</time>
      </trkpt>
      <trkpt lat="44.36554" lon="4.15857">
        <ele>266.502</ele>
        <time>2014-05-04T12:17:01.124Z</time>
      </trkpt>
      <trkpt lat="44.36563" lon="4.15865">
        <ele>264.633</ele>
        <time>2014-05-04T12:17:16.179Z</time>
      </trkpt>
      <trkpt lat="44.36572" lon="4.1587">
        <ele>263.294</ele>
        <time>2014-05-04T12:17:34.069Z</time>
      </trkpt>
      <trkpt lat="44.3658" lon="4.15878">
        <ele>261.79</ele>
        <time>2014-05-04T12:17:46.055Z</time>
      </trkpt>
      <trkpt lat="44.36589" lon="4.15882">
        <ele>259.656</ele>
        <time>2014-05-04T12:17:57.446Z</time>
      </trkpt>
      <trkpt lat="44.36596" lon="4.15889">
        <ele>255.949</ele>
        <time>2014-05-04T12:18:10.614Z</time>
      </trkpt>
      <trkpt lat="44.36601" lon="4.159">
        <ele>251.091</ele>
        <time>2014-05-04T12:18:24.230Z</time>
      </trkpt>
      <trkpt lat="44.36606" lon="4.15912">
        <ele>248.05</ele>
        <time>2014-05-04T12:18:38.004Z</time>
      </trkpt>
      <trkpt lat="44.36612" lon="4.15922">
        <ele>248.175</ele>
        <time>2014-05-04T12:18:52.027Z</time>
      </trkpt>
      <trkpt lat="44.36618" lon="4.15933">
        <ele>248.727</ele>
        <time>2014-05-04T12:19:06.860Z</time>
      </trkpt>
      <trkpt lat="44.36623" lon="4.15943">
        <ele>247.325</ele>
        <time>2014-05-04T12:19:18.766Z</time>
      </trkpt>
      <trkpt lat="44.36629" lon="4.15954">
        <ele>245.493</ele>
        <time>2014-05-04T12:19:30.468Z</time>
      </trkpt>
      <trkpt lat="44.36634" lon="4.15965">
        <ele>245.15</ele>
        <time>2014-05-04T12:19:42.106Z</time>
      </trkpt>
      <trkpt lat="44.36638" lon="4.15976">
        <ele>244.818</ele>
        <time>2014-05-04T12:19:53.676Z</time>
      </trkpt>
      <trkpt lat="44.36643" lon="4.15988">
        <ele>242.85</ele>
        <time>2014-05-04T12:20:06.073Z</time>
      </trkpt>
      <trkpt lat="44.36649" lon="4.15997">
        <ele>239.581</ele>
        <time>2014-05-04T12:20:17.927Z</time>
      </trkpt>
      <trkpt lat="44.36657" lon="4.16002">
        <ele>235.676</ele>
        <time>2014-05-04T12:20:28.240Z</time>
      </trkpt>
      <trkpt lat="44.36666" lon="4.16008">
        <ele>232.049</ele>
        <time>2014-05-04T12:20:38.367Z</time>
      </trkpt>
      <trkpt lat="44.36673" lon="4.16016">
        <ele>230.48</ele>
        <time>2014-05-04T12:20:48.863Z</time>
      </trkpt>
      <trkpt lat="44.36673" lon="4.16016">
        <ele>231.237</ele>
        <time>2014-05-04T12:21:18.877Z</time>
      </trkpt>
      <trkpt lat="44.36673" lon="4.16016">
        <ele>232.371</ele>
        <time>2014-05-04T12:24:01.759Z</time>
      </trkpt>
      <trkpt lat="44.36682" lon="4.16021">
        <ele>232.215</ele>
        <time>2014-05-04T12:24:50.114Z</time>
      </trkpt>
      <trkpt lat="44.36689" lon="4.16012">
        <ele>230.763</ele>
        <time>2014-05-04T12:25:01.464Z</time>
      </trkpt>
      <trkpt lat="44.36692" lon="4.16">
        <ele>228.786</ele>
        <time>2014-05-04T12:25:10.105Z</time>
      </trkpt>
      <trkpt lat="44.36692" lon="4.15987">
        <ele>227.268</ele>
        <time>2014-05-04T12:25:17.926Z</time>
      </trkpt>
      <trkpt lat="44.36693" lon="4.15974">
        <ele>226.986</ele>
        <time>2014-05-04T12:25:25.408Z</time>
      </trkpt>
      <trkpt lat="44.36696" lon="4.15961">
        <ele>227.559</ele>
        <time>2014-05-04T12:25:34.532Z</time>
      </trkpt>
      <trkpt lat="44.36702" lon="4.1595">
        <ele>228.033</ele>
        <time>2014-05-04T12:25:44.456Z</time>
      </trkpt>
      <trkpt lat="44.36702" lon="4.15936">
        <ele>228.057</ele>
        <time>2014-05-04T12:25:53.528Z</time>
      </trkpt>
      <trkpt lat="44.36703" lon="4.15922">
        <ele>227.946</ele>
        <time>2014-05-04T12:26:03.155Z</time>
      </trkpt>
      <trkpt lat="44.36707" lon="4.15905">
        <ele>227.773</ele>
        <time>2014-05-04T12:26:17.842Z</time>
      </trkpt>
      <trkpt lat="44.3671" lon="4.15889">
        <ele>227.501</ele>
        <time>2014-05-04T12:26:28.209Z</time>
      </trkpt>
      <trkpt lat="44.36714" lon="4.15877">
        <ele>227.138</ele>
        <time>2014-05-04T12:26:36.351Z</time>
      </trkpt>
      <trkpt lat="44.36714" lon="4.15861">
        <ele>226.225</ele>
        <time>2014-05-04T12:26:47.421Z</time>
      </trkpt>
      <trkpt lat="44.36726" lon="4.15855">
        <ele>224.543</ele>
        <time>2014-05-04T12:27:03.871Z</time>
      </trkpt>
      <trkpt lat="44.36734" lon="4.15849">
        <ele>223.678</ele>
        <time>2014-05-04T12:27:25.735Z</time>
      </trkpt>
      <trkpt lat="44.36739" lon="4.15837">
        <ele>225.484</ele>
        <time>2014-05-04T12:27:53.068Z</time>
      </trkpt>
      <trkpt lat="44.36738" lon="4.15824">
        <ele>229.093</ele>
        <time>2014-05-04T12:28:09.053Z</time>
      </trkpt>
      <trkpt lat="44.36743" lon="4.15813">
        <ele>232.394</ele>
        <time>2014-05-04T12:28:23.528Z</time>
      </trkpt>
      <trkpt lat="44.3675" lon="4.15804">
        <ele>234.565</ele>
        <time>2014-05-04T12:28:38.061Z</time>
      </trkpt>
      <trkpt lat="44.36754" lon="4.15792">
        <ele>235.726</ele>
        <time>2014-05-04T12:28:53.355Z</time>
      </trkpt>
      <trkpt lat="44.36752" lon="4.15775">
        <ele>236.218</ele>
        <time>2014-05-04T12:29:13.972Z</time>
      </trkpt>
      <trkpt lat="44.36759" lon="4.15766">
        <ele>236.836</ele>
        <time>2014-05-04T12:29:33.330Z</time>
      </trkpt>
      <trkpt lat="44.36768" lon="4.15763">
        <ele>237.967</ele>
        <time>2014-05-04T12:29:54.088Z</time>
      </trkpt>
      <trkpt lat="44.36775" lon="4.15753">
        <ele>239.615</ele>
        <time>2014-05-04T12:30:12.781Z</time>
      </trkpt>
      <trkpt lat="44.36783" lon="4.15745">
        <ele>241.873</ele>
        <time>2014-05-04T12:30:31.310Z</time>
      </trkpt>
      <trkpt lat="44.36792" lon="4.15742">
        <ele>244.817</ele>
        <time>2014-05-04T12:30:49.829Z</time>
      </trkpt>
      <trkpt lat="44.36797" lon="4.15732">
        <ele>247.822</ele>
        <time>2014-05-04T12:31:08.875Z</time>
      </trkpt>
      <trkpt lat="44.36797" lon="4.15732">
        <ele>249.886</ele>
        <time>2014-05-04T12:31:21.874Z</time>
      </trkpt>
      <trkpt lat="44.36797" lon="4.15732">
        <ele>250.557</ele>
        <time>2014-05-04T12:31:21.974Z</time>
      </trkpt>
      <trkpt lat="44.36806" lon="4.15719">
        <ele>250.321</ele>
        <time>2014-05-04T12:31:42.115Z</time>
      </trkpt>
      <trkpt lat="44.36808" lon="4.15706">
        <ele>250.292</ele>
        <time>2014-05-04T12:31:53.426Z</time>
      </trkpt>
      <trkpt lat="44.36813" lon="4.15695">
        <ele>251.122</ele>
        <time>2014-05-04T12:32:02.443Z</time>
      </trkpt>
      <trkpt lat="44.3681" lon="4.15683">
        <ele>252.46</ele>
        <time>2014-05-04T12:32:13.101Z</time>
      </trkpt>
      <trkpt lat="44.36814" lon="4.15672">
        <ele>253.856</ele>
        <time>2014-05-04T12:32:24.095Z</time>
      </trkpt>
      <trkpt lat="44.36816" lon="4.15657">
        <ele>255.228</ele>
        <time>2014-05-04T12:32:37.355Z</time>
      </trkpt>
      <trkpt lat="44.36818" lon="4.15644">
        <ele>257.033</ele>
        <time>2014-05-04T12:32:46.862Z</time>
      </trkpt>
      <trkpt lat="44.36818" lon="4.15644">
        <ele>259.428</ele>
        <time>2014-05-04T12:32:56.877Z</time>
      </trkpt>
      <trkpt lat="44.36818" lon="4.15644">
        <ele>260.997</ele>
        <time>2014-05-04T12:32:56.977Z</time>
      </trkpt>
      <trkpt lat="44.36823" lon="4.15632">
        <ele>259.865</ele>
        <time>2014-05-04T12:33:14.111Z</time>
      </trkpt>
      <trkpt lat="44.36831" lon="4.15625">
        <ele>258.954</ele>
        <time>2014-05-04T12:33:24.247Z</time>
      </trkpt>
      <trkpt lat="44.36835" lon="4.15613">
        <ele>258.079</ele>
        <time>2014-05-04T12:33:34.791Z</time>
      </trkpt>
      <trkpt lat="44.36839" lon="4.15601">
        <ele>257.524</ele>
        <time>2014-05-04T12:33:46.062Z</time>
      </trkpt>
      <trkpt lat="44.36844" lon="4.1559">
        <ele>258.04</ele>
        <time>2014-05-04T12:34:01.870Z</time>
      </trkpt>
      <trkpt lat="44.36844" lon="4.1559">
        <ele>259.631</ele>
        <time>2014-05-04T12:34:11.861Z</time>
      </trkpt>
      <trkpt lat="44.36844" lon="4.1559">
        <ele>260.865</ele>
        <time>2014-05-04T12:34:12.511Z</time>
      </trkpt>
      <trkpt lat="44.36844" lon="4.15577">
        <ele>259.946</ele>
        <time>2014-05-04T12:34:29.869Z</time>
      </trkpt>
      <trkpt lat="44.36844" lon="4.15577">
        <ele>259.396</ele>
        <time>2014-05-04T12:34:34.877Z</time>
      </trkpt>
      <trkpt lat="44.36844" lon="4.15577">
        <ele>259.173</ele>
        <time>2014-05-04T12:36:11.492Z</time>
      </trkpt>
      <trkpt lat="44.36865" lon="4.15577">
        <ele>259.178</ele>
        <time>2014-05-04T12:37:10.868Z</time>
      </trkpt>
      <trkpt lat="44.36865" lon="4.15577">
        <ele>259.277</ele>
        <time>2014-05-04T12:37:14.864Z</time>
      </trkpt>
      <trkpt lat="44.36865" lon="4.15577">
        <ele>259.269</ele>
        <time>2014-05-04T12:37:21.614Z</time>
      </trkpt>
      <trkpt lat="44.3685" lon="4.15565">
        <ele>259.129</ele>
        <time>2014-05-04T12:40:03.982Z</time>
      </trkpt>
      <trkpt lat="44.36857" lon="4.15557">
        <ele>261.621</ele>
        <time>2014-05-04T12:40:14.450Z</time>
      </trkpt>
      <trkpt lat="44.36863" lon="4.15547">
        <ele>268.374</ele>
        <time>2014-05-04T12:40:26.393Z</time>
      </trkpt>
      <trkpt lat="44.36872" lon="4.15543">
        <ele>275.107</ele>
        <time>2014-05-04T12:40:41.428Z</time>
      </trkpt>
      <trkpt lat="44.36882" lon="4.15536">
        <ele>277.746</ele>
        <time>2014-05-04T12:40:57.247Z</time>
      </trkpt>
      <trkpt lat="44.36887" lon="4.15526">
        <ele>277.188</ele>
        <time>2014-05-04T12:41:06.258Z</time>
      </trkpt>
      <trkpt lat="44.36884" lon="4.15512">
        <ele>275.426</ele>
        <time>2014-05-04T12:41:15.993Z</time>
      </trkpt>
      <trkpt lat="44.36892" lon="4.15507">
        <ele>273.978</ele>
        <time>2014-05-04T12:41:25.286Z</time>
      </trkpt>
      <trkpt lat="44.369" lon="4.15499">
        <ele>274.596</ele>
        <time>2014-05-04T12:41:34.664Z</time>
      </trkpt>
      <trkpt lat="44.36906" lon="4.15489">
        <ele>277.686</ele>
        <time>2014-05-04T12:41:45.236Z</time>
      </trkpt>
      <trkpt lat="44.36915" lon="4.15492">
        <ele>281.026</ele>
        <time>2014-05-04T12:41:57.144Z</time>
      </trkpt>
      <trkpt lat="44.36923" lon="4.15499">
        <ele>282.953</ele>
        <time>2014-05-04T12:42:09.065Z</time>
      </trkpt>
      <trkpt lat="44.36931" lon="4.15506">
        <ele>283.995</ele>
        <time>2014-05-04T12:42:22.156Z</time>
      </trkpt>
      <trkpt lat="44.36932" lon="4.15521">
        <ele>284.506</ele>
        <time>2014-05-04T12:42:37.126Z</time>
      </trkpt>
      <trkpt lat="44.36928" lon="4.15532">
        <ele>284.558</ele>
        <time>2014-05-04T12:42:50.871Z</time>
      </trkpt>
      <trkpt lat="44.36928" lon="4.15532">
        <ele>284.424</ele>
        <time>2014-05-04T12:43:00.865Z</time>
      </trkpt>
      <trkpt lat="44.36928" lon="4.15532">
        <ele>284.292</ele>
        <time>2014-05-04T12:43:00.965Z</time>
      </trkpt>
      <trkpt lat="44.36928" lon="4.15532">
        <ele>284.14</ele>
        <time>2014-05-04T12:43:19.863Z</time>
      </trkpt>
      <trkpt lat="44.36928" lon="4.15532">
        <ele>284.068</ele>
        <time>2014-05-04T12:44:53.500Z</time>
      </trkpt>
      <trkpt lat="44.36923" lon="4.15565">
        <ele>283.976</ele>
        <time>2014-05-04T12:46:49.868Z</time>
      </trkpt>
      <trkpt lat="44.36923" lon="4.15565">
        <ele>283.888</ele>
        <time>2014-05-04T12:46:53.866Z</time>
      </trkpt>
      <trkpt lat="44.36923" lon="4.15565">
        <ele>283.809</ele>
        <time>2014-05-04T12:46:53.966Z</time>
      </trkpt>
      <trkpt lat="44.36925" lon="4.15578">
        <ele>283.616</ele>
        <time>2014-05-04T12:47:23.666Z</time>
      </trkpt>
      <trkpt lat="44.3692" lon="4.1559">
        <ele>284.573</ele>
        <time>2014-05-04T12:47:33.516Z</time>
      </trkpt>
      <trkpt lat="44.36917" lon="4.15603">
        <ele>287.198</ele>
        <time>2014-05-04T12:47:41.881Z</time>
      </trkpt>
      <trkpt lat="44.36911" lon="4.15613">
        <ele>289.758</ele>
        <time>2014-05-04T12:47:49.865Z</time>
      </trkpt>
      <trkpt lat="44.36911" lon="4.15613">
        <ele>290.613</ele>
        <time>2014-05-04T12:48:05.865Z</time>
      </trkpt>
      <trkpt lat="44.36911" lon="4.15613">
        <ele>290.342</ele>
        <time>2014-05-04T12:48:05.965Z</time>
      </trkpt>
      <trkpt lat="44.36906" lon="4.15629">
        <ele>289.995</ele>
        <time>2014-05-04T12:48:18.865Z</time>
      </trkpt>
      <trkpt lat="44.36906" lon="4.15629">
        <ele>289.976</ele>
        <time>2014-05-04T12:48:44.864Z</time>
      </trkpt>
      <trkpt lat="44.36906" lon="4.15629">
        <ele>290.046</ele>
        <time>2014-05-04T12:48:44.964Z</time>
      </trkpt>
      <trkpt lat="44.36897" lon="4.15641">
        <ele>289.946</ele>
        <time>2014-05-04T12:49:25.453Z</time>
      </trkpt>
      <trkpt lat="44.36891" lon="4.15651">
        <ele>290.531</ele>
        <time>2014-05-04T12:49:34.474Z</time>
      </trkpt>
      <trkpt lat="44.3689" lon="4.15663">
        <ele>292.481</ele>
        <time>2014-05-04T12:49:42.867Z</time>
      </trkpt>
      <trkpt lat="44.3689" lon="4.15663">
        <ele>294.67</ele>
        <time>2014-05-04T12:49:50.864Z</time>
      </trkpt>
      <trkpt lat="44.3689" lon="4.15663">
        <ele>295.641</ele>
        <time>2014-05-04T12:49:50.964Z</time>
      </trkpt>
      <trkpt lat="44.36885" lon="4.15674">
        <ele>294.765</ele>
        <time>2014-05-04T12:50:12.620Z</time>
      </trkpt>
      <trkpt lat="44.3689" lon="4.15685">
        <ele>294.361</ele>
        <time>2014-05-04T12:50:25.811Z</time>
      </trkpt>
      <trkpt lat="44.36891" lon="4.15698">
        <ele>294.687</ele>
        <time>2014-05-04T12:50:36.864Z</time>
      </trkpt>
      <trkpt lat="44.36891" lon="4.15698">
        <ele>295.851</ele>
        <time>2014-05-04T12:50:41.865Z</time>
      </trkpt>
      <trkpt lat="44.36891" lon="4.15698">
        <ele>296.787</ele>
        <time>2014-05-04T12:52:42.868Z</time>
      </trkpt>
      <trkpt lat="44.36891" lon="4.15698">
        <ele>296.648</ele>
        <time>2014-05-04T12:52:59.867Z</time>
      </trkpt>
      <trkpt lat="44.36891" lon="4.15698">
        <ele>296.113</ele>
        <time>2014-05-04T12:55:02.870Z</time>
      </trkpt>
      <trkpt lat="44.36891" lon="4.15698">
        <ele>295.954</ele>
        <time>2014-05-04T12:55:34.507Z</time>
      </trkpt>
      <trkpt lat="44.36888" lon="4.15681">
        <ele>296.023</ele>
        <time>2014-05-04T12:56:37.030Z</time>
      </trkpt>
      <trkpt lat="44.36887" lon="4.15668">
        <ele>295.983</ele>
        <time>2014-05-04T12:56:47.050Z</time>
      </trkpt>
      <trkpt lat="44.36892" lon="4.15657">
        <ele>295.961</ele>
        <time>2014-05-04T12:56:56.325Z</time>
      </trkpt>
      <trkpt lat="44.36898" lon="4.15646">
        <ele>296.68</ele>
        <time>2014-05-04T12:57:05.544Z</time>
      </trkpt>
      <trkpt lat="44.36904" lon="4.15636">
        <ele>297.951</ele>
        <time>2014-05-04T12:57:14.275Z</time>
      </trkpt>
      <trkpt lat="44.36907" lon="4.15624">
        <ele>298.55</ele>
        <time>2014-05-04T12:57:22.864Z</time>
      </trkpt>
      <trkpt lat="44.36907" lon="4.15624">
        <ele>298.266</ele>
        <time>2014-05-04T12:57:34.874Z</time>
      </trkpt>
      <trkpt lat="44.36907" lon="4.15624">
        <ele>297.914</ele>
        <time>2014-05-04T12:57:34.974Z</time>
      </trkpt>
      <trkpt lat="44.36907" lon="4.15624">
        <ele>297.823</ele>
        <time>2014-05-04T12:57:57.867Z</time>
      </trkpt>
      <trkpt lat="44.36907" lon="4.15624">
        <ele>297.826</ele>
        <time>2014-05-04T12:57:57.967Z</time>
      </trkpt>
      <trkpt lat="44.36902" lon="4.15636">
        <ele>297.55</ele>
        <time>2014-05-04T13:00:38.653Z</time>
      </trkpt>
      <trkpt lat="44.36902" lon="4.15636">
        <ele>297.55</ele>
        <time>2014-05-04T13:00:38.653Z</time>
      </trkpt>
      <trkpt lat="44.36897" lon="4.15626">
        <ele>291.854</ele>
        <time>2014-05-04T13:03:02.972Z</time>
      </trkpt>
      <trkpt lat="44.36891" lon="4.15635">
        <ele>291.719</ele>
        <time>2014-05-04T13:03:32.363Z</time>
      </trkpt>
      <trkpt lat="44.36885" lon="4.15646">
        <ele>291.669</ele>
        <time>2014-05-04T13:03:49.489Z</time>
      </trkpt>
      <trkpt lat="44.36876" lon="4.15638">
        <ele>290.759</ele>
        <time>2014-05-04T13:04:04.867Z</time>
      </trkpt>
      <trkpt lat="44.36876" lon="4.15638">
        <ele>288.403</ele>
        <time>2014-05-04T13:04:23.868Z</time>
      </trkpt>
      <trkpt lat="44.36876" lon="4.15638">
        <ele>286.388</ele>
        <time>2014-05-04T13:04:51.867Z</time>
      </trkpt>
      <trkpt lat="44.36876" lon="4.15638">
        <ele>286.302</ele>
        <time>2014-05-04T13:04:57.870Z</time>
      </trkpt>
      <trkpt lat="44.36867" lon="4.1563">
        <ele>294.21</ele>
        <time>2014-05-04T13:05:18.931Z</time>
      </trkpt>
      <trkpt lat="44.3687" lon="4.15614">
        <ele>294.074</ele>
        <time>2014-05-04T13:05:29.074Z</time>
      </trkpt>
      <trkpt lat="44.36874" lon="4.15602">
        <ele>293.855</ele>
        <time>2014-05-04T13:05:35.865Z</time>
      </trkpt>
      <trkpt lat="44.36874" lon="4.15602">
        <ele>293.415</ele>
        <time>2014-05-04T13:05:55.868Z</time>
      </trkpt>
      <trkpt lat="44.36874" lon="4.15602">
        <ele>293.012</ele>
        <time>2014-05-04T13:05:55.968Z</time>
      </trkpt>
      <trkpt lat="44.36869" lon="4.15586">
        <ele>292.961</ele>
        <time>2014-05-04T13:06:49.984Z</time>
      </trkpt>
      <trkpt lat="44.36873" lon="4.15574">
        <ele>291.22</ele>
        <time>2014-05-04T13:06:58.432Z</time>
      </trkpt>
      <trkpt lat="44.36873" lon="4.1556">
        <ele>285.504</ele>
        <time>2014-05-04T13:07:07.483Z</time>
      </trkpt>
      <trkpt lat="44.36876" lon="4.15548">
        <ele>277.955</ele>
        <time>2014-05-04T13:07:16.701Z</time>
      </trkpt>
      <trkpt lat="44.36867" lon="4.15556">
        <ele>272.595</ele>
        <time>2014-05-04T13:07:27.012Z</time>
      </trkpt>
      <trkpt lat="44.3686" lon="4.15566">
        <ele>270.162</ele>
        <time>2014-05-04T13:07:36.779Z</time>
      </trkpt>
      <trkpt lat="44.36848" lon="4.15569">
        <ele>269.431</ele>
        <time>2014-05-04T13:07:49.957Z</time>
      </trkpt>
      <trkpt lat="44.3684" lon="4.15558">
        <ele>269.107</ele>
        <time>2014-05-04T13:08:06.413Z</time>
      </trkpt>
      <trkpt lat="44.3683" lon="4.15552">
        <ele>268.266</ele>
        <time>2014-05-04T13:08:22.076Z</time>
      </trkpt>
      <trkpt lat="44.36825" lon="4.15539">
        <ele>266.253</ele>
        <time>2014-05-04T13:08:29.580Z</time>
      </trkpt>
      <trkpt lat="44.36826" lon="4.15526">
        <ele>262.352</ele>
        <time>2014-05-04T13:08:35.891Z</time>
      </trkpt>
      <trkpt lat="44.36826" lon="4.1551">
        <ele>257.438</ele>
        <time>2014-05-04T13:08:44.082Z</time>
      </trkpt>
      <trkpt lat="44.36823" lon="4.15497">
        <ele>254.228</ele>
        <time>2014-05-04T13:08:52.072Z</time>
      </trkpt>
      <trkpt lat="44.36823" lon="4.15483">
        <ele>254.887</ele>
        <time>2014-05-04T13:08:59.931Z</time>
      </trkpt>
      <trkpt lat="44.36827" lon="4.15472">
        <ele>258.656</ele>
        <time>2014-05-04T13:09:07.371Z</time>
      </trkpt>
      <trkpt lat="44.36826" lon="4.15458">
        <ele>262.295</ele>
        <time>2014-05-04T13:09:14.870Z</time>
      </trkpt>
      <trkpt lat="44.36826" lon="4.15458">
        <ele>263.624</ele>
        <time>2014-05-04T13:09:28.872Z</time>
      </trkpt>
      <trkpt lat="44.36826" lon="4.15458">
        <ele>263.37</ele>
        <time>2014-05-04T13:09:28.972Z</time>
      </trkpt>
      <trkpt lat="44.36832" lon="4.15447">
        <ele>262.974</ele>
        <time>2014-05-04T13:09:55.870Z</time>
      </trkpt>
      <trkpt lat="44.36832" lon="4.15447">
        <ele>263.162</ele>
        <time>2014-05-04T13:10:10.870Z</time>
      </trkpt>
      <trkpt lat="44.36832" lon="4.15447">
        <ele>263.236</ele>
        <time>2014-05-04T13:10:10.970Z</time>
      </trkpt>
      <trkpt lat="44.36835" lon="4.15434">
        <ele>262.948</ele>
        <time>2014-05-04T13:10:28.190Z</time>
      </trkpt>
      <trkpt lat="44.36833" lon="4.15422">
        <ele>263.521</ele>
        <time>2014-05-04T13:10:38.806Z</time>
      </trkpt>
      <trkpt lat="44.36831" lon="4.15405">
        <ele>265.243</ele>
        <time>2014-05-04T13:10:51.456Z</time>
      </trkpt>
      <trkpt lat="44.36824" lon="4.15395">
        <ele>265.524</ele>
        <time>2014-05-04T13:11:00.812Z</time>
      </trkpt>
      <trkpt lat="44.36832" lon="4.15406">
        <ele>261.744</ele>
        <time>2014-05-04T13:11:10.795Z</time>
      </trkpt>
      <trkpt lat="44.36839" lon="4.15414">
        <ele>254.735</ele>
        <time>2014-05-04T13:11:20.077Z</time>
      </trkpt>
      <trkpt lat="44.36849" lon="4.1542">
        <ele>247.45</ele>
        <time>2014-05-04T13:11:29.794Z</time>
      </trkpt>
      <trkpt lat="44.36859" lon="4.15422">
        <ele>243.209</ele>
        <time>2014-05-04T13:11:39.550Z</time>
      </trkpt>
      <trkpt lat="44.36869" lon="4.15426">
        <ele>243.157</ele>
        <time>2014-05-04T13:11:50.497Z</time>
      </trkpt>
      <trkpt lat="44.36878" lon="4.15426">
        <ele>245.176</ele>
        <time>2014-05-04T13:12:01.413Z</time>
      </trkpt>
      <trkpt lat="44.36881" lon="4.15414">
        <ele>247.131</ele>
        <time>2014-05-04T13:12:11.868Z</time>
      </trkpt>
      <trkpt lat="44.36881" lon="4.15414">
        <ele>248.222</ele>
        <time>2014-05-04T13:12:22.873Z</time>
      </trkpt>
      <trkpt lat="44.36881" lon="4.15414">
        <ele>248.457</ele>
        <time>2014-05-04T13:12:22.973Z</time>
      </trkpt>
      <trkpt lat="44.36886" lon="4.15425">
        <ele>248.123</ele>
        <time>2014-05-04T13:12:47.431Z</time>
      </trkpt>
      <trkpt lat="44.36894" lon="4.15418">
        <ele>246.832</ele>
        <time>2014-05-04T13:12:56.631Z</time>
      </trkpt>
      <trkpt lat="44.36903" lon="4.15416">
        <ele>244.501</ele>
        <time>2014-05-04T13:13:06.842Z</time>
      </trkpt>
      <trkpt lat="44.36916" lon="4.15416">
        <ele>242.389</ele>
        <time>2014-05-04T13:13:22.495Z</time>
      </trkpt>
      <trkpt lat="44.36926" lon="4.15415">
        <ele>242.225</ele>
        <time>2014-05-04T13:13:30.879Z</time>
      </trkpt>
      <trkpt lat="44.36933" lon="4.15427">
        <ele>247.907</ele>
        <time>2014-05-04T13:13:37.347Z</time>
      </trkpt>
      <trkpt lat="44.36938" lon="4.15439">
        <ele>260.269</ele>
        <time>2014-05-04T13:13:43.178Z</time>
      </trkpt>
      <trkpt lat="44.36946" lon="4.15449">
        <ele>272.729</ele>
        <time>2014-05-04T13:13:51.936Z</time>
      </trkpt>
      <trkpt lat="44.36957" lon="4.15461">
        <ele>279.749</ele>
        <time>2014-05-04T13:14:03.379Z</time>
      </trkpt>
      <trkpt lat="44.36961" lon="4.15476">
        <ele>281.982</ele>
        <time>2014-05-04T13:14:08.820Z</time>
      </trkpt>
      <trkpt lat="44.36967" lon="4.15486">
        <ele>281.533</ele>
        <time>2014-05-04T13:14:13.120Z</time>
      </trkpt>
      <trkpt lat="44.36971" lon="4.15497">
        <ele>280.093</ele>
        <time>2014-05-04T13:14:17.493Z</time>
      </trkpt>
      <trkpt lat="44.3698" lon="4.15499">
        <ele>278.588</ele>
        <time>2014-05-04T13:14:23.180Z</time>
      </trkpt>
      <trkpt lat="44.36991" lon="4.15505">
        <ele>277.344</ele>
        <time>2014-05-04T13:14:29.971Z</time>
      </trkpt>
      <trkpt lat="44.37002" lon="4.15507">
        <ele>275.603</ele>
        <time>2014-05-04T13:14:35.572Z</time>
      </trkpt>
      <trkpt lat="44.37011" lon="4.15507">
        <ele>272.329</ele>
        <time>2014-05-04T13:14:41.326Z</time>
      </trkpt>
      <trkpt lat="44.3702" lon="4.15508">
        <ele>267.875</ele>
        <time>2014-05-04T13:14:47.306Z</time>
      </trkpt>
      <trkpt lat="44.37026" lon="4.15518">
        <ele>260.151</ele>
        <time>2014-05-04T13:14:55.494Z</time>
      </trkpt>
      <trkpt lat="44.37033" lon="4.15526">
        <ele>248.107</ele>
        <time>2014-05-04T13:15:02.874Z</time>
      </trkpt>
      <trkpt lat="44.37033" lon="4.15526">
        <ele>237.405</ele>
        <time>2014-05-04T13:15:16.868Z</time>
      </trkpt>
      <trkpt lat="44.37033" lon="4.15526">
        <ele>233.179</ele>
        <time>2014-05-04T13:15:16.968Z</time>
      </trkpt>
      <trkpt lat="44.37042" lon="4.15533">
        <ele>235.707</ele>
        <time>2014-05-04T13:15:34.060Z</time>
      </trkpt>
      <trkpt lat="44.37053" lon="4.15541">
        <ele>235.967</ele>
        <time>2014-05-04T13:15:48.248Z</time>
      </trkpt>
      <trkpt lat="44.37061" lon="4.15551">
        <ele>232.46</ele>
        <time>2014-05-04T13:15:57.609Z</time>
      </trkpt>
      <trkpt lat="44.37068" lon="4.15561">
        <ele>226.017</ele>
        <time>2014-05-04T13:16:06.735Z</time>
      </trkpt>
      <trkpt lat="44.37075" lon="4.15573">
        <ele>219.934</ele>
        <time>2014-05-04T13:16:17.311Z</time>
      </trkpt>
      <trkpt lat="44.37079" lon="4.15585">
        <ele>216.003</ele>
        <time>2014-05-04T13:16:25.896Z</time>
      </trkpt>
      <trkpt lat="44.37083" lon="4.15598">
        <ele>213.41</ele>
        <time>2014-05-04T13:16:33.884Z</time>
      </trkpt>
      <trkpt lat="44.37083" lon="4.15598">
        <ele>211.346</ele>
        <time>2014-05-04T13:16:49.872Z</time>
      </trkpt>
      <trkpt lat="44.37083" lon="4.15598">
        <ele>210.233</ele>
        <time>2014-05-04T13:18:02.959Z</time>
      </trkpt>
      <trkpt lat="44.37092" lon="4.15616">
        <ele>210.24</ele>
        <time>2014-05-04T13:18:52.363Z</time>
      </trkpt>
      <trkpt lat="44.37097" lon="4.15627">
        <ele>210.695</ele>
        <time>2014-05-04T13:18:59.070Z</time>
      </trkpt>
      <trkpt lat="44.37099" lon="4.15641">
        <ele>210.462</ele>
        <time>2014-05-04T13:19:05.193Z</time>
      </trkpt>
      <trkpt lat="44.37097" lon="4.15654">
        <ele>208.694</ele>
        <time>2014-05-04T13:19:11.285Z</time>
      </trkpt>
      <trkpt lat="44.37092" lon="4.15665">
        <ele>206.095</ele>
        <time>2014-05-04T13:19:17.871Z</time>
      </trkpt>
      <trkpt lat="44.37092" lon="4.15665">
        <ele>204.393</ele>
        <time>2014-05-04T13:19:25.868Z</time>
      </trkpt>
      <trkpt lat="44.37092" lon="4.15665">
        <ele>204.163</ele>
        <time>2014-05-04T13:19:25.968Z</time>
      </trkpt>
      <trkpt lat="44.37096" lon="4.1568">
        <ele>204.734</ele>
        <time>2014-05-04T13:19:49.606Z</time>
      </trkpt>
      <trkpt lat="44.37099" lon="4.15693">
        <ele>205.168</ele>
        <time>2014-05-04T13:19:57.362Z</time>
      </trkpt>
      <trkpt lat="44.37101" lon="4.15706">
        <ele>204.872</ele>
        <time>2014-05-04T13:20:04.537Z</time>
      </trkpt>
      <trkpt lat="44.37104" lon="4.15718">
        <ele>203.87</ele>
        <time>2014-05-04T13:20:11.774Z</time>
      </trkpt>
      <trkpt lat="44.37105" lon="4.15731">
        <ele>202.394</ele>
        <time>2014-05-04T13:20:18.918Z</time>
      </trkpt>
      <trkpt lat="44.37109" lon="4.15742">
        <ele>200.791</ele>
        <time>2014-05-04T13:20:27.573Z</time>
      </trkpt>
      <trkpt lat="44.37113" lon="4.15755">
        <ele>199.533</ele>
        <time>2014-05-04T13:20:38.894Z</time>
      </trkpt>
      <trkpt lat="44.37113" lon="4.15755">
        <ele>198.863</ele>
        <time>2014-05-04T13:20:42.869Z</time>
      </trkpt>
      <trkpt lat="44.37113" lon="4.15755">
        <ele>198.691</ele>
        <time>2014-05-04T13:20:42.966Z</time>
      </trkpt>
      <trkpt lat="44.37119" lon="4.15765">
        <ele>198.671</ele>
        <time>2014-05-04T13:20:55.876Z</time>
      </trkpt>
      <trkpt lat="44.37119" lon="4.15765">
        <ele>198.642</ele>
        <time>2014-05-04T13:21:03.870Z</time>
      </trkpt>
      <trkpt lat="44.37119" lon="4.15765">
        <ele>198.603</ele>
        <time>2014-05-04T13:21:03.970Z</time>
      </trkpt>
      <trkpt lat="44.37124" lon="4.15781">
        <ele>198.45</ele>
        <time>2014-05-04T13:21:32.211Z</time>
      </trkpt>
      <trkpt lat="44.37126" lon="4.15794">
        <ele>198.215</ele>
        <time>2014-05-04T13:21:39.433Z</time>
      </trkpt>
      <trkpt lat="44.37132" lon="4.15807">
        <ele>197.592</ele>
        <time>2014-05-04T13:21:48.021Z</time>
      </trkpt>
      <trkpt lat="44.37139" lon="4.15818">
        <ele>196.794</ele>
        <time>2014-05-04T13:21:56.970Z</time>
      </trkpt>
      <trkpt lat="44.37147" lon="4.15825">
        <ele>195.025</ele>
        <time>2014-05-04T13:22:04.348Z</time>
      </trkpt>
      <trkpt lat="44.37155" lon="4.15833">
        <ele>191.541</ele>
        <time>2014-05-04T13:22:11.634Z</time>
      </trkpt>
      <trkpt lat="44.37164" lon="4.15838">
        <ele>188.024</ele>
        <time>2014-05-04T13:22:19.131Z</time>
      </trkpt>
      <trkpt lat="44.37174" lon="4.15845">
        <ele>186.4</ele>
        <time>2014-05-04T13:22:29.726Z</time>
      </trkpt>
      <trkpt lat="44.37181" lon="4.15855">
        <ele>186.396</ele>
        <time>2014-05-04T13:22:37.869Z</time>
      </trkpt>
      <trkpt lat="44.37181" lon="4.15855">
        <ele>186.759</ele>
        <time>2014-05-04T13:22:53.874Z</time>
      </trkpt>
      <trkpt lat="44.37181" lon="4.15855">
        <ele>186.492</ele>
        <time>2014-05-04T13:22:53.974Z</time>
      </trkpt>
      <trkpt lat="44.37192" lon="4.15858">
        <ele>186.398</ele>
        <time>2014-05-04T13:23:39.226Z</time>
      </trkpt>
      <trkpt lat="44.37203" lon="4.15857">
        <ele>186.481</ele>
        <time>2014-05-04T13:23:50.590Z</time>
      </trkpt>
      <trkpt lat="44.37212" lon="4.15857">
        <ele>186.772</ele>
        <time>2014-05-04T13:23:58.783Z</time>
      </trkpt>
      <trkpt lat="44.37221" lon="4.15856">
        <ele>187.126</ele>
        <time>2014-05-04T13:24:07.404Z</time>
      </trkpt>
      <trkpt lat="44.3723" lon="4.15863">
        <ele>186.708</ele>
        <time>2014-05-04T13:24:18.327Z</time>
      </trkpt>
      <trkpt lat="44.37235" lon="4.15874">
        <ele>185.272</ele>
        <time>2014-05-04T13:24:26.855Z</time>
      </trkpt>
      <trkpt lat="44.37235" lon="4.15889">
        <ele>184.031</ele>
        <time>2014-05-04T13:24:35.206Z</time>
      </trkpt>
      <trkpt lat="44.37236" lon="4.15903">
        <ele>184.36</ele>
        <time>2014-05-04T13:24:46.124Z</time>
      </trkpt>
      <trkpt lat="44.37234" lon="4.15921">
        <ele>183.756</ele>
        <time>2014-05-04T13:25:01.686Z</time>
      </trkpt>
      <trkpt lat="44.3723" lon="4.15939">
        <ele>182.092</ele>
        <time>2014-05-04T13:25:14.483Z</time>
      </trkpt>
      <trkpt lat="44.37242" lon="4.15946">
        <ele>179.339</ele>
        <time>2014-05-04T13:25:23.246Z</time>
      </trkpt>
      <trkpt lat="44.37251" lon="4.15952">
        <ele>176.656</ele>
        <time>2014-05-04T13:25:29.735Z</time>
      </trkpt>
      <trkpt lat="44.3726" lon="4.15957">
        <ele>175.004</ele>
        <time>2014-05-04T13:25:36.364Z</time>
      </trkpt>
      <trkpt lat="44.37268" lon="4.15964">
        <ele>174.386</ele>
        <time>2014-05-04T13:25:43.309Z</time>
      </trkpt>
      <trkpt lat="44.37276" lon="4.15972">
        <ele>174.192</ele>
        <time>2014-05-04T13:25:51.234Z</time>
      </trkpt>
      <trkpt lat="44.37277" lon="4.15986">
        <ele>173.709</ele>
        <time>2014-05-04T13:26:00.436Z</time>
      </trkpt>
      <trkpt lat="44.37275" lon="4.16001">
        <ele>173.085</ele>
        <time>2014-05-04T13:26:11.335Z</time>
      </trkpt>
      <trkpt lat="44.37277" lon="4.16018">
        <ele>172.731</ele>
        <time>2014-05-04T13:26:24.308Z</time>
      </trkpt>
      <trkpt lat="44.37276" lon="4.16033">
        <ele>172.492</ele>
        <time>2014-05-04T13:26:34.148Z</time>
      </trkpt>
      <trkpt lat="44.37273" lon="4.1605">
        <ele>172.18</ele>
        <time>2014-05-04T13:26:42.874Z</time>
      </trkpt>
      <trkpt lat="44.37273" lon="4.1605">
        <ele>171.944</ele>
        <time>2014-05-04T13:26:51.871Z</time>
      </trkpt>
      <trkpt lat="44.37273" lon="4.1605">
        <ele>171.836</ele>
        <time>2014-05-04T13:26:51.971Z</time>
      </trkpt>
      <trkpt lat="44.37272" lon="4.16063">
        <ele>171.753</ele>
        <time>2014-05-04T13:27:28.673Z</time>
      </trkpt>
      <trkpt lat="44.37273" lon="4.16079">
        <ele>170.967</ele>
        <time>2014-05-04T13:27:40.497Z</time>
      </trkpt>
      <trkpt lat="44.37275" lon="4.16093">
        <ele>168.779</ele>
        <time>2014-05-04T13:27:49.874Z</time>
      </trkpt>
      <trkpt lat="44.37275" lon="4.16093">
        <ele>166.434</ele>
        <time>2014-05-04T13:27:52.873Z</time>
      </trkpt>
      <trkpt lat="44.37275" lon="4.16093">
        <ele>165.456</ele>
        <time>2014-05-04T13:28:54.874Z</time>
      </trkpt>
      <trkpt lat="44.37275" lon="4.16093">
        <ele>165.586</ele>
        <time>2014-05-04T13:30:19.127Z</time>
      </trkpt>
      <trkpt lat="44.37283" lon="4.16104">
        <ele>165.739</ele>
        <time>2014-05-04T13:30:54.157Z</time>
      </trkpt>
      <trkpt lat="44.37292" lon="4.16106">
        <ele>165.274</ele>
        <time>2014-05-04T13:31:13.904Z</time>
      </trkpt>
      <trkpt lat="44.37302" lon="4.16107">
        <ele>164.422</ele>
        <time>2014-05-04T13:31:20.787Z</time>
      </trkpt>
      <trkpt lat="44.37313" lon="4.16109">
        <ele>163.569</ele>
        <time>2014-05-04T13:31:30.063Z</time>
      </trkpt>
      <trkpt lat="44.37322" lon="4.16113">
        <ele>163.142</ele>
        <time>2014-05-04T13:31:39.569Z</time>
      </trkpt>
      <trkpt lat="44.37331" lon="4.16118">
        <ele>162.737</ele>
        <time>2014-05-04T13:31:48.918Z</time>
      </trkpt>
      <trkpt lat="44.3734" lon="4.16121">
        <ele>162.057</ele>
        <time>2014-05-04T13:31:56.676Z</time>
      </trkpt>
      <trkpt lat="44.37349" lon="4.16124">
        <ele>161.496</ele>
        <time>2014-05-04T13:32:05.005Z</time>
      </trkpt>
      <trkpt lat="44.37359" lon="4.16127">
        <ele>161.418</ele>
        <time>2014-05-04T13:32:16.484Z</time>
      </trkpt>
      <trkpt lat="44.3737" lon="4.1613">
        <ele>161.793</ele>
        <time>2014-05-04T13:32:29.700Z</time>
      </trkpt>
      <trkpt lat="44.37379" lon="4.16135">
        <ele>162.031</ele>
        <time>2014-05-04T13:32:38.917Z</time>
      </trkpt>
      <trkpt lat="44.37388" lon="4.16137">
        <ele>161.021</ele>
        <time>2014-05-04T13:32:47.085Z</time>
      </trkpt>
      <trkpt lat="44.37397" lon="4.16139">
        <ele>158.704</ele>
        <time>2014-05-04T13:32:55.616Z</time>
      </trkpt>
      <trkpt lat="44.37407" lon="4.16142">
        <ele>157.062</ele>
        <time>2014-05-04T13:33:03.950Z</time>
      </trkpt>
      <trkpt lat="44.37417" lon="4.16149">
        <ele>157.509</ele>
        <time>2014-05-04T13:33:14.612Z</time>
      </trkpt>
      <trkpt lat="44.37426" lon="4.16157">
        <ele>158.895</ele>
        <time>2014-05-04T13:33:25.128Z</time>
      </trkpt>
      <trkpt lat="44.37431" lon="4.16169">
        <ele>159.466</ele>
        <time>2014-05-04T13:33:36.170Z</time>
      </trkpt>
      <trkpt lat="44.37439" lon="4.16175">
        <ele>158.879</ele>
        <time>2014-05-04T13:33:46.699Z</time>
      </trkpt>
      <trkpt lat="44.37447" lon="4.16183">
        <ele>157.932</ele>
        <time>2014-05-04T13:33:54.883Z</time>
      </trkpt>
      <trkpt lat="44.37453" lon="4.16193">
        <ele>157.345</ele>
        <time>2014-05-04T13:34:04.916Z</time>
      </trkpt>
      <trkpt lat="44.37461" lon="4.16202">
        <ele>157.324</ele>
        <time>2014-05-04T13:34:15.540Z</time>
      </trkpt>
      <trkpt lat="44.37471" lon="4.16206">
        <ele>157.828</ele>
        <time>2014-05-04T13:34:23.234Z</time>
      </trkpt>
      <trkpt lat="44.3748" lon="4.16208">
        <ele>159.59</ele>
        <time>2014-05-04T13:34:29.535Z</time>
      </trkpt>
      <trkpt lat="44.37489" lon="4.16214">
        <ele>162.871</ele>
        <time>2014-05-04T13:34:36.349Z</time>
      </trkpt>
      <trkpt lat="44.37499" lon="4.16218">
        <ele>165.346</ele>
        <time>2014-05-04T13:34:47.600Z</time>
      </trkpt>
      <trkpt lat="44.37509" lon="4.16226">
        <ele>164.851</ele>
        <time>2014-05-04T13:34:59.145Z</time>
      </trkpt>
      <trkpt lat="44.37516" lon="4.16235">
        <ele>161.585</ele>
        <time>2014-05-04T13:35:07.856Z</time>
      </trkpt>
      <trkpt lat="44.37527" lon="4.16237">
        <ele>156.791</ele>
        <time>2014-05-04T13:35:18.980Z</time>
      </trkpt>
      <trkpt lat="44.37536" lon="4.1624">
        <ele>152.521</ele>
        <time>2014-05-04T13:35:27.938Z</time>
      </trkpt>
      <trkpt lat="44.37549" lon="4.16247">
        <ele>150.388</ele>
        <time>2014-05-04T13:35:39.205Z</time>
      </trkpt>
      <trkpt lat="44.37557" lon="4.16256">
        <ele>150.227</ele>
        <time>2014-05-04T13:35:48.203Z</time>
      </trkpt>
      <trkpt lat="44.37567" lon="4.16263">
        <ele>151.157</ele>
        <time>2014-05-04T13:35:57.694Z</time>
      </trkpt>
      <trkpt lat="44.37577" lon="4.1627">
        <ele>152.499</ele>
        <time>2014-05-04T13:36:08.405Z</time>
      </trkpt>
      <trkpt lat="44.37586" lon="4.16274">
        <ele>153.759</ele>
        <time>2014-05-04T13:36:19.879Z</time>
      </trkpt>
      <trkpt lat="44.37586" lon="4.16274">
        <ele>154.398</ele>
        <time>2014-05-04T13:36:31.880Z</time>
      </trkpt>
      <trkpt lat="44.37586" lon="4.16274">
        <ele>154.276</ele>
        <time>2014-05-04T13:36:31.980Z</time>
      </trkpt>
      <trkpt lat="44.37586" lon="4.16274">
        <ele>153.92</ele>
        <time>2014-05-04T13:36:59.877Z</time>
      </trkpt>
      <trkpt lat="44.37586" lon="4.16274">
        <ele>154.008</ele>
        <time>2014-05-04T13:36:59.977Z</time>
      </trkpt>
      <trkpt lat="44.37597" lon="4.16278">
        <ele>153.968</ele>
        <time>2014-05-04T13:37:37.343Z</time>
      </trkpt>
      <trkpt lat="44.37606" lon="4.16271">
        <ele>153.014</ele>
        <time>2014-05-04T13:37:47.303Z</time>
      </trkpt>
      <trkpt lat="44.37615" lon="4.16268">
        <ele>150.72</ele>
        <time>2014-05-04T13:37:55.455Z</time>
      </trkpt>
      <trkpt lat="44.37625" lon="4.16266">
        <ele>148.349</ele>
        <time>2014-05-04T13:38:04.816Z</time>
      </trkpt>
      <trkpt lat="44.37634" lon="4.1627">
        <ele>147.99</ele>
        <time>2014-05-04T13:38:13.713Z</time>
      </trkpt>
      <trkpt lat="44.37643" lon="4.16271">
        <ele>149.908</ele>
        <time>2014-05-04T13:38:23.075Z</time>
      </trkpt>
      <trkpt lat="44.37652" lon="4.16273">
        <ele>152.269</ele>
        <time>2014-05-04T13:38:32.531Z</time>
      </trkpt>
      <trkpt lat="44.37661" lon="4.16276">
        <ele>153.522</ele>
        <time>2014-05-04T13:38:41.899Z</time>
      </trkpt>
      <trkpt lat="44.3767" lon="4.16274">
        <ele>153.942</ele>
        <time>2014-05-04T13:38:51.705Z</time>
      </trkpt>
      <trkpt lat="44.37679" lon="4.16275">
        <ele>154.015</ele>
        <time>2014-05-04T13:39:00.912Z</time>
      </trkpt>
      <trkpt lat="44.37689" lon="4.16279">
        <ele>153.798</ele>
        <time>2014-05-04T13:39:10.384Z</time>
      </trkpt>
      <trkpt lat="44.37698" lon="4.16285">
        <ele>153.393</ele>
        <time>2014-05-04T13:39:20.024Z</time>
      </trkpt>
      <trkpt lat="44.37709" lon="4.1629">
        <ele>153.291</ele>
        <time>2014-05-04T13:39:30.873Z</time>
      </trkpt>
      <trkpt lat="44.37717" lon="4.16285">
        <ele>153.951</ele>
        <time>2014-05-04T13:39:41.368Z</time>
      </trkpt>
      <trkpt lat="44.37725" lon="4.16276">
        <ele>155.481</ele>
        <time>2014-05-04T13:39:52.695Z</time>
      </trkpt>
      <trkpt lat="44.3773" lon="4.16266">
        <ele>157.379</ele>
        <time>2014-05-04T13:40:07.350Z</time>
      </trkpt>
      <trkpt lat="44.3774" lon="4.1626">
        <ele>158.961</ele>
        <time>2014-05-04T13:40:21.276Z</time>
      </trkpt>
      <trkpt lat="44.37748" lon="4.16268">
        <ele>159.821</ele>
        <time>2014-05-04T13:40:32.666Z</time>
      </trkpt>
      <trkpt lat="44.37757" lon="4.16281">
        <ele>160.665</ele>
        <time>2014-05-04T13:40:48.515Z</time>
      </trkpt>
      <trkpt lat="44.37763" lon="4.16293">
        <ele>162.149</ele>
        <time>2014-05-04T13:41:01.859Z</time>
      </trkpt>
      <trkpt lat="44.37767" lon="4.16304">
        <ele>163.644</ele>
        <time>2014-05-04T13:41:14.182Z</time>
      </trkpt>
      <trkpt lat="44.37772" lon="4.16317">
        <ele>164.681</ele>
        <time>2014-05-04T13:41:28.153Z</time>
      </trkpt>
      <trkpt lat="44.37781" lon="4.16328">
        <ele>166.329</ele>
        <time>2014-05-04T13:41:39.761Z</time>
      </trkpt>
      <trkpt lat="44.37789" lon="4.16336">
        <ele>169.079</ele>
        <time>2014-05-04T13:41:51.117Z</time>
      </trkpt>
      <trkpt lat="44.37798" lon="4.16343">
        <ele>171.911</ele>
        <time>2014-05-04T13:42:04.731Z</time>
      </trkpt>
      <trkpt lat="44.37806" lon="4.1635">
        <ele>174.386</ele>
        <time>2014-05-04T13:42:15.192Z</time>
      </trkpt>
      <trkpt lat="44.37815" lon="4.16354">
        <ele>176.916</ele>
        <time>2014-05-04T13:42:25.924Z</time>
      </trkpt>
      <trkpt lat="44.37822" lon="4.16361">
        <ele>178.86</ele>
        <time>2014-05-04T13:42:36.939Z</time>
      </trkpt>
      <trkpt lat="44.37831" lon="4.16366">
        <ele>179.278</ele>
        <time>2014-05-04T13:42:46.546Z</time>
      </trkpt>
      <trkpt lat="44.37841" lon="4.16369">
        <ele>178.473</ele>
        <time>2014-05-04T13:42:57.568Z</time>
      </trkpt>
      <trkpt lat="44.37853" lon="4.16375">
        <ele>177.822</ele>
        <time>2014-05-04T13:43:11.117Z</time>
      </trkpt>
      <trkpt lat="44.37865" lon="4.1638">
        <ele>178.205</ele>
        <time>2014-05-04T13:43:24.070Z</time>
      </trkpt>
      <trkpt lat="44.37875" lon="4.16386">
        <ele>179.027</ele>
        <time>2014-05-04T13:43:36.360Z</time>
      </trkpt>
      <trkpt lat="44.37889" lon="4.16388">
        <ele>179.799</ele>
        <time>2014-05-04T13:43:53.883Z</time>
      </trkpt>
      <trkpt lat="44.379" lon="4.16389">
        <ele>180.633</ele>
        <time>2014-05-04T13:44:03.708Z</time>
      </trkpt>
      <trkpt lat="44.37911" lon="4.16389">
        <ele>181.598</ele>
        <time>2014-05-04T13:44:14.031Z</time>
      </trkpt>
      <trkpt lat="44.3792" lon="4.16389">
        <ele>182.798</ele>
        <time>2014-05-04T13:44:21.366Z</time>
      </trkpt>
      <trkpt lat="44.3793" lon="4.16388">
        <ele>184.023</ele>
        <time>2014-05-04T13:44:28.923Z</time>
      </trkpt>
      <trkpt lat="44.37939" lon="4.16384">
        <ele>184.838</ele>
        <time>2014-05-04T13:44:37.499Z</time>
      </trkpt>
      <trkpt lat="44.37948" lon="4.16383">
        <ele>185.202</ele>
        <time>2014-05-04T13:44:48.237Z</time>
      </trkpt>
      <trkpt lat="44.37958" lon="4.1638">
        <ele>185.484</ele>
        <time>2014-05-04T13:45:00.476Z</time>
      </trkpt>
      <trkpt lat="44.37958" lon="4.1638">
        <ele>185.781</ele>
        <time>2014-05-04T13:45:05.873Z</time>
      </trkpt>
      <trkpt lat="44.37958" lon="4.1638">
        <ele>185.829</ele>
        <time>2014-05-04T13:45:05.973Z</time>
      </trkpt>
      <trkpt lat="44.37967" lon="4.16381">
        <ele>185.564</ele>
        <time>2014-05-04T13:45:14.041Z</time>
      </trkpt>
      <trkpt lat="44.37967" lon="4.16381">
        <ele>185.538</ele>
        <time>2014-05-04T13:45:26.877Z</time>
      </trkpt>
      <trkpt lat="44.37967" lon="4.16381">
        <ele>185.516</ele>
        <time>2014-05-04T13:45:26.977Z</time>
      </trkpt>
      <trkpt lat="44.37978" lon="4.16374">
        <ele>185.452</ele>
        <time>2014-05-04T13:45:38.880Z</time>
      </trkpt>
      <trkpt lat="44.37978" lon="4.16374">
        <ele>185.376</ele>
        <time>2014-05-04T13:45:48.880Z</time>
      </trkpt>
      <trkpt lat="44.37978" lon="4.16374">
        <ele>185.318</ele>
        <time>2014-05-04T13:46:04.124Z</time>
      </trkpt>
      <trkpt lat="44.37985" lon="4.16365">
        <ele>185.202</ele>
        <time>2014-05-04T13:46:32.774Z</time>
      </trkpt>
      <trkpt lat="44.3799" lon="4.16351">
        <ele>185.228</ele>
        <time>2014-05-04T13:46:49.147Z</time>
      </trkpt>
      <trkpt lat="44.37996" lon="4.1634">
        <ele>185.382</ele>
        <time>2014-05-04T13:47:03.950Z</time>
      </trkpt>
      <trkpt lat="44.38002" lon="4.16328">
        <ele>184.613</ele>
        <time>2014-05-04T13:47:19.937Z</time>
      </trkpt>
      <trkpt lat="44.38008" lon="4.16318">
        <ele>181.558</ele>
        <time>2014-05-04T13:47:33.458Z</time>
      </trkpt>
      <trkpt lat="44.38017" lon="4.16306">
        <ele>176.923</ele>
        <time>2014-05-04T13:47:51.667Z</time>
      </trkpt>
      <trkpt lat="44.38024" lon="4.16299">
        <ele>172.995</ele>
        <time>2014-05-04T13:48:02.881Z</time>
      </trkpt>
      <trkpt lat="44.38024" lon="4.16299">
        <ele>171.218</ele>
        <time>2014-05-04T13:48:24.875Z</time>
      </trkpt>
      <trkpt lat="44.38024" lon="4.16299">
        <ele>171.359</ele>
        <time>2014-05-04T13:48:24.975Z</time>
      </trkpt>
      <trkpt lat="44.38029" lon="4.16281">
        <ele>172.165</ele>
        <time>2014-05-04T13:49:05.351Z</time>
      </trkpt>
      <trkpt lat="44.38027" lon="4.16267">
        <ele>173.599</ele>
        <time>2014-05-04T13:49:26.705Z</time>
      </trkpt>
      <trkpt lat="44.38031" lon="4.16253">
        <ele>176.058</ele>
        <time>2014-05-04T13:49:37.802Z</time>
      </trkpt>
      <trkpt lat="44.38036" lon="4.16241">
        <ele>177.54</ele>
        <time>2014-05-04T13:49:49.593Z</time>
      </trkpt>
      <trkpt lat="44.38045" lon="4.1623">
        <ele>175.77</ele>
        <time>2014-05-04T13:50:00.984Z</time>
      </trkpt>
      <trkpt lat="44.38053" lon="4.16223">
        <ele>171.985</ele>
        <time>2014-05-04T13:50:09.684Z</time>
      </trkpt>
      <trkpt lat="44.38061" lon="4.16213">
        <ele>168.965</ele>
        <time>2014-05-04T13:50:19.306Z</time>
      </trkpt>
      <trkpt lat="44.38066" lon="4.16202">
        <ele>167.661</ele>
        <time>2014-05-04T13:50:27.646Z</time>
      </trkpt>
      <trkpt lat="44.38072" lon="4.16191">
        <ele>167.396</ele>
        <time>2014-05-04T13:50:36.978Z</time>
      </trkpt>
      <trkpt lat="44.38078" lon="4.1618">
        <ele>167.971</ele>
        <time>2014-05-04T13:50:46.248Z</time>
      </trkpt>
      <trkpt lat="44.38085" lon="4.16171">
        <ele>169.342</ele>
        <time>2014-05-04T13:50:56.283Z</time>
      </trkpt>
      <trkpt lat="44.38091" lon="4.16161">
        <ele>169.943</ele>
        <time>2014-05-04T13:51:07.984Z</time>
      </trkpt>
      <trkpt lat="44.38099" lon="4.16152">
        <ele>168.646</ele>
        <time>2014-05-04T13:51:19.423Z</time>
      </trkpt>
      <trkpt lat="44.38106" lon="4.16145">
        <ele>167.194</ele>
        <time>2014-05-04T13:51:27.980Z</time>
      </trkpt>
      <trkpt lat="44.38113" lon="4.16135">
        <ele>167.631</ele>
        <time>2014-05-04T13:51:36.307Z</time>
      </trkpt>
      <trkpt lat="44.38119" lon="4.16125">
        <ele>169.547</ele>
        <time>2014-05-04T13:51:44.928Z</time>
      </trkpt>
      <trkpt lat="44.38128" lon="4.16116">
        <ele>171.284</ele>
        <time>2014-05-04T13:51:54.970Z</time>
      </trkpt>
      <trkpt lat="44.38137" lon="4.16107">
        <ele>171.613</ele>
        <time>2014-05-04T13:52:05.363Z</time>
      </trkpt>
      <trkpt lat="44.38144" lon="4.16098">
        <ele>170.58</ele>
        <time>2014-05-04T13:52:16.119Z</time>
      </trkpt>
      <trkpt lat="44.38153" lon="4.16085">
        <ele>169.293</ele>
        <time>2014-05-04T13:52:33.880Z</time>
      </trkpt>
      <trkpt lat="44.38153" lon="4.16085">
        <ele>168.598</ele>
        <time>2014-05-04T13:52:37.874Z</time>
      </trkpt>
      <trkpt lat="44.38153" lon="4.16085">
        <ele>168.404</ele>
        <time>2014-05-04T13:52:42.379Z</time>
      </trkpt>
      <trkpt lat="44.38163" lon="4.16074">
        <ele>168.39</ele>
        <time>2014-05-04T13:53:16.407Z</time>
      </trkpt>
      <trkpt lat="44.38172" lon="4.16065">
        <ele>167.7</ele>
        <time>2014-05-04T13:53:29.666Z</time>
      </trkpt>
      <trkpt lat="44.38178" lon="4.16051">
        <ele>165.699</ele>
        <time>2014-05-04T13:53:40.084Z</time>
      </trkpt>
      <trkpt lat="44.38185" lon="4.16041">
        <ele>163.164</ele>
        <time>2014-05-04T13:53:47.982Z</time>
      </trkpt>
      <trkpt lat="44.38194" lon="4.16031">
        <ele>161.304</ele>
        <time>2014-05-04T13:53:59.603Z</time>
      </trkpt>
      <trkpt lat="44.38203" lon="4.16027">
        <ele>160.517</ele>
        <time>2014-05-04T13:54:12.734Z</time>
      </trkpt>
      <trkpt lat="44.38209" lon="4.16018">
        <ele>161.707</ele>
        <time>2014-05-04T13:54:27.022Z</time>
      </trkpt>
      <trkpt lat="44.38217" lon="4.16009">
        <ele>166.909</ele>
        <time>2014-05-04T13:54:42.485Z</time>
      </trkpt>
      <trkpt lat="44.38225" lon="4.15999">
        <ele>175.187</ele>
        <time>2014-05-04T13:54:53.970Z</time>
      </trkpt>
      <trkpt lat="44.38232" lon="4.15992">
        <ele>180.843</ele>
        <time>2014-05-04T13:55:03.088Z</time>
      </trkpt>
      <trkpt lat="44.38243" lon="4.15988">
        <ele>180.556</ele>
        <time>2014-05-04T13:55:13.116Z</time>
      </trkpt>
      <trkpt lat="44.38253" lon="4.15986">
        <ele>176.799</ele>
        <time>2014-05-04T13:55:21.885Z</time>
      </trkpt>
      <trkpt lat="44.38253" lon="4.15986">
        <ele>173.082</ele>
        <time>2014-05-04T13:55:31.896Z</time>
      </trkpt>
      <trkpt lat="44.38253" lon="4.15986">
        <ele>171.228</ele>
        <time>2014-05-04T13:55:31.996Z</time>
      </trkpt>
      <trkpt lat="44.38268" lon="4.15982">
        <ele>171.34</ele>
        <time>2014-05-04T13:55:57.601Z</time>
      </trkpt>
      <trkpt lat="44.38277" lon="4.15988">
        <ele>171.845</ele>
        <time>2014-05-04T13:56:10.841Z</time>
      </trkpt>
      <trkpt lat="44.38286" lon="4.15991">
        <ele>171.162</ele>
        <time>2014-05-04T13:56:23.878Z</time>
      </trkpt>
      <trkpt lat="44.38286" lon="4.15991">
        <ele>169.248</ele>
        <time>2014-05-04T13:56:43.893Z</time>
      </trkpt>
      <trkpt lat="44.38286" lon="4.15991">
        <ele>169.388</ele>
        <time>2014-05-04T13:56:43.993Z</time>
      </trkpt>
      <trkpt lat="44.383" lon="4.16">
        <ele>169.559</ele>
        <time>2014-05-04T13:58:43.884Z</time>
      </trkpt>
      <trkpt lat="44.38309" lon="4.15987">
        <ele>169.833</ele>
        <time>2014-05-04T13:59:38.979Z</time>
      </trkpt>
      <trkpt lat="44.38309" lon="4.15973">
        <ele>170.301</ele>
        <time>2014-05-04T13:59:46.375Z</time>
      </trkpt>
      <trkpt lat="44.38308" lon="4.1596">
        <ele>169.964</ele>
        <time>2014-05-04T13:59:54.132Z</time>
      </trkpt>
      <trkpt lat="44.38305" lon="4.15947">
        <ele>169.677</ele>
        <time>2014-05-04T14:00:02.876Z</time>
      </trkpt>
      <trkpt lat="44.38305" lon="4.15947">
        <ele>169.528</ele>
        <time>2014-05-04T14:00:06.882Z</time>
      </trkpt>
      <trkpt lat="44.38305" lon="4.15947">
        <ele>169.476</ele>
        <time>2014-05-04T14:00:14.885Z</time>
      </trkpt>
      <trkpt lat="44.38304" lon="4.15941">
        <ele>169.195</ele>
        <time>2014-05-04T14:00:27.882Z</time>
      </trkpt>
      <trkpt lat="44.38304" lon="4.15941">
        <ele>169.117</ele>
        <time>2014-05-04T14:00:29.885Z</time>
      </trkpt>
      <trkpt lat="44.38304" lon="4.15941">
        <ele>169.074</ele>
        <time>2014-05-04T14:03:57.886Z</time>
      </trkpt>
      <trkpt lat="44.38311" lon="4.15945">
        <ele>169.371</ele>
        <time>2014-05-04T14:04:06.892Z</time>
      </trkpt>
      <trkpt lat="44.38311" lon="4.15945">
        <ele>169.293</ele>
        <time>2014-05-04T14:04:10.883Z</time>
      </trkpt>
      <trkpt lat="44.38311" lon="4.15945">
        <ele>169.249</ele>
        <time>2014-05-04T14:04:10.983Z</time>
      </trkpt>
      <trkpt lat="44.38315" lon="4.15961">
        <ele>169.144</ele>
        <time>2014-05-04T14:04:38.143Z</time>
      </trkpt>
      <trkpt lat="44.38317" lon="4.15975">
        <ele>169.103</ele>
        <time>2014-05-04T14:04:45.645Z</time>
      </trkpt>
      <trkpt lat="44.38319" lon="4.1599">
        <ele>168.935</ele>
        <time>2014-05-04T14:04:52.881Z</time>
      </trkpt>
      <trkpt lat="44.38319" lon="4.1599">
        <ele>168.535</ele>
        <time>2014-05-04T14:05:05.884Z</time>
      </trkpt>
      <trkpt lat="44.38319" lon="4.1599">
        <ele>168.177</ele>
        <time>2014-05-04T14:05:05.984Z</time>
      </trkpt>
      <trkpt lat="44.38313" lon="4.16003">
        <ele>168.254</ele>
        <time>2014-05-04T14:05:35.333Z</time>
      </trkpt>
      <trkpt lat="44.38304" lon="4.16006">
        <ele>168.007</ele>
        <time>2014-05-04T14:05:44.888Z</time>
      </trkpt>
      <trkpt lat="44.38304" lon="4.16006">
        <ele>168.007</ele>
        <time>2014-05-04T14:05:44.888Z</time>
      </trkpt>
      <trkpt lat="44.38304" lon="4.16006">
        <ele>167.834</ele>
        <time>2014-05-04T14:06:02.877Z</time>
      </trkpt>
      <trkpt lat="44.38304" lon="4.16006">
        <ele>167.757</ele>
        <time>2014-05-04T14:06:14.879Z</time>
      </trkpt>
      <trkpt lat="44.38304" lon="4.16006">
        <ele>167.714</ele>
        <time>2014-05-04T14:06:41.133Z</time>
      </trkpt>
      <trkpt lat="44.3831" lon="4.16019">
        <ele>167.609</ele>
        <time>2014-05-04T14:07:11.580Z</time>
      </trkpt>
      <trkpt lat="44.38317" lon="4.16028">
        <ele>168.109</ele>
        <time>2014-05-04T14:07:21.507Z</time>
      </trkpt>
      <trkpt lat="44.38327" lon="4.16024">
        <ele>169.551</ele>
        <time>2014-05-04T14:07:31.887Z</time>
      </trkpt>
      <trkpt lat="44.38337" lon="4.16022">
        <ele>171.197</ele>
        <time>2014-05-04T14:07:40.265Z</time>
      </trkpt>
      <trkpt lat="44.38346" lon="4.1602">
        <ele>172.136</ele>
        <time>2014-05-04T14:07:46.291Z</time>
      </trkpt>
      <trkpt lat="44.38356" lon="4.16021">
        <ele>172.136</ele>
        <time>2014-05-04T14:07:53.399Z</time>
      </trkpt>
      <trkpt lat="44.38365" lon="4.16017">
        <ele>171.473</ele>
        <time>2014-05-04T14:08:01.840Z</time>
      </trkpt>
      <trkpt lat="44.38374" lon="4.16011">
        <ele>170.194</ele>
        <time>2014-05-04T14:08:12.275Z</time>
      </trkpt>
      <trkpt lat="44.38381" lon="4.15998">
        <ele>168.919</ele>
        <time>2014-05-04T14:08:27.627Z</time>
      </trkpt>
      <trkpt lat="44.3839" lon="4.15992">
        <ele>169.165</ele>
        <time>2014-05-04T14:08:46.045Z</time>
      </trkpt>
      <trkpt lat="44.384" lon="4.15989">
        <ele>171.164</ele>
        <time>2014-05-04T14:09:03.341Z</time>
      </trkpt>
      <trkpt lat="44.38412" lon="4.15989">
        <ele>173.96</ele>
        <time>2014-05-04T14:09:15.651Z</time>
      </trkpt>
      <trkpt lat="44.38421" lon="4.15988">
        <ele>176.24</ele>
        <time>2014-05-04T14:09:23.671Z</time>
      </trkpt>
      <trkpt lat="44.38433" lon="4.15987">
        <ele>176.324</ele>
        <time>2014-05-04T14:09:34.211Z</time>
      </trkpt>
      <trkpt lat="44.38441" lon="4.15983">
        <ele>174.505</ele>
        <time>2014-05-04T14:09:42.999Z</time>
      </trkpt>
      <trkpt lat="44.38453" lon="4.1598">
        <ele>173.813</ele>
        <time>2014-05-04T14:09:54.785Z</time>
      </trkpt>
      <trkpt lat="44.38462" lon="4.15974">
        <ele>175.797</ele>
        <time>2014-05-04T14:10:02.895Z</time>
      </trkpt>
      <trkpt lat="44.38471" lon="4.15973">
        <ele>177.284</ele>
        <time>2014-05-04T14:10:09.423Z</time>
      </trkpt>
      <trkpt lat="44.38483" lon="4.15978">
        <ele>174.959</ele>
        <time>2014-05-04T14:10:19.429Z</time>
      </trkpt>
      <trkpt lat="44.38496" lon="4.15979">
        <ele>169.944</ele>
        <time>2014-05-04T14:10:32.420Z</time>
      </trkpt>
      <trkpt lat="44.38507" lon="4.15983">
        <ele>165.128</ele>
        <time>2014-05-04T14:10:47.249Z</time>
      </trkpt>
      <trkpt lat="44.38517" lon="4.15985">
        <ele>162.273</ele>
        <time>2014-05-04T14:10:56.848Z</time>
      </trkpt>
      <trkpt lat="44.38526" lon="4.15989">
        <ele>161.804</ele>
        <time>2014-05-04T14:11:03.147Z</time>
      </trkpt>
      <trkpt lat="44.38535" lon="4.15991">
        <ele>162.793</ele>
        <time>2014-05-04T14:11:09.888Z</time>
      </trkpt>
      <trkpt lat="44.38535" lon="4.15991">
        <ele>163.676</ele>
        <time>2014-05-04T14:11:41.890Z</time>
      </trkpt>
      <trkpt lat="44.38535" lon="4.15991">
        <ele>163.603</ele>
        <time>2014-05-04T14:12:02.884Z</time>
      </trkpt>
      <trkpt lat="44.38551" lon="4.15987">
        <ele>163.173</ele>
        <time>2014-05-04T14:12:45.754Z</time>
      </trkpt>
      <trkpt lat="44.38563" lon="4.15992">
        <ele>163.096</ele>
        <time>2014-05-04T14:13:05.424Z</time>
      </trkpt>
      <trkpt lat="44.38573" lon="4.16">
        <ele>164.007</ele>
        <time>2014-05-04T14:13:28.458Z</time>
      </trkpt>
      <trkpt lat="44.38583" lon="4.16005">
        <ele>165.845</ele>
        <time>2014-05-04T14:13:45.922Z</time>
      </trkpt>
      <trkpt lat="44.38596" lon="4.16012">
        <ele>167.731</ele>
        <time>2014-05-04T14:14:01.482Z</time>
      </trkpt>
      <trkpt lat="44.38608" lon="4.16021">
        <ele>168.78</ele>
        <time>2014-05-04T14:14:15.658Z</time>
      </trkpt>
      <trkpt lat="44.3862" lon="4.16017">
        <ele>168.667</ele>
        <time>2014-05-04T14:14:26.506Z</time>
      </trkpt>
      <trkpt lat="44.38633" lon="4.16011">
        <ele>167.449</ele>
        <time>2014-05-04T14:14:38.955Z</time>
      </trkpt>
      <trkpt lat="44.38643" lon="4.16006">
        <ele>165.813</ele>
        <time>2014-05-04T14:14:48.009Z</time>
      </trkpt>
      <trkpt lat="44.38655" lon="4.16006">
        <ele>164.951</ele>
        <time>2014-05-04T14:14:58.606Z</time>
      </trkpt>
      <trkpt lat="44.38664" lon="4.16002">
        <ele>165.562</ele>
        <time>2014-05-04T14:15:08.915Z</time>
      </trkpt>
      <trkpt lat="44.38672" lon="4.15997">
        <ele>166.257</ele>
        <time>2014-05-04T14:15:20.008Z</time>
      </trkpt>
      <trkpt lat="44.38682" lon="4.15988">
        <ele>165.798</ele>
        <time>2014-05-04T14:15:32.996Z</time>
      </trkpt>
      <trkpt lat="44.3869" lon="4.15981">
        <ele>165.016</ele>
        <time>2014-05-04T14:15:41.891Z</time>
      </trkpt>
      <trkpt lat="44.38696" lon="4.15972">
        <ele>165.048</ele>
        <time>2014-05-04T14:15:49.885Z</time>
      </trkpt>
      <trkpt lat="44.38696" lon="4.15972">
        <ele>165.595</ele>
        <time>2014-05-04T14:16:03.884Z</time>
      </trkpt>
      <trkpt lat="44.38696" lon="4.15972">
        <ele>165.863</ele>
        <time>2014-05-04T14:16:03.984Z</time>
      </trkpt>
      <trkpt lat="44.38701" lon="4.15959">
        <ele>165.728</ele>
        <time>2014-05-04T14:16:27.285Z</time>
      </trkpt>
      <trkpt lat="44.38707" lon="4.15947">
        <ele>165.673</ele>
        <time>2014-05-04T14:16:36.878Z</time>
      </trkpt>
      <trkpt lat="44.38716" lon="4.15936">
        <ele>166.319</ele>
        <time>2014-05-04T14:16:50.169Z</time>
      </trkpt>
      <trkpt lat="44.3872" lon="4.15919">
        <ele>168.251</ele>
        <time>2014-05-04T14:17:05.141Z</time>
      </trkpt>
      <trkpt lat="44.38721" lon="4.15906">
        <ele>171.005</ele>
        <time>2014-05-04T14:17:19.882Z</time>
      </trkpt>
      <trkpt lat="44.38721" lon="4.15906">
        <ele>172.757</ele>
        <time>2014-05-04T14:17:25.883Z</time>
      </trkpt>
      <trkpt lat="44.38721" lon="4.15906">
        <ele>172.593</ele>
        <time>2014-05-04T14:17:25.983Z</time>
      </trkpt>
      <trkpt lat="44.38725" lon="4.15894">
        <ele>171.764</ele>
        <time>2014-05-04T14:17:35.880Z</time>
      </trkpt>
      <trkpt lat="44.38725" lon="4.15894">
        <ele>172.029</ele>
        <time>2014-05-04T14:17:48.881Z</time>
      </trkpt>
      <trkpt lat="44.38725" lon="4.15894">
        <ele>171.995</ele>
        <time>2014-05-04T14:17:48.981Z</time>
      </trkpt>
      <trkpt lat="44.38729" lon="4.15879">
        <ele>171.794</ele>
        <time>2014-05-04T14:17:54.886Z</time>
      </trkpt>
      <trkpt lat="44.38729" lon="4.15879">
        <ele>171.72</ele>
        <time>2014-05-04T14:18:03.890Z</time>
      </trkpt>
      <trkpt lat="44.38729" lon="4.15879">
        <ele>171.725</ele>
        <time>2014-05-04T14:18:03.990Z</time>
      </trkpt>
      <trkpt lat="44.38729" lon="4.15879">
        <ele>171.593</ele>
        <time>2014-05-04T14:18:47.886Z</time>
      </trkpt>
      <trkpt lat="44.38729" lon="4.15879">
        <ele>171.525</ele>
        <time>2014-05-04T14:18:47.986Z</time>
      </trkpt>
      <trkpt lat="44.38726" lon="4.15865">
        <ele>171.489</ele>
        <time>2014-05-04T14:18:59.902Z</time>
      </trkpt>
      <trkpt lat="44.38726" lon="4.15865">
        <ele>171.463</ele>
        <time>2014-05-04T14:19:14.897Z</time>
      </trkpt>
      <trkpt lat="44.38726" lon="4.15865">
        <ele>171.418</ele>
        <time>2014-05-04T14:21:03.898Z</time>
      </trkpt>
      <trkpt lat="44.3873" lon="4.15879">
        <ele>161.232</ele>
        <time>2014-05-04T14:21:20.882Z</time>
      </trkpt>
      <trkpt lat="44.3873" lon="4.15879">
        <ele>161.157</ele>
        <time>2014-05-04T14:21:21.883Z</time>
      </trkpt>
      <trkpt lat="44.3873" lon="4.15879">
        <ele>161.116</ele>
        <time>2014-05-04T14:26:36.201Z</time>
      </trkpt>
      <trkpt lat="44.3873" lon="4.15879">
        <ele>161.015</ele>
        <time>2014-05-04T14:28:33.893Z</time>
      </trkpt>
      <trkpt lat="44.3873" lon="4.15879">
        <ele>160.964</ele>
        <time>2014-05-04T14:36:16.898Z</time>
      </trkpt>
      <trkpt lat="44.38733" lon="4.15863">
        <ele>171.802</ele>
        <time>2014-05-04T14:36:36.891Z</time>
      </trkpt>
      <trkpt lat="44.38733" lon="4.15863">
        <ele>171.723</ele>
        <time>2014-05-04T14:37:15.885Z</time>
      </trkpt>
      <trkpt lat="44.38733" lon="4.15863">
        <ele>171.679</ele>
        <time>2014-05-04T14:37:15.985Z</time>
      </trkpt>
      <trkpt lat="44.38723" lon="4.15863">
        <ele>171.572</ele>
        <time>2014-05-04T14:38:03.891Z</time>
      </trkpt>
      <trkpt lat="44.38723" lon="4.15863">
        <ele>171.509</ele>
        <time>2014-05-04T14:38:03.891Z</time>
      </trkpt>
      <trkpt lat="44.38723" lon="4.15863">
        <ele>171.432</ele>
        <time>2014-05-04T14:38:03.991Z</time>
      </trkpt>
      <trkpt lat="44.3873" lon="4.15851">
        <ele>171.363</ele>
        <time>2014-05-04T14:38:54.742Z</time>
      </trkpt>
      <trkpt lat="44.38726" lon="4.15863">
        <ele>171.332</ele>
        <time>2014-05-04T14:39:07.889Z</time>
      </trkpt>
      <trkpt lat="44.38726" lon="4.15863">
        <ele>171.297</ele>
        <time>2014-05-04T14:39:11.885Z</time>
      </trkpt>
      <trkpt lat="44.38726" lon="4.15863">
        <ele>171.22</ele>
        <time>2014-05-04T14:39:11.985Z</time>
      </trkpt>
      <trkpt lat="44.38717" lon="4.1587">
        <ele>171.095</ele>
        <time>2014-05-04T14:39:26.891Z</time>
      </trkpt>
      <trkpt lat="44.38717" lon="4.1587">
        <ele>171.057</ele>
        <time>2014-05-04T14:39:36.891Z</time>
      </trkpt>
      <trkpt lat="44.38717" lon="4.1587">
        <ele>170.984</ele>
        <time>2014-05-04T14:40:03.771Z</time>
      </trkpt>
      <trkpt lat="44.38722" lon="4.15858">
        <ele>170.908</ele>
        <time>2014-05-04T14:40:47.723Z</time>
      </trkpt>
      <trkpt lat="44.38712" lon="4.15862">
        <ele>172.158</ele>
        <time>2014-05-04T14:40:57.475Z</time>
      </trkpt>
      <trkpt lat="44.38702" lon="4.1586">
        <ele>175.503</ele>
        <time>2014-05-04T14:41:05.736Z</time>
      </trkpt>
      <trkpt lat="44.38691" lon="4.15863">
        <ele>177.712</ele>
        <time>2014-05-04T14:41:15.225Z</time>
      </trkpt>
      <trkpt lat="44.38682" lon="4.15858">
        <ele>175.096</ele>
        <time>2014-05-04T14:41:22.306Z</time>
      </trkpt>
      <trkpt lat="44.38674" lon="4.1585">
        <ele>169.277</ele>
        <time>2014-05-04T14:41:28.685Z</time>
      </trkpt>
      <trkpt lat="44.38665" lon="4.15845">
        <ele>164.555</ele>
        <time>2014-05-04T14:41:35.583Z</time>
      </trkpt>
      <trkpt lat="44.38658" lon="4.15836">
        <ele>163.457</ele>
        <time>2014-05-04T14:41:43.887Z</time>
      </trkpt>
      <trkpt lat="44.38658" lon="4.15836">
        <ele>165.417</ele>
        <time>2014-05-04T14:42:00.896Z</time>
      </trkpt>
      <trkpt lat="44.38658" lon="4.15836">
        <ele>167.412</ele>
        <time>2014-05-04T14:42:00.996Z</time>
      </trkpt>
      <trkpt lat="44.38654" lon="4.15824">
        <ele>166.204</ele>
        <time>2014-05-04T14:42:12.898Z</time>
      </trkpt>
      <trkpt lat="44.38654" lon="4.15824">
        <ele>165.464</ele>
        <time>2014-05-04T14:42:17.889Z</time>
      </trkpt>
      <trkpt lat="44.38654" lon="4.15824">
        <ele>165.437</ele>
        <time>2014-05-04T14:42:17.989Z</time>
      </trkpt>
      <trkpt lat="44.38644" lon="4.15811">
        <ele>165.6</ele>
        <time>2014-05-04T14:42:34.907Z</time>
      </trkpt>
      <trkpt lat="44.38636" lon="4.15801">
        <ele>165.892</ele>
        <time>2014-05-04T14:42:42.149Z</time>
      </trkpt>
      <trkpt lat="44.38631" lon="4.15789">
        <ele>167.385</ele>
        <time>2014-05-04T14:42:49.921Z</time>
      </trkpt>
      <trkpt lat="44.38629" lon="4.15774">
        <ele>170.076</ele>
        <time>2014-05-04T14:42:58.369Z</time>
      </trkpt>
      <trkpt lat="44.38625" lon="4.15763">
        <ele>172.916</ele>
        <time>2014-05-04T14:43:06.453Z</time>
      </trkpt>
      <trkpt lat="44.38621" lon="4.15744">
        <ele>174.571</ele>
        <time>2014-05-04T14:43:22.251Z</time>
      </trkpt>
      <trkpt lat="44.38621" lon="4.15727">
        <ele>174.58</ele>
        <time>2014-05-04T14:43:37.089Z</time>
      </trkpt>
      <trkpt lat="44.38621" lon="4.15714">
        <ele>173.525</ele>
        <time>2014-05-04T14:43:47.348Z</time>
      </trkpt>
      <trkpt lat="44.38616" lon="4.15699">
        <ele>172.205</ele>
        <time>2014-05-04T14:44:02.556Z</time>
      </trkpt>
      <trkpt lat="44.38614" lon="4.15683">
        <ele>171.235</ele>
        <time>2014-05-04T14:44:18.571Z</time>
      </trkpt>
      <trkpt lat="44.38616" lon="4.15669">
        <ele>170.772</ele>
        <time>2014-05-04T14:44:30.633Z</time>
      </trkpt>
      <trkpt lat="44.38624" lon="4.15652">
        <ele>170.617</ele>
        <time>2014-05-04T14:44:47.059Z</time>
      </trkpt>
      <trkpt lat="44.38632" lon="4.15638">
        <ele>170.627</ele>
        <time>2014-05-04T14:44:59.019Z</time>
      </trkpt>
      <trkpt lat="44.38639" lon="4.15628">
        <ele>170.704</ele>
        <time>2014-05-04T14:45:07.739Z</time>
      </trkpt>
      <trkpt lat="44.38647" lon="4.15616">
        <ele>170.491</ele>
        <time>2014-05-04T14:45:19.564Z</time>
      </trkpt>
      <trkpt lat="44.38649" lon="4.15603">
        <ele>169.786</ele>
        <time>2014-05-04T14:45:29.027Z</time>
      </trkpt>
      <trkpt lat="44.38649" lon="4.15587">
        <ele>169.049</ele>
        <time>2014-05-04T14:45:44.557Z</time>
      </trkpt>
      <trkpt lat="44.38655" lon="4.15571">
        <ele>168.815</ele>
        <time>2014-05-04T14:45:57.657Z</time>
      </trkpt>
      <trkpt lat="44.3866" lon="4.15557">
        <ele>169.028</ele>
        <time>2014-05-04T14:46:06.570Z</time>
      </trkpt>
      <trkpt lat="44.38666" lon="4.15548">
        <ele>169.564</ele>
        <time>2014-05-04T14:46:13.887Z</time>
      </trkpt>
      <trkpt lat="44.38666" lon="4.15548">
        <ele>170.315</ele>
        <time>2014-05-04T14:46:28.888Z</time>
      </trkpt>
      <trkpt lat="44.38666" lon="4.15548">
        <ele>170.812</ele>
        <time>2014-05-04T14:46:57.884Z</time>
      </trkpt>
      <trkpt lat="44.38675" lon="4.15541">
        <ele>170.72</ele>
        <time>2014-05-04T14:47:36.564Z</time>
      </trkpt>
      <trkpt lat="44.38676" lon="4.15528">
        <ele>170.6</ele>
        <time>2014-05-04T14:47:47.216Z</time>
      </trkpt>
      <trkpt lat="44.38684" lon="4.15518">
        <ele>171.024</ele>
        <time>2014-05-04T14:47:58.734Z</time>
      </trkpt>
      <trkpt lat="44.38696" lon="4.15505">
        <ele>171.784</ele>
        <time>2014-05-04T14:48:13.775Z</time>
      </trkpt>
      <trkpt lat="44.38703" lon="4.15497">
        <ele>172.435</ele>
        <time>2014-05-04T14:48:23.363Z</time>
      </trkpt>
      <trkpt lat="44.38709" lon="4.15484">
        <ele>172.825</ele>
        <time>2014-05-04T14:48:35.047Z</time>
      </trkpt>
      <trkpt lat="44.38714" lon="4.15473">
        <ele>173.305</ele>
        <time>2014-05-04T14:48:43.505Z</time>
      </trkpt>
      <trkpt lat="44.38718" lon="4.1546">
        <ele>174.355</ele>
        <time>2014-05-04T14:48:52.582Z</time>
      </trkpt>
      <trkpt lat="44.38725" lon="4.15445">
        <ele>175.671</ele>
        <time>2014-05-04T14:49:06.350Z</time>
      </trkpt>
      <trkpt lat="44.38733" lon="4.15437">
        <ele>176.537</ele>
        <time>2014-05-04T14:49:17.105Z</time>
      </trkpt>
      <trkpt lat="44.38739" lon="4.15427">
        <ele>176.318</ele>
        <time>2014-05-04T14:49:26.545Z</time>
      </trkpt>
      <trkpt lat="44.38747" lon="4.15417">
        <ele>175.578</ele>
        <time>2014-05-04T14:49:40.080Z</time>
      </trkpt>
      <trkpt lat="44.38751" lon="4.15403">
        <ele>175.679</ele>
        <time>2014-05-04T14:49:56.134Z</time>
      </trkpt>
      <trkpt lat="44.38758" lon="4.15392">
        <ele>176.555</ele>
        <time>2014-05-04T14:50:07.574Z</time>
      </trkpt>
      <trkpt lat="44.38762" lon="4.15377">
        <ele>176.962</ele>
        <time>2014-05-04T14:50:19.845Z</time>
      </trkpt>
      <trkpt lat="44.38764" lon="4.15364">
        <ele>176.093</ele>
        <time>2014-05-04T14:50:30.868Z</time>
      </trkpt>
      <trkpt lat="44.3877" lon="4.15353">
        <ele>174.151</ele>
        <time>2014-05-04T14:50:44.138Z</time>
      </trkpt>
      <trkpt lat="44.38774" lon="4.15341">
        <ele>173.086</ele>
        <time>2014-05-04T14:50:54.304Z</time>
      </trkpt>
      <trkpt lat="44.38785" lon="4.15335">
        <ele>174.11</ele>
        <time>2014-05-04T14:51:06.899Z</time>
      </trkpt>
      <trkpt lat="44.38785" lon="4.15335">
        <ele>175.885</ele>
        <time>2014-05-04T14:51:10.896Z</time>
      </trkpt>
      <trkpt lat="44.38785" lon="4.15335">
        <ele>176.742</ele>
        <time>2014-05-04T14:51:10.996Z</time>
      </trkpt>
      <trkpt lat="44.38787" lon="4.15323">
        <ele>176.045</ele>
        <time>2014-05-04T14:51:33.277Z</time>
      </trkpt>
      <trkpt lat="44.38792" lon="4.15311">
        <ele>175.703</ele>
        <time>2014-05-04T14:51:44.137Z</time>
      </trkpt>
      <trkpt lat="44.38798" lon="4.153">
        <ele>175.208</ele>
        <time>2014-05-04T14:51:53.163Z</time>
      </trkpt>
      <trkpt lat="44.38808" lon="4.15288">
        <ele>174.218</ele>
        <time>2014-05-04T14:52:06.906Z</time>
      </trkpt>
      <trkpt lat="44.38818" lon="4.15277">
        <ele>174.034</ele>
        <time>2014-05-04T14:52:25.720Z</time>
      </trkpt>
      <trkpt lat="44.3883" lon="4.15269">
        <ele>175.737</ele>
        <time>2014-05-04T14:52:39.028Z</time>
      </trkpt>
      <trkpt lat="44.38838" lon="4.1526">
        <ele>177.994</ele>
        <time>2014-05-04T14:52:48.551Z</time>
      </trkpt>
      <trkpt lat="44.38845" lon="4.15253">
        <ele>179.351</ele>
        <time>2014-05-04T14:52:57.973Z</time>
      </trkpt>
      <trkpt lat="44.38852" lon="4.15244">
        <ele>180.04</ele>
        <time>2014-05-04T14:53:08.794Z</time>
      </trkpt>
      <trkpt lat="44.38856" lon="4.15231">
        <ele>180.555</ele>
        <time>2014-05-04T14:53:22.791Z</time>
      </trkpt>
      <trkpt lat="44.38859" lon="4.15216">
        <ele>181.45</ele>
        <time>2014-05-04T14:53:37.399Z</time>
      </trkpt>
      <trkpt lat="44.38853" lon="4.15197">
        <ele>182.978</ele>
        <time>2014-05-04T14:53:54.898Z</time>
      </trkpt>
      <trkpt lat="44.38853" lon="4.15197">
        <ele>184.124</ele>
        <time>2014-05-04T14:54:12.893Z</time>
      </trkpt>
      <trkpt lat="44.38853" lon="4.15197">
        <ele>184.016</ele>
        <time>2014-05-04T14:54:14.596Z</time>
      </trkpt>
      <trkpt lat="44.38853" lon="4.15181">
        <ele>183.478</ele>
        <time>2014-05-04T14:54:58.465Z</time>
      </trkpt>
      <trkpt lat="44.38842" lon="4.15186">
        <ele>183.398</ele>
        <time>2014-05-04T14:55:11.488Z</time>
      </trkpt>
      <trkpt lat="44.38833" lon="4.15188">
        <ele>182.98</ele>
        <time>2014-05-04T14:55:19.261Z</time>
      </trkpt>
      <trkpt lat="44.38822" lon="4.15181">
        <ele>180.823</ele>
        <time>2014-05-04T14:55:27.637Z</time>
      </trkpt>
      <trkpt lat="44.38811" lon="4.15171">
        <ele>177.415</ele>
        <time>2014-05-04T14:55:34.830Z</time>
      </trkpt>
      <trkpt lat="44.38803" lon="4.15162">
        <ele>174.56</ele>
        <time>2014-05-04T14:55:40.141Z</time>
      </trkpt>
      <trkpt lat="44.38798" lon="4.1515">
        <ele>173.049</ele>
        <time>2014-05-04T14:55:47.399Z</time>
      </trkpt>
      <trkpt lat="44.3879" lon="4.15141">
        <ele>172.725</ele>
        <time>2014-05-04T14:55:58.373Z</time>
      </trkpt>
      <trkpt lat="44.38786" lon="4.15127">
        <ele>173.392</ele>
        <time>2014-05-04T14:56:11.465Z</time>
      </trkpt>
      <trkpt lat="44.38774" lon="4.1512">
        <ele>174.666</ele>
        <time>2014-05-04T14:56:27.669Z</time>
      </trkpt>
      <trkpt lat="44.38762" lon="4.15121">
        <ele>175.956</ele>
        <time>2014-05-04T14:56:39.948Z</time>
      </trkpt>
      <trkpt lat="44.38752" lon="4.15116">
        <ele>176.88</ele>
        <time>2014-05-04T14:56:49.888Z</time>
      </trkpt>
      <trkpt lat="44.38742" lon="4.15111">
        <ele>177.333</ele>
        <time>2014-05-04T14:56:57.428Z</time>
      </trkpt>
      <trkpt lat="44.38733" lon="4.1511">
        <ele>177.223</ele>
        <time>2014-05-04T14:57:06.357Z</time>
      </trkpt>
      <trkpt lat="44.38724" lon="4.15097">
        <ele>176.662</ele>
        <time>2014-05-04T14:57:19.648Z</time>
      </trkpt>
      <trkpt lat="44.38714" lon="4.15085">
        <ele>176.088</ele>
        <time>2014-05-04T14:57:37.537Z</time>
      </trkpt>
      <trkpt lat="44.38707" lon="4.15077">
        <ele>175.784</ele>
        <time>2014-05-04T14:57:47.715Z</time>
      </trkpt>
      <trkpt lat="44.38704" lon="4.15063">
        <ele>175.718</ele>
        <time>2014-05-04T14:57:55.546Z</time>
      </trkpt>
      <trkpt lat="44.387" lon="4.15044">
        <ele>175.823</ele>
        <time>2014-05-04T14:58:07.450Z</time>
      </trkpt>
      <trkpt lat="44.38697" lon="4.15032">
        <ele>176.035</ele>
        <time>2014-05-04T14:58:15.768Z</time>
      </trkpt>
      <trkpt lat="44.38704" lon="4.15019">
        <ele>176.1</ele>
        <time>2014-05-04T14:58:28.925Z</time>
      </trkpt>
      <trkpt lat="44.38704" lon="4.15019">
        <ele>176.1</ele>
        <time>2014-05-04T14:58:28.925Z</time>
      </trkpt>
      <trkpt lat="44.38707" lon="4.14995">
        <ele>188.606</ele>
        <time>2014-05-04T14:59:04.896Z</time>
      </trkpt>
      <trkpt lat="44.38707" lon="4.14982">
        <ele>188.519</ele>
        <time>2014-05-04T14:59:25.718Z</time>
      </trkpt>
      <trkpt lat="44.38711" lon="4.1497">
        <ele>188.22</ele>
        <time>2014-05-04T14:59:41.819Z</time>
      </trkpt>
      <trkpt lat="44.38719" lon="4.14956">
        <ele>187.463</ele>
        <time>2014-05-04T15:00:16.181Z</time>
      </trkpt>
      <trkpt lat="44.38729" lon="4.14946">
        <ele>186.66</ele>
        <time>2014-05-04T15:00:40.540Z</time>
      </trkpt>
      <trkpt lat="44.38738" lon="4.14938">
        <ele>186.262</ele>
        <time>2014-05-04T15:00:47.246Z</time>
      </trkpt>
      <trkpt lat="44.38749" lon="4.14931">
        <ele>185.101</ele>
        <time>2014-05-04T15:00:54.051Z</time>
      </trkpt>
      <trkpt lat="44.38761" lon="4.14923">
        <ele>182.351</ele>
        <time>2014-05-04T15:01:06.458Z</time>
      </trkpt>
      <trkpt lat="44.38761" lon="4.14923">
        <ele>182.351</ele>
        <time>2014-05-04T15:01:06.458Z</time>
      </trkpt>
      <trkpt lat="44.38771" lon="4.14916">
        <ele>171.756</ele>
        <time>2014-05-04T15:01:17.894Z</time>
      </trkpt>
      <trkpt lat="44.38776" lon="4.149">
        <ele>171.676</ele>
        <time>2014-05-04T15:01:36.777Z</time>
      </trkpt>
      <trkpt lat="44.38782" lon="4.14889">
        <ele>171.99</ele>
        <time>2014-05-04T15:01:44.548Z</time>
      </trkpt>
      <trkpt lat="44.38792" lon="4.14879">
        <ele>173.126</ele>
        <time>2014-05-04T15:01:53.318Z</time>
      </trkpt>
      <trkpt lat="44.38801" lon="4.14876">
        <ele>175.247</ele>
        <time>2014-05-04T15:02:01.711Z</time>
      </trkpt>
      <trkpt lat="44.38814" lon="4.14869">
        <ele>178.262</ele>
        <time>2014-05-04T15:02:15.659Z</time>
      </trkpt>
      <trkpt lat="44.38823" lon="4.14865">
        <ele>181.342</ele>
        <time>2014-05-04T15:02:26.692Z</time>
      </trkpt>
      <trkpt lat="44.38836" lon="4.14862">
        <ele>182.828</ele>
        <time>2014-05-04T15:02:37.142Z</time>
      </trkpt>
      <trkpt lat="44.38845" lon="4.14852">
        <ele>182.195</ele>
        <time>2014-05-04T15:02:45.736Z</time>
      </trkpt>
      <trkpt lat="44.3885" lon="4.1484">
        <ele>180.8</ele>
        <time>2014-05-04T15:02:56.772Z</time>
      </trkpt>
      <trkpt lat="44.38858" lon="4.14833">
        <ele>180.019</ele>
        <time>2014-05-04T15:03:07.687Z</time>
      </trkpt>
      <trkpt lat="44.38866" lon="4.14821">
        <ele>179.949</ele>
        <time>2014-05-04T15:03:26.138Z</time>
      </trkpt>
      <trkpt lat="44.38868" lon="4.14802">
        <ele>180.009</ele>
        <time>2014-05-04T15:04:03.534Z</time>
      </trkpt>
      <trkpt lat="44.38866" lon="4.14785">
        <ele>179.829</ele>
        <time>2014-05-04T15:04:41.500Z</time>
      </trkpt>
      <trkpt lat="44.38858" lon="4.14773">
        <ele>178.964</ele>
        <time>2014-05-04T15:05:16.370Z</time>
      </trkpt>
      <trkpt lat="44.38847" lon="4.14766">
        <ele>177.078</ele>
        <time>2014-05-04T15:05:33.061Z</time>
      </trkpt>
      <trkpt lat="44.38843" lon="4.1475">
        <ele>174.738</ele>
        <time>2014-05-04T15:05:44.727Z</time>
      </trkpt>
      <trkpt lat="44.38838" lon="4.14738">
        <ele>172.946</ele>
        <time>2014-05-04T15:05:50.866Z</time>
      </trkpt>
      <trkpt lat="44.38836" lon="4.14723">
        <ele>171.848</ele>
        <time>2014-05-04T15:05:57.021Z</time>
      </trkpt>
      <trkpt lat="44.38836" lon="4.1471">
        <ele>171.443</ele>
        <time>2014-05-04T15:06:02.643Z</time>
      </trkpt>
      <trkpt lat="44.38839" lon="4.14695">
        <ele>171.838</ele>
        <time>2014-05-04T15:06:13.350Z</time>
      </trkpt>
      <trkpt lat="44.38849" lon="4.14687">
        <ele>172.932</ele>
        <time>2014-05-04T15:06:27.686Z</time>
      </trkpt>
      <trkpt lat="44.38856" lon="4.14678">
        <ele>174.443</ele>
        <time>2014-05-04T15:06:42.767Z</time>
      </trkpt>
      <trkpt lat="44.38858" lon="4.1466">
        <ele>176.825</ele>
        <time>2014-05-04T15:07:02.651Z</time>
      </trkpt>
      <trkpt lat="44.38859" lon="4.14646">
        <ele>180.073</ele>
        <time>2014-05-04T15:07:13.910Z</time>
      </trkpt>
      <trkpt lat="44.38858" lon="4.14633">
        <ele>182.778</ele>
        <time>2014-05-04T15:07:22.469Z</time>
      </trkpt>
      <trkpt lat="44.38858" lon="4.14619">
        <ele>183.497</ele>
        <time>2014-05-04T15:07:33.161Z</time>
      </trkpt>
      <trkpt lat="44.38863" lon="4.14599">
        <ele>182.428</ele>
        <time>2014-05-04T15:07:47.890Z</time>
      </trkpt>
      <trkpt lat="44.38863" lon="4.14599">
        <ele>180.814</ele>
        <time>2014-05-04T15:08:12.894Z</time>
      </trkpt>
      <trkpt lat="44.38863" lon="4.14599">
        <ele>179.901</ele>
        <time>2014-05-04T15:08:12.994Z</time>
      </trkpt>
      <trkpt lat="44.38867" lon="4.14576">
        <ele>179.896</ele>
        <time>2014-05-04T15:08:29.147Z</time>
      </trkpt>
      <trkpt lat="44.38874" lon="4.14567">
        <ele>180.273</ele>
        <time>2014-05-04T15:08:35.059Z</time>
      </trkpt>
      <trkpt lat="44.38881" lon="4.14554">
        <ele>180.571</ele>
        <time>2014-05-04T15:08:42.046Z</time>
      </trkpt>
      <trkpt lat="44.38879" lon="4.14539">
        <ele>180.713</ele>
        <time>2014-05-04T15:08:51.263Z</time>
      </trkpt>
      <trkpt lat="44.38877" lon="4.14524">
        <ele>180.787</ele>
        <time>2014-05-04T15:09:00.824Z</time>
      </trkpt>
      <trkpt lat="44.38872" lon="4.14513">
        <ele>181.28</ele>
        <time>2014-05-04T15:09:08.479Z</time>
      </trkpt>
      <trkpt lat="44.38863" lon="4.14506">
        <ele>182.422</ele>
        <time>2014-05-04T15:09:14.905Z</time>
      </trkpt>
      <trkpt lat="44.38863" lon="4.14506">
        <ele>183.312</ele>
        <time>2014-05-04T15:09:29.902Z</time>
      </trkpt>
      <trkpt lat="44.38863" lon="4.14506">
        <ele>183.216</ele>
        <time>2014-05-04T15:09:49.905Z</time>
      </trkpt>
      <trkpt lat="44.38863" lon="4.14506">
        <ele>182.764</ele>
        <time>2014-05-04T15:09:50.005Z</time>
      </trkpt>
      <trkpt lat="44.3886" lon="4.14488">
        <ele>182.81</ele>
        <time>2014-05-04T15:10:35.344Z</time>
      </trkpt>
      <trkpt lat="44.38853" lon="4.14479">
        <ele>182.916</ele>
        <time>2014-05-04T15:10:51.909Z</time>
      </trkpt>
      <trkpt lat="44.38853" lon="4.14479">
        <ele>182.873</ele>
        <time>2014-05-04T15:10:52.899Z</time>
      </trkpt>
      <trkpt lat="44.38853" lon="4.14479">
        <ele>182.768</ele>
        <time>2014-05-04T15:10:52.999Z</time>
      </trkpt>
      <trkpt lat="44.38847" lon="4.14465">
        <ele>182.663</ele>
        <time>2014-05-04T15:11:12.542Z</time>
      </trkpt>
      <trkpt lat="44.38844" lon="4.14453">
        <ele>182.181</ele>
        <time>2014-05-04T15:11:17.897Z</time>
      </trkpt>
      <trkpt lat="44.38844" lon="4.14453">
        <ele>180.955</ele>
        <time>2014-05-04T15:11:48.911Z</time>
      </trkpt>
      <trkpt lat="44.38844" lon="4.14453">
        <ele>179.904</ele>
        <time>2014-05-04T15:11:49.011Z</time>
      </trkpt>
      <trkpt lat="44.38838" lon="4.14439">
        <ele>180.017</ele>
        <time>2014-05-04T15:12:14.947Z</time>
      </trkpt>
      <trkpt lat="44.38828" lon="4.14433">
        <ele>181.058</ele>
        <time>2014-05-04T15:12:23.015Z</time>
      </trkpt>
      <trkpt lat="44.38833" lon="4.14419">
        <ele>182.34</ele>
        <time>2014-05-04T15:12:30.920Z</time>
      </trkpt>
      <trkpt lat="44.38833" lon="4.14419">
        <ele>183.347</ele>
        <time>2014-05-04T15:12:36.917Z</time>
      </trkpt>
      <trkpt lat="44.38833" lon="4.14419">
        <ele>183.762</ele>
        <time>2014-05-04T15:13:04.899Z</time>
      </trkpt>
      <trkpt lat="44.38842" lon="4.14406">
        <ele>180.307</ele>
        <time>2014-05-04T15:13:49.897Z</time>
      </trkpt>
      <trkpt lat="44.38842" lon="4.14406">
        <ele>180.224</ele>
        <time>2014-05-04T15:13:51.902Z</time>
      </trkpt>
      <trkpt lat="44.38842" lon="4.14406">
        <ele>180.178</ele>
        <time>2014-05-04T15:14:59.525Z</time>
      </trkpt>
      <trkpt lat="44.38853" lon="4.14422">
        <ele>180.138</ele>
        <time>2014-05-04T15:15:31.423Z</time>
      </trkpt>
      <trkpt lat="44.3885" lon="4.14434">
        <ele>180.824</ele>
        <time>2014-05-04T15:15:41.905Z</time>
      </trkpt>
      <trkpt lat="44.3885" lon="4.14434">
        <ele>182.68</ele>
        <time>2014-05-04T15:15:56.895Z</time>
      </trkpt>
      <trkpt lat="44.3885" lon="4.14434">
        <ele>184.208</ele>
        <time>2014-05-04T15:15:56.995Z</time>
      </trkpt>
      <trkpt lat="44.38849" lon="4.14451">
        <ele>184.106</ele>
        <time>2014-05-04T15:16:20.908Z</time>
      </trkpt>
      <trkpt lat="44.38849" lon="4.14451">
        <ele>183.402</ele>
        <time>2014-05-04T15:16:45.904Z</time>
      </trkpt>
      <trkpt lat="44.38849" lon="4.14451">
        <ele>183.267</ele>
        <time>2014-05-04T15:16:46.004Z</time>
      </trkpt>
      <trkpt lat="44.38849" lon="4.14471">
        <ele>183.473</ele>
        <time>2014-05-04T15:17:00.896Z</time>
      </trkpt>
      <trkpt lat="44.38849" lon="4.14471">
        <ele>183.325</ele>
        <time>2014-05-04T15:17:30.903Z</time>
      </trkpt>
      <trkpt lat="44.38849" lon="4.14471">
        <ele>183.201</ele>
        <time>2014-05-04T15:17:31.003Z</time>
      </trkpt>
      <trkpt lat="44.38857" lon="4.14484">
        <ele>183.13</ele>
        <time>2014-05-04T15:17:57.178Z</time>
      </trkpt>
      <trkpt lat="44.38846" lon="4.14478">
        <ele>182.454</ele>
        <time>2014-05-04T15:18:12.332Z</time>
      </trkpt>
      <trkpt lat="44.38836" lon="4.14475">
        <ele>180.072</ele>
        <time>2014-05-04T15:18:20.701Z</time>
      </trkpt>
      <trkpt lat="44.38825" lon="4.14476">
        <ele>176.343</ele>
        <time>2014-05-04T15:18:30.870Z</time>
      </trkpt>
      <trkpt lat="44.38815" lon="4.14482">
        <ele>173.355</ele>
        <time>2014-05-04T15:18:42.906Z</time>
      </trkpt>
      <trkpt lat="44.38815" lon="4.14482">
        <ele>172.302</ele>
        <time>2014-05-04T15:19:03.918Z</time>
      </trkpt>
      <trkpt lat="44.38815" lon="4.14482">
        <ele>172.492</ele>
        <time>2014-05-04T15:19:04.018Z</time>
      </trkpt>
      <trkpt lat="44.38797" lon="4.14479">
        <ele>172.9</ele>
        <time>2014-05-04T15:20:19.990Z</time>
      </trkpt>
      <trkpt lat="44.38785" lon="4.14483">
        <ele>173.9</ele>
        <time>2014-05-04T15:20:35.545Z</time>
      </trkpt>
      <trkpt lat="44.38774" lon="4.14479">
        <ele>175.92</ele>
        <time>2014-05-04T15:20:47.556Z</time>
      </trkpt>
      <trkpt lat="44.38764" lon="4.14473">
        <ele>177.768</ele>
        <time>2014-05-04T15:20:56.545Z</time>
      </trkpt>
      <trkpt lat="44.38754" lon="4.1448">
        <ele>178.219</ele>
        <time>2014-05-04T15:21:06.411Z</time>
      </trkpt>
      <trkpt lat="44.38744" lon="4.14488">
        <ele>177.8</ele>
        <time>2014-05-04T15:21:23.404Z</time>
      </trkpt>
      <trkpt lat="44.38736" lon="4.145">
        <ele>177.869</ele>
        <time>2014-05-04T15:21:39.459Z</time>
      </trkpt>
      <trkpt lat="44.38736" lon="4.145">
        <ele>178.922</ele>
        <time>2014-05-04T15:21:49.895Z</time>
      </trkpt>
      <trkpt lat="44.38736" lon="4.145">
        <ele>179.85</ele>
        <time>2014-05-04T15:21:49.995Z</time>
      </trkpt>
      <trkpt lat="44.38727" lon="4.14513">
        <ele>179.185</ele>
        <time>2014-05-04T15:22:30.530Z</time>
      </trkpt>
      <trkpt lat="44.38717" lon="4.14522">
        <ele>179.034</ele>
        <time>2014-05-04T15:22:41.824Z</time>
      </trkpt>
      <trkpt lat="44.38705" lon="4.14523">
        <ele>179.579</ele>
        <time>2014-05-04T15:22:56.234Z</time>
      </trkpt>
      <trkpt lat="44.38695" lon="4.14527">
        <ele>180.19</ele>
        <time>2014-05-04T15:23:08.961Z</time>
      </trkpt>
      <trkpt lat="44.38687" lon="4.14512">
        <ele>179.985</ele>
        <time>2014-05-04T15:23:25.907Z</time>
      </trkpt>
      <trkpt lat="44.38687" lon="4.14512">
        <ele>178.972</ele>
        <time>2014-05-04T15:23:29.899Z</time>
      </trkpt>
      <trkpt lat="44.38687" lon="4.14512">
        <ele>178.118</ele>
        <time>2014-05-04T15:23:29.999Z</time>
      </trkpt>
      <trkpt lat="44.38687" lon="4.14512">
        <ele>178.42</ele>
        <time>2014-05-04T15:24:12.896Z</time>
      </trkpt>
      <trkpt lat="44.38687" lon="4.14512">
        <ele>178.631</ele>
        <time>2014-05-04T15:24:12.996Z</time>
      </trkpt>
      <trkpt lat="44.38679" lon="4.14476">
        <ele>178.546</ele>
        <time>2014-05-04T15:25:49.029Z</time>
      </trkpt>
      <trkpt lat="44.38689" lon="4.14465">
        <ele>178.639</ele>
        <time>2014-05-04T15:26:01.294Z</time>
      </trkpt>
      <trkpt lat="44.387" lon="4.14468">
        <ele>180.088</ele>
        <time>2014-05-04T15:26:11.940Z</time>
      </trkpt>
      <trkpt lat="44.38703" lon="4.1445">
        <ele>183.473</ele>
        <time>2014-05-04T15:26:24.897Z</time>
      </trkpt>
      <trkpt lat="44.38703" lon="4.1445">
        <ele>187.396</ele>
        <time>2014-05-04T15:26:28.899Z</time>
      </trkpt>
      <trkpt lat="44.38703" lon="4.1445">
        <ele>189.519</ele>
        <time>2014-05-04T15:26:33.456Z</time>
      </trkpt>
      <trkpt lat="44.3871" lon="4.14441">
        <ele>188.086</ele>
        <time>2014-05-04T15:26:46.900Z</time>
      </trkpt>
      <trkpt lat="44.3871" lon="4.14441">
        <ele>187.361</ele>
        <time>2014-05-04T15:26:47.898Z</time>
      </trkpt>
      <trkpt lat="44.3871" lon="4.14441">
        <ele>187.33</ele>
        <time>2014-05-04T15:26:48.606Z</time>
      </trkpt>
      <trkpt lat="44.38721" lon="4.14437">
        <ele>187.466</ele>
        <time>2014-05-04T15:27:40.225Z</time>
      </trkpt>
      <trkpt lat="44.38719" lon="4.14424">
        <ele>189.248</ele>
        <time>2014-05-04T15:27:54.955Z</time>
      </trkpt>
      <trkpt lat="44.38726" lon="4.14414">
        <ele>196.169</ele>
        <time>2014-05-04T15:28:08.924Z</time>
      </trkpt>
      <trkpt lat="44.38733" lon="4.14405">
        <ele>206.4</ele>
        <time>2014-05-04T15:28:38.887Z</time>
      </trkpt>
      <trkpt lat="44.38738" lon="4.14393">
        <ele>214.336</ele>
        <time>2014-05-04T15:29:09.325Z</time>
      </trkpt>
      <trkpt lat="44.38737" lon="4.14381">
        <ele>218.669</ele>
        <time>2014-05-04T15:29:26.489Z</time>
      </trkpt>
      <trkpt lat="44.38745" lon="4.14365">
        <ele>221.823</ele>
        <time>2014-05-04T15:29:48.687Z</time>
      </trkpt>
      <trkpt lat="44.38747" lon="4.14349">
        <ele>223.917</ele>
        <time>2014-05-04T15:30:07.055Z</time>
      </trkpt>
      <trkpt lat="44.38747" lon="4.14335">
        <ele>226.025</ele>
        <time>2014-05-04T15:30:26.199Z</time>
      </trkpt>
      <trkpt lat="44.38755" lon="4.14322">
        <ele>228.094</ele>
        <time>2014-05-04T15:30:42.001Z</time>
      </trkpt>
      <trkpt lat="44.38764" lon="4.1433">
        <ele>231.253</ele>
        <time>2014-05-04T15:30:55.478Z</time>
      </trkpt>
      <trkpt lat="44.38775" lon="4.14329">
        <ele>234.639</ele>
        <time>2014-05-04T15:31:10.253Z</time>
      </trkpt>
      <trkpt lat="44.38784" lon="4.14322">
        <ele>237.126</ele>
        <time>2014-05-04T15:31:30.416Z</time>
      </trkpt>
      <trkpt lat="44.38788" lon="4.14308">
        <ele>238.058</ele>
        <time>2014-05-04T15:31:49.077Z</time>
      </trkpt>
      <trkpt lat="44.38799" lon="4.14305">
        <ele>238.764</ele>
        <time>2014-05-04T15:32:07.430Z</time>
      </trkpt>
      <trkpt lat="44.38809" lon="4.14294">
        <ele>240.281</ele>
        <time>2014-05-04T15:32:27.814Z</time>
      </trkpt>
      <trkpt lat="44.3882" lon="4.14283">
        <ele>241.882</ele>
        <time>2014-05-04T15:32:45.667Z</time>
      </trkpt>
      <trkpt lat="44.38827" lon="4.14273">
        <ele>243.85</ele>
        <time>2014-05-04T15:33:02.133Z</time>
      </trkpt>
      <trkpt lat="44.38837" lon="4.14268">
        <ele>247.383</ele>
        <time>2014-05-04T15:33:19.342Z</time>
      </trkpt>
      <trkpt lat="44.38847" lon="4.14268">
        <ele>251.335</ele>
        <time>2014-05-04T15:33:33.918Z</time>
      </trkpt>
      <trkpt lat="44.38856" lon="4.14267">
        <ele>254.087</ele>
        <time>2014-05-04T15:33:49.529Z</time>
      </trkpt>
      <trkpt lat="44.38866" lon="4.14263">
        <ele>255.385</ele>
        <time>2014-05-04T15:34:02.310Z</time>
      </trkpt>
      <trkpt lat="44.38876" lon="4.14261">
        <ele>254.67</ele>
        <time>2014-05-04T15:34:13.777Z</time>
      </trkpt>
      <trkpt lat="44.38885" lon="4.14261">
        <ele>252.246</ele>
        <time>2014-05-04T15:34:22.619Z</time>
      </trkpt>
      <trkpt lat="44.38897" lon="4.1426">
        <ele>250.766</ele>
        <time>2014-05-04T15:34:36.188Z</time>
      </trkpt>
      <trkpt lat="44.38909" lon="4.14254">
        <ele>252.311</ele>
        <time>2014-05-04T15:34:57.232Z</time>
      </trkpt>
      <trkpt lat="44.38918" lon="4.14247">
        <ele>255.748</ele>
        <time>2014-05-04T15:35:15.476Z</time>
      </trkpt>
      <trkpt lat="44.38925" lon="4.14239">
        <ele>259.176</ele>
        <time>2014-05-04T15:35:23.897Z</time>
      </trkpt>
      <trkpt lat="44.38934" lon="4.14234">
        <ele>262.167</ele>
        <time>2014-05-04T15:35:34.906Z</time>
      </trkpt>
      <trkpt lat="44.38941" lon="4.14224">
        <ele>264.608</ele>
        <time>2014-05-04T15:35:46.895Z</time>
      </trkpt>
      <trkpt lat="44.38952" lon="4.14217">
        <ele>266.103</ele>
        <time>2014-05-04T15:35:56.893Z</time>
      </trkpt>
      <trkpt lat="44.38962" lon="4.14208">
        <ele>266.716</ele>
        <time>2014-05-04T15:36:09.050Z</time>
      </trkpt>
      <trkpt lat="44.3897" lon="4.14203">
        <ele>266.812</ele>
        <time>2014-05-04T15:36:19.321Z</time>
      </trkpt>
      <trkpt lat="44.3898" lon="4.14201">
        <ele>267.108</ele>
        <time>2014-05-04T15:36:28.946Z</time>
      </trkpt>
      <trkpt lat="44.3899" lon="4.14198">
        <ele>268.08</ele>
        <time>2014-05-04T15:36:37.626Z</time>
      </trkpt>
      <trkpt lat="44.38998" lon="4.14193">
        <ele>269.242</ele>
        <time>2014-05-04T15:36:44.430Z</time>
      </trkpt>
      <trkpt lat="44.39007" lon="4.14188">
        <ele>270.038</ele>
        <time>2014-05-04T15:36:52.600Z</time>
      </trkpt>
      <trkpt lat="44.39016" lon="4.14184">
        <ele>270.954</ele>
        <time>2014-05-04T15:37:05.486Z</time>
      </trkpt>
      <trkpt lat="44.39025" lon="4.14173">
        <ele>272.367</ele>
        <time>2014-05-04T15:37:19.569Z</time>
      </trkpt>
      <trkpt lat="44.39036" lon="4.14163">
        <ele>273.908</ele>
        <time>2014-05-04T15:37:34.894Z</time>
      </trkpt>
      <trkpt lat="44.39043" lon="4.14155">
        <ele>275.318</ele>
        <time>2014-05-04T15:37:43.827Z</time>
      </trkpt>
      <trkpt lat="44.39049" lon="4.14145">
        <ele>276.578</ele>
        <time>2014-05-04T15:37:49.386Z</time>
      </trkpt>
      <trkpt lat="44.39058" lon="4.14133">
        <ele>276.428</ele>
        <time>2014-05-04T15:37:59.592Z</time>
      </trkpt>
      <trkpt lat="44.39065" lon="4.14123">
        <ele>274.211</ele>
        <time>2014-05-04T15:38:08.359Z</time>
      </trkpt>
      <trkpt lat="44.39074" lon="4.14108">
        <ele>272.56</ele>
        <time>2014-05-04T15:38:26.850Z</time>
      </trkpt>
      <trkpt lat="44.39083" lon="4.14103">
        <ele>274.368</ele>
        <time>2014-05-04T15:38:39.597Z</time>
      </trkpt>
      <trkpt lat="44.39095" lon="4.14102">
        <ele>278.668</ele>
        <time>2014-05-04T15:38:52.022Z</time>
      </trkpt>
      <trkpt lat="44.39106" lon="4.14101">
        <ele>282.805</ele>
        <time>2014-05-04T15:39:03.128Z</time>
      </trkpt>
      <trkpt lat="44.39115" lon="4.14096">
        <ele>285.461</ele>
        <time>2014-05-04T15:39:12.866Z</time>
      </trkpt>
      <trkpt lat="44.39125" lon="4.14095">
        <ele>287.407</ele>
        <time>2014-05-04T15:39:23.819Z</time>
      </trkpt>
      <trkpt lat="44.39134" lon="4.14091">
        <ele>289.637</ele>
        <time>2014-05-04T15:39:31.040Z</time>
      </trkpt>
      <trkpt lat="44.39142" lon="4.14085">
        <ele>291.315</ele>
        <time>2014-05-04T15:39:38.262Z</time>
      </trkpt>
      <trkpt lat="44.39152" lon="4.14079">
        <ele>291.205</ele>
        <time>2014-05-04T15:39:46.435Z</time>
      </trkpt>
      <trkpt lat="44.39159" lon="4.14068">
        <ele>289.588</ele>
        <time>2014-05-04T15:39:54.914Z</time>
      </trkpt>
      <trkpt lat="44.39168" lon="4.14062">
        <ele>287.554</ele>
        <time>2014-05-04T15:40:03.496Z</time>
      </trkpt>
      <trkpt lat="44.39176" lon="4.14056">
        <ele>286.218</ele>
        <time>2014-05-04T15:40:12.274Z</time>
      </trkpt>
      <trkpt lat="44.39184" lon="4.14049">
        <ele>285.891</ele>
        <time>2014-05-04T15:40:19.435Z</time>
      </trkpt>
      <trkpt lat="44.39187" lon="4.14062">
        <ele>285.979</ele>
        <time>2014-05-04T15:40:28.685Z</time>
      </trkpt>
      <trkpt lat="44.39188" lon="4.14075">
        <ele>285.621</ele>
        <time>2014-05-04T15:40:37.910Z</time>
      </trkpt>
      <trkpt lat="44.39191" lon="4.14087">
        <ele>284.606</ele>
        <time>2014-05-04T15:40:43.789Z</time>
      </trkpt>
      <trkpt lat="44.39191" lon="4.141">
        <ele>283.456</ele>
        <time>2014-05-04T15:40:49.067Z</time>
      </trkpt>
      <trkpt lat="44.39193" lon="4.14114">
        <ele>282.502</ele>
        <time>2014-05-04T15:40:55.563Z</time>
      </trkpt>
      <trkpt lat="44.39195" lon="4.14127">
        <ele>281.877</ele>
        <time>2014-05-04T15:41:03.657Z</time>
      </trkpt>
      <trkpt lat="44.39198" lon="4.1414">
        <ele>281.665</ele>
        <time>2014-05-04T15:41:11.796Z</time>
      </trkpt>
      <trkpt lat="44.39202" lon="4.14153">
        <ele>281.648</ele>
        <time>2014-05-04T15:41:19.664Z</time>
      </trkpt>
      <trkpt lat="44.39204" lon="4.14165">
        <ele>281.256</ele>
        <time>2014-05-04T15:41:26.123Z</time>
      </trkpt>
      <trkpt lat="44.39207" lon="4.14178">
        <ele>280.368</ele>
        <time>2014-05-04T15:41:32.857Z</time>
      </trkpt>
      <trkpt lat="44.39208" lon="4.14192">
        <ele>279.663</ele>
        <time>2014-05-04T15:41:40.860Z</time>
      </trkpt>
      <trkpt lat="44.39211" lon="4.14204">
        <ele>279.538</ele>
        <time>2014-05-04T15:41:48.484Z</time>
      </trkpt>
      <trkpt lat="44.39212" lon="4.14221">
        <ele>279.569</ele>
        <time>2014-05-04T15:41:57.727Z</time>
      </trkpt>
      <trkpt lat="44.39214" lon="4.14234">
        <ele>279.361</ele>
        <time>2014-05-04T15:42:04.384Z</time>
      </trkpt>
      <trkpt lat="44.39215" lon="4.1425">
        <ele>278.88</ele>
        <time>2014-05-04T15:42:13.092Z</time>
      </trkpt>
      <trkpt lat="44.39213" lon="4.14262">
        <ele>278.448</ele>
        <time>2014-05-04T15:42:23.116Z</time>
      </trkpt>
      <trkpt lat="44.39217" lon="4.1427">
        <ele>277.563</ele>
        <time>2014-05-04T15:42:33.031Z</time>
      </trkpt>
      <trkpt lat="44.39217" lon="4.1427">
        <ele>273.201</ele>
        <time>2014-05-04T15:42:35.280Z</time>
      </trkpt>
      <trkpt lat="44.39217" lon="4.1427">
        <ele>271.728</ele>
        <time>2014-05-04T15:42:36.289Z</time>
      </trkpt>
      <trkpt lat="44.39217" lon="4.1427">
        <ele>271.299</ele>
        <time>2014-05-04T15:42:36.289Z</time>
      </trkpt>
      <trkpt lat="44.39217" lon="4.1427">
        <ele>271.475</ele>
        <time>2014-05-04T15:42:41.509Z</time>
      </trkpt>
      <trkpt lat="44.39217" lon="4.1427">
        <ele>271.895</ele>
        <time>2014-05-04T15:42:43.209Z</time>
      </trkpt>
      <trkpt lat="44.39217" lon="4.1427">
        <ele>272.301</ele>
        <time>2014-05-04T15:42:48.815Z</time>
      </trkpt>
      <trkpt lat="44.39217" lon="4.1427">
        <ele>272.486</ele>
        <time>2014-05-04T15:42:49.919Z</time>
      </trkpt>
      <trkpt lat="44.39217" lon="4.1427">
        <ele>272.51</ele>
        <time>2014-05-04T15:42:55.077Z</time>
      </trkpt>
      <trkpt lat="44.39217" lon="4.1427">
        <ele>272.475</ele>
        <time>2014-05-04T15:42:56.172Z</time>
      </trkpt>
      <trkpt lat="44.39217" lon="4.1427">
        <ele>272.442</ele>
        <time>2014-05-04T15:42:57.138Z</time>
      </trkpt>
    </trkseg>
  </trk>
</gpx>